<?xml version="1.0" encoding="UTF-8"?>
<gpx xmlns:xsi="http://www.w3.org/2001/XMLSchema-instance" xmlns="http://www.topografix.com/GPX/1/0" version="1.0" xsi:schemaLocation="http://www.topografix.com/GPX/1/0 http://www.topografix.com/GPX/1/0/gpx.xsd" creator="gpx.py -- https://github.com/tkrajina/gpxpy">
<name>大理 - 双廊 - 挖色 - 鸡足山镇</name>
<desc>行者骑行软件</desc>
<author>行者骑行软件</author>
<url>http://www.imxingzhe.com</url>
<urlname>行者骑行软件</urlname>
<time>2016-08-12T20:33:37Z</time>
<keywords>行者骑行软件</keywords>
<distance>114141</distance>
<trk>
<name>行者骑行软件</name>
<desc/>
<trkseg>
<trkpt lat="25.69981" lon="100.169892">
<time>2016-08-13T11:38:59Z</time></trkpt>
<trkpt lat="25.69983" lon="100.169882">
<time>2016-08-13T11:39:00Z</time></trkpt>
<trkpt lat="25.70001" lon="100.169822">
<time>2016-08-13T11:39:01Z</time></trkpt>
<trkpt lat="25.70008" lon="100.169801">
<time>2016-08-13T11:39:02Z</time></trkpt>
<trkpt lat="25.70012" lon="100.169771">
<time>2016-08-13T11:39:03Z</time></trkpt>
<trkpt lat="25.70014" lon="100.169751">
<time>2016-08-13T11:39:04Z</time></trkpt>
<trkpt lat="25.70015" lon="100.169731">
<time>2016-08-13T11:39:05Z</time></trkpt>
<trkpt lat="25.700149" lon="100.169711">
<time>2016-08-13T11:39:06Z</time></trkpt>
<trkpt lat="25.700159" lon="100.169701">
<time>2016-08-13T11:39:07Z</time></trkpt>
<trkpt lat="25.700159" lon="100.169691">
<time>2016-08-13T11:39:08Z</time></trkpt>
<trkpt lat="25.700159" lon="100.169671">
<time>2016-08-13T11:39:09Z</time></trkpt>
<trkpt lat="25.700149" lon="100.169651">
<time>2016-08-13T11:39:10Z</time></trkpt>
<trkpt lat="25.700139" lon="100.169611">
<time>2016-08-13T11:39:11Z</time></trkpt>
<trkpt lat="25.700139" lon="100.169561">
<time>2016-08-13T11:39:12Z</time></trkpt>
<trkpt lat="25.700129" lon="100.169541">
<time>2016-08-13T11:39:13Z</time></trkpt>
<trkpt lat="25.700129" lon="100.169521">
<time>2016-08-13T11:39:14Z</time></trkpt>
<trkpt lat="25.700139" lon="100.169471">
<time>2016-08-13T11:39:15Z</time></trkpt>
<trkpt lat="25.700189" lon="100.169441">
<time>2016-08-13T11:39:16Z</time></trkpt>
<trkpt lat="25.700279" lon="100.169391">
<time>2016-08-13T11:39:17Z</time></trkpt>
<trkpt lat="25.701229" lon="100.16895">
<time>2016-08-13T11:39:18Z</time></trkpt>
<trkpt lat="25.702098" lon="100.168579">
<time>2016-08-13T11:39:19Z</time></trkpt>
<trkpt lat="25.702198" lon="100.168529">
<time>2016-08-13T11:39:20Z</time></trkpt>
<trkpt lat="25.703308" lon="100.168018">
<time>2016-08-13T11:39:21Z</time></trkpt>
<trkpt lat="25.703898" lon="100.167747">
<time>2016-08-13T11:39:22Z</time></trkpt>
<trkpt lat="25.704038" lon="100.167687">
<time>2016-08-13T11:39:23Z</time></trkpt>
<trkpt lat="25.704468" lon="100.167476">
<time>2016-08-13T11:39:24Z</time></trkpt>
<trkpt lat="25.705327" lon="100.167066">
<time>2016-08-13T11:39:25Z</time></trkpt>
<trkpt lat="25.706027" lon="100.166725">
<time>2016-08-13T11:39:26Z</time></trkpt>
<trkpt lat="25.706247" lon="100.166655">
<time>2016-08-13T11:39:27Z</time></trkpt>
<trkpt lat="25.706347" lon="100.166635">
<time>2016-08-13T11:39:28Z</time></trkpt>
<trkpt lat="25.706567" lon="100.166595">
<time>2016-08-13T11:39:29Z</time></trkpt>
<trkpt lat="25.706917" lon="100.166564">
<time>2016-08-13T11:39:30Z</time></trkpt>
<trkpt lat="25.707227" lon="100.166534">
<time>2016-08-13T11:39:31Z</time></trkpt>
<trkpt lat="25.707718" lon="100.166484">
<time>2016-08-13T11:39:32Z</time></trkpt>
<trkpt lat="25.708198" lon="100.166424">
<time>2016-08-13T11:39:33Z</time></trkpt>
<trkpt lat="25.708358" lon="100.166414">
<time>2016-08-13T11:39:34Z</time></trkpt>
<trkpt lat="25.708558" lon="100.166414">
<time>2016-08-13T11:39:35Z</time></trkpt>
<trkpt lat="25.708638" lon="100.166414">
<time>2016-08-13T11:39:36Z</time></trkpt>
<trkpt lat="25.708738" lon="100.166434">
<time>2016-08-13T11:39:37Z</time></trkpt>
<trkpt lat="25.708738" lon="100.166434">
<time>2016-08-13T11:39:38Z</time></trkpt>
<trkpt lat="25.708858" lon="100.166304">
<time>2016-08-13T11:39:39Z</time></trkpt>
<trkpt lat="25.708938" lon="100.166244">
<time>2016-08-13T11:39:40Z</time></trkpt>
<trkpt lat="25.709058" lon="100.166154">
<time>2016-08-13T11:39:41Z</time></trkpt>
<trkpt lat="25.709138" lon="100.166103">
<time>2016-08-13T11:39:42Z</time></trkpt>
<trkpt lat="25.709497" lon="100.165903">
<time>2016-08-13T11:39:43Z</time></trkpt>
<trkpt lat="25.710127" lon="100.165542">
<time>2016-08-13T11:39:44Z</time></trkpt>
<trkpt lat="25.710627" lon="100.165252">
<time>2016-08-13T11:39:45Z</time></trkpt>
<trkpt lat="25.711406" lon="100.164801">
<time>2016-08-13T11:39:46Z</time></trkpt>
<trkpt lat="25.712506" lon="100.164179">
<time>2016-08-13T11:39:47Z</time></trkpt>
<trkpt lat="25.712836" lon="100.163989">
<time>2016-08-13T11:39:48Z</time></trkpt>
<trkpt lat="25.713675" lon="100.163548">
<time>2016-08-13T11:39:49Z</time></trkpt>
<trkpt lat="25.713805" lon="100.163478">
<time>2016-08-13T11:39:50Z</time></trkpt>
<trkpt lat="25.714005" lon="100.163368">
<time>2016-08-13T11:39:51Z</time></trkpt>
<trkpt lat="25.714485" lon="100.163147">
<time>2016-08-13T11:39:52Z</time></trkpt>
<trkpt lat="25.714815" lon="100.163007">
<time>2016-08-13T11:39:53Z</time></trkpt>
<trkpt lat="25.715975" lon="100.162496">
<time>2016-08-13T11:39:54Z</time></trkpt>
<trkpt lat="25.717014" lon="100.162015">
<time>2016-08-13T11:39:55Z</time></trkpt>
<trkpt lat="25.717774" lon="100.161644">
<time>2016-08-13T11:39:56Z</time></trkpt>
<trkpt lat="25.718464" lon="100.161273">
<time>2016-08-13T11:39:57Z</time></trkpt>
<trkpt lat="25.718654" lon="100.161173">
<time>2016-08-13T11:39:58Z</time></trkpt>
<trkpt lat="25.719334" lon="100.160832">
<time>2016-08-13T11:39:59Z</time></trkpt>
<trkpt lat="25.720303" lon="100.160321">
<time>2016-08-13T11:40:00Z</time></trkpt>
<trkpt lat="25.721323" lon="100.15977">
<time>2016-08-13T11:40:01Z</time></trkpt>
<trkpt lat="25.721962" lon="100.159409">
<time>2016-08-13T11:40:02Z</time></trkpt>
<trkpt lat="25.722902" lon="100.158908">
<time>2016-08-13T11:40:03Z</time></trkpt>
<trkpt lat="25.723082" lon="100.158808">
<time>2016-08-13T11:40:04Z</time></trkpt>
<trkpt lat="25.723952" lon="100.158367">
<time>2016-08-13T11:40:05Z</time></trkpt>
<trkpt lat="25.724741" lon="100.157926">
<time>2016-08-13T11:40:06Z</time></trkpt>
<trkpt lat="25.725221" lon="100.157656">
<time>2016-08-13T11:40:07Z</time></trkpt>
<trkpt lat="25.725691" lon="100.157385">
<time>2016-08-13T11:40:08Z</time></trkpt>
<trkpt lat="25.726071" lon="100.157175">
<time>2016-08-13T11:40:09Z</time></trkpt>
<trkpt lat="25.726471" lon="100.156964">
<time>2016-08-13T11:40:10Z</time></trkpt>
<trkpt lat="25.72717" lon="100.156583">
<time>2016-08-13T11:40:11Z</time></trkpt>
<trkpt lat="25.72875" lon="100.155712">
<time>2016-08-13T11:40:12Z</time></trkpt>
<trkpt lat="25.729249" lon="100.155431">
<time>2016-08-13T11:40:13Z</time></trkpt>
<trkpt lat="25.730499" lon="100.15476">
<time>2016-08-13T11:40:14Z</time></trkpt>
<trkpt lat="25.732038" lon="100.153908">
<time>2016-08-13T11:40:15Z</time></trkpt>
<trkpt lat="25.733348" lon="100.153176">
<time>2016-08-13T11:40:16Z</time></trkpt>
<trkpt lat="25.734457" lon="100.152565">
<time>2016-08-13T11:40:17Z</time></trkpt>
<trkpt lat="25.735547" lon="100.151954">
<time>2016-08-13T11:40:18Z</time></trkpt>
<trkpt lat="25.735987" lon="100.151723">
<time>2016-08-13T11:40:19Z</time></trkpt>
<trkpt lat="25.736576" lon="100.151413">
<time>2016-08-13T11:40:20Z</time></trkpt>
<trkpt lat="25.737596" lon="100.150832">
<time>2016-08-13T11:40:21Z</time></trkpt>
<trkpt lat="25.738976" lon="100.15011">
<time>2016-08-13T11:40:22Z</time></trkpt>
<trkpt lat="25.740115" lon="100.149509">
<time>2016-08-13T11:40:23Z</time></trkpt>
<trkpt lat="25.740165" lon="100.149479">
<time>2016-08-13T11:40:24Z</time></trkpt>
<trkpt lat="25.741065" lon="100.149008">
<time>2016-08-13T11:40:25Z</time></trkpt>
<trkpt lat="25.741625" lon="100.148697">
<time>2016-08-13T11:40:26Z</time></trkpt>
<trkpt lat="25.742125" lon="100.148447">
<time>2016-08-13T11:40:27Z</time></trkpt>
<trkpt lat="25.742664" lon="100.148166">
<time>2016-08-13T11:40:28Z</time></trkpt>
<trkpt lat="25.743164" lon="100.147846">
<time>2016-08-13T11:40:29Z</time></trkpt>
<trkpt lat="25.743414" lon="100.147685">
<time>2016-08-13T11:40:30Z</time></trkpt>
<trkpt lat="25.744164" lon="100.147215">
<time>2016-08-13T11:40:31Z</time></trkpt>
<trkpt lat="25.744484" lon="100.147004">
<time>2016-08-13T11:40:32Z</time></trkpt>
<trkpt lat="25.744833" lon="100.146824">
<time>2016-08-13T11:40:33Z</time></trkpt>
<trkpt lat="25.745633" lon="100.146403">
<time>2016-08-13T11:40:34Z</time></trkpt>
<trkpt lat="25.747033" lon="100.145692">
<time>2016-08-13T11:40:35Z</time></trkpt>
<trkpt lat="25.748113" lon="100.145141">
<time>2016-08-13T11:40:36Z</time></trkpt>
<trkpt lat="25.750022" lon="100.144169">
<time>2016-08-13T11:40:37Z</time></trkpt>
<trkpt lat="25.751712" lon="100.143237">
<time>2016-08-13T11:40:38Z</time></trkpt>
<trkpt lat="25.752552" lon="100.142806">
<time>2016-08-13T11:40:39Z</time></trkpt>
<trkpt lat="25.754131" lon="100.141915">
<time>2016-08-13T11:40:40Z</time></trkpt>
<trkpt lat="25.754421" lon="100.141754">
<time>2016-08-13T11:40:41Z</time></trkpt>
<trkpt lat="25.75775" lon="100.139891">
<time>2016-08-13T11:40:42Z</time></trkpt>
<trkpt lat="25.75823" lon="100.139631">
<time>2016-08-13T11:40:43Z</time></trkpt>
<trkpt lat="25.761439" lon="100.137938">
<time>2016-08-13T11:40:44Z</time></trkpt>
<trkpt lat="25.761489" lon="100.137918">
<time>2016-08-13T11:40:45Z</time></trkpt>
<trkpt lat="25.761859" lon="100.137767">
<time>2016-08-13T11:40:46Z</time></trkpt>
<trkpt lat="25.762079" lon="100.137707">
<time>2016-08-13T11:40:47Z</time></trkpt>
<trkpt lat="25.762119" lon="100.137697">
<time>2016-08-13T11:40:48Z</time></trkpt>
<trkpt lat="25.76232" lon="100.137667">
<time>2016-08-13T11:40:49Z</time></trkpt>
<trkpt lat="25.7625" lon="100.137657">
<time>2016-08-13T11:40:50Z</time></trkpt>
<trkpt lat="25.76341" lon="100.137597">
<time>2016-08-13T11:40:51Z</time></trkpt>
<trkpt lat="25.766182" lon="100.137447">
<time>2016-08-13T11:40:52Z</time></trkpt>
<trkpt lat="25.767462" lon="100.137387">
<time>2016-08-13T11:40:53Z</time></trkpt>
<trkpt lat="25.769593" lon="100.137276">
<time>2016-08-13T11:40:54Z</time></trkpt>
<trkpt lat="25.771064" lon="100.137206">
<time>2016-08-13T11:40:55Z</time></trkpt>
<trkpt lat="25.771905" lon="100.137166">
<time>2016-08-13T11:40:56Z</time></trkpt>
<trkpt lat="25.772365" lon="100.137136">
<time>2016-08-13T11:40:57Z</time></trkpt>
<trkpt lat="25.772835" lon="100.137116">
<time>2016-08-13T11:40:58Z</time></trkpt>
<trkpt lat="25.773696" lon="100.137076">
<time>2016-08-13T11:40:59Z</time></trkpt>
<trkpt lat="25.773776" lon="100.137076">
<time>2016-08-13T11:41:00Z</time></trkpt>
<trkpt lat="25.774376" lon="100.137026">
<time>2016-08-13T11:41:01Z</time></trkpt>
<trkpt lat="25.774826" lon="100.137006">
<time>2016-08-13T11:41:02Z</time></trkpt>
<trkpt lat="25.775276" lon="100.136966">
<time>2016-08-13T11:41:03Z</time></trkpt>
<trkpt lat="25.775687" lon="100.136936">
<time>2016-08-13T11:41:04Z</time></trkpt>
<trkpt lat="25.776147" lon="100.136895">
<time>2016-08-13T11:41:05Z</time></trkpt>
<trkpt lat="25.777117" lon="100.136825">
<time>2016-08-13T11:41:06Z</time></trkpt>
<trkpt lat="25.777768" lon="100.136785">
<time>2016-08-13T11:41:07Z</time></trkpt>
<trkpt lat="25.778208" lon="100.136745">
<time>2016-08-13T11:41:08Z</time></trkpt>
<trkpt lat="25.778668" lon="100.136705">
<time>2016-08-13T11:41:09Z</time></trkpt>
<trkpt lat="25.779038" lon="100.136685">
<time>2016-08-13T11:41:10Z</time></trkpt>
<trkpt lat="25.779058" lon="100.136675">
<time>2016-08-13T11:41:11Z</time></trkpt>
<trkpt lat="25.779108" lon="100.136675">
<time>2016-08-13T11:41:12Z</time></trkpt>
<trkpt lat="25.779569" lon="100.136645">
<time>2016-08-13T11:41:13Z</time></trkpt>
<trkpt lat="25.780009" lon="100.136605">
<time>2016-08-13T11:41:14Z</time></trkpt>
<trkpt lat="25.780459" lon="100.136575">
<time>2016-08-13T11:41:15Z</time></trkpt>
<trkpt lat="25.780919" lon="100.136535">
<time>2016-08-13T11:41:16Z</time></trkpt>
<trkpt lat="25.7814" lon="100.136495">
<time>2016-08-13T11:41:17Z</time></trkpt>
<trkpt lat="25.7818" lon="100.136455">
<time>2016-08-13T11:41:18Z</time></trkpt>
<trkpt lat="25.78225" lon="100.136425">
<time>2016-08-13T11:41:19Z</time></trkpt>
<trkpt lat="25.78273" lon="100.136394">
<time>2016-08-13T11:41:20Z</time></trkpt>
<trkpt lat="25.783551" lon="100.136334">
<time>2016-08-13T11:41:21Z</time></trkpt>
<trkpt lat="25.783701" lon="100.136324">
<time>2016-08-13T11:41:22Z</time></trkpt>
<trkpt lat="25.784021" lon="100.136294">
<time>2016-08-13T11:41:23Z</time></trkpt>
<trkpt lat="25.784421" lon="100.136254">
<time>2016-08-13T11:41:24Z</time></trkpt>
<trkpt lat="25.784891" lon="100.136224">
<time>2016-08-13T11:41:25Z</time></trkpt>
<trkpt lat="25.785331" lon="100.136184">
<time>2016-08-13T11:41:26Z</time></trkpt>
<trkpt lat="25.785782" lon="100.136154">
<time>2016-08-13T11:41:27Z</time></trkpt>
<trkpt lat="25.786182" lon="100.136124">
<time>2016-08-13T11:41:28Z</time></trkpt>
<trkpt lat="25.786662" lon="100.136074">
<time>2016-08-13T11:41:29Z</time></trkpt>
<trkpt lat="25.786962" lon="100.136054">
<time>2016-08-13T11:41:30Z</time></trkpt>
<trkpt lat="25.787182" lon="100.136034">
<time>2016-08-13T11:41:31Z</time></trkpt>
<trkpt lat="25.787793" lon="100.135994">
<time>2016-08-13T11:41:32Z</time></trkpt>
<trkpt lat="25.787843" lon="100.135994">
<time>2016-08-13T11:41:33Z</time></trkpt>
<trkpt lat="25.788273" lon="100.135964">
<time>2016-08-13T11:41:34Z</time></trkpt>
<trkpt lat="25.788743" lon="100.135934">
<time>2016-08-13T11:41:35Z</time></trkpt>
<trkpt lat="25.789184" lon="100.135904">
<time>2016-08-13T11:41:36Z</time></trkpt>
<trkpt lat="25.789644" lon="100.135863">
<time>2016-08-13T11:41:37Z</time></trkpt>
<trkpt lat="25.789784" lon="100.135853">
<time>2016-08-13T11:41:38Z</time></trkpt>
<trkpt lat="25.789924" lon="100.135833">
<time>2016-08-13T11:41:39Z</time></trkpt>
<trkpt lat="25.790064" lon="100.135823">
<time>2016-08-13T11:41:40Z</time></trkpt>
<trkpt lat="25.790104" lon="100.135823">
<time>2016-08-13T11:41:41Z</time></trkpt>
<trkpt lat="25.790564" lon="100.135783">
<time>2016-08-13T11:41:42Z</time></trkpt>
<trkpt lat="25.791024" lon="100.135743">
<time>2016-08-13T11:41:43Z</time></trkpt>
<trkpt lat="25.791545" lon="100.135703">
<time>2016-08-13T11:41:44Z</time></trkpt>
<trkpt lat="25.791825" lon="100.135683">
<time>2016-08-13T11:41:45Z</time></trkpt>
<trkpt lat="25.792695" lon="100.135613">
<time>2016-08-13T11:41:46Z</time></trkpt>
<trkpt lat="25.793406" lon="100.135573">
<time>2016-08-13T11:41:47Z</time></trkpt>
<trkpt lat="25.793556" lon="100.135563">
<time>2016-08-13T11:41:48Z</time></trkpt>
<trkpt lat="25.793836" lon="100.135543">
<time>2016-08-13T11:41:49Z</time></trkpt>
<trkpt lat="25.794296" lon="100.135503">
<time>2016-08-13T11:41:50Z</time></trkpt>
<trkpt lat="25.794306" lon="100.135503">
<time>2016-08-13T11:41:51Z</time></trkpt>
<trkpt lat="25.794576" lon="100.135483">
<time>2016-08-13T11:41:52Z</time></trkpt>
<trkpt lat="25.795017" lon="100.135453">
<time>2016-08-13T11:41:53Z</time></trkpt>
<trkpt lat="25.795497" lon="100.135423">
<time>2016-08-13T11:41:54Z</time></trkpt>
<trkpt lat="25.795947" lon="100.135383">
<time>2016-08-13T11:41:55Z</time></trkpt>
<trkpt lat="25.796317" lon="100.135362">
<time>2016-08-13T11:41:56Z</time></trkpt>
<trkpt lat="25.796777" lon="100.135322">
<time>2016-08-13T11:41:57Z</time></trkpt>
<trkpt lat="25.797218" lon="100.135282">
<time>2016-08-13T11:41:58Z</time></trkpt>
<trkpt lat="25.797688" lon="100.135262">
<time>2016-08-13T11:41:59Z</time></trkpt>
<trkpt lat="25.798218" lon="100.135232">
<time>2016-08-13T11:42:00Z</time></trkpt>
<trkpt lat="25.798598" lon="100.135192">
<time>2016-08-13T11:42:01Z</time></trkpt>
<trkpt lat="25.798999" lon="100.135162">
<time>2016-08-13T11:42:02Z</time></trkpt>
<trkpt lat="25.799079" lon="100.135152">
<time>2016-08-13T11:42:03Z</time></trkpt>
<trkpt lat="25.799479" lon="100.135132">
<time>2016-08-13T11:42:04Z</time></trkpt>
<trkpt lat="25.800079" lon="100.135092">
<time>2016-08-13T11:42:05Z</time></trkpt>
<trkpt lat="25.800539" lon="100.135062">
<time>2016-08-13T11:42:06Z</time></trkpt>
<trkpt lat="25.801" lon="100.135022">
<time>2016-08-13T11:42:07Z</time></trkpt>
<trkpt lat="25.8011" lon="100.135022">
<time>2016-08-13T11:42:08Z</time></trkpt>
<trkpt lat="25.80148" lon="100.134992">
<time>2016-08-13T11:42:09Z</time></trkpt>
<trkpt lat="25.80202" lon="100.134952">
<time>2016-08-13T11:42:10Z</time></trkpt>
<trkpt lat="25.803041" lon="100.134872">
<time>2016-08-13T11:42:11Z</time></trkpt>
<trkpt lat="25.803511" lon="100.134831">
<time>2016-08-13T11:42:12Z</time></trkpt>
<trkpt lat="25.803931" lon="100.134811">
<time>2016-08-13T11:42:13Z</time></trkpt>
<trkpt lat="25.804392" lon="100.134781">
<time>2016-08-13T11:42:14Z</time></trkpt>
<trkpt lat="25.804872" lon="100.134751">
<time>2016-08-13T11:42:15Z</time></trkpt>
<trkpt lat="25.805172" lon="100.134731">
<time>2016-08-13T11:42:16Z</time></trkpt>
<trkpt lat="25.805342" lon="100.134721">
<time>2016-08-13T11:42:17Z</time></trkpt>
<trkpt lat="25.805822" lon="100.134691">
<time>2016-08-13T11:42:18Z</time></trkpt>
<trkpt lat="25.806353" lon="100.134671">
<time>2016-08-13T11:42:19Z</time></trkpt>
<trkpt lat="25.807013" lon="100.134631">
<time>2016-08-13T11:42:20Z</time></trkpt>
<trkpt lat="25.807483" lon="100.134601">
<time>2016-08-13T11:42:21Z</time></trkpt>
<trkpt lat="25.807963" lon="100.134581">
<time>2016-08-13T11:42:22Z</time></trkpt>
<trkpt lat="25.808444" lon="100.134561">
<time>2016-08-13T11:42:23Z</time></trkpt>
<trkpt lat="25.808894" lon="100.134531">
<time>2016-08-13T11:42:24Z</time></trkpt>
<trkpt lat="25.809394" lon="100.134511">
<time>2016-08-13T11:42:25Z</time></trkpt>
<trkpt lat="25.810185" lon="100.134451">
<time>2016-08-13T11:42:26Z</time></trkpt>
<trkpt lat="25.810515" lon="100.134431">
<time>2016-08-13T11:42:27Z</time></trkpt>
<trkpt lat="25.810675" lon="100.134421">
<time>2016-08-13T11:42:28Z</time></trkpt>
<trkpt lat="25.811125" lon="100.134391">
<time>2016-08-13T11:42:29Z</time></trkpt>
<trkpt lat="25.811586" lon="100.134361">
<time>2016-08-13T11:42:30Z</time></trkpt>
<trkpt lat="25.812086" lon="100.13432">
<time>2016-08-13T11:42:31Z</time></trkpt>
<trkpt lat="25.812576" lon="100.13429">
<time>2016-08-13T11:42:32Z</time></trkpt>
<trkpt lat="25.812836" lon="100.13427">
<time>2016-08-13T11:42:33Z</time></trkpt>
<trkpt lat="25.813026" lon="100.13426">
<time>2016-08-13T11:42:34Z</time></trkpt>
<trkpt lat="25.813497" lon="100.13423">
<time>2016-08-13T11:42:35Z</time></trkpt>
<trkpt lat="25.813957" lon="100.1342">
<time>2016-08-13T11:42:36Z</time></trkpt>
<trkpt lat="25.814417" lon="100.13417">
<time>2016-08-13T11:42:37Z</time></trkpt>
<trkpt lat="25.814877" lon="100.13413">
<time>2016-08-13T11:42:38Z</time></trkpt>
<trkpt lat="25.815217" lon="100.13411">
<time>2016-08-13T11:42:39Z</time></trkpt>
<trkpt lat="25.815227" lon="100.13411">
<time>2016-08-13T11:42:40Z</time></trkpt>
<trkpt lat="25.815688" lon="100.13409">
<time>2016-08-13T11:42:41Z</time></trkpt>
<trkpt lat="25.816128" lon="100.13406">
<time>2016-08-13T11:42:42Z</time></trkpt>
<trkpt lat="25.816608" lon="100.13405">
<time>2016-08-13T11:42:43Z</time></trkpt>
<trkpt lat="25.816778" lon="100.13405">
<time>2016-08-13T11:42:44Z</time></trkpt>
<trkpt lat="25.817009" lon="100.13403">
<time>2016-08-13T11:42:45Z</time></trkpt>
<trkpt lat="25.817439" lon="100.13402">
<time>2016-08-13T11:42:46Z</time></trkpt>
<trkpt lat="25.817589" lon="100.13401">
<time>2016-08-13T11:42:47Z</time></trkpt>
<trkpt lat="25.817889" lon="100.13399">
<time>2016-08-13T11:42:48Z</time></trkpt>
<trkpt lat="25.818339" lon="100.13396">
<time>2016-08-13T11:42:49Z</time></trkpt>
<trkpt lat="25.81879" lon="100.13392">
<time>2016-08-13T11:42:50Z</time></trkpt>
<trkpt lat="25.81925" lon="100.13389">
<time>2016-08-13T11:42:51Z</time></trkpt>
<trkpt lat="25.81968" lon="100.133839">
<time>2016-08-13T11:42:52Z</time></trkpt>
<trkpt lat="25.82008" lon="100.133809">
<time>2016-08-13T11:42:53Z</time></trkpt>
<trkpt lat="25.82053" lon="100.133759">
<time>2016-08-13T11:42:54Z</time></trkpt>
<trkpt lat="25.821191" lon="100.133719">
<time>2016-08-13T11:42:55Z</time></trkpt>
<trkpt lat="25.821751" lon="100.133689">
<time>2016-08-13T11:42:56Z</time></trkpt>
<trkpt lat="25.821831" lon="100.133689">
<time>2016-08-13T11:42:57Z</time></trkpt>
<trkpt lat="25.822472" lon="100.133669">
<time>2016-08-13T11:42:58Z</time></trkpt>
<trkpt lat="25.823022" lon="100.133669">
<time>2016-08-13T11:42:59Z</time></trkpt>
<trkpt lat="25.823822" lon="100.133659">
<time>2016-08-13T11:43:00Z</time></trkpt>
<trkpt lat="25.824273" lon="100.133669">
<time>2016-08-13T11:43:01Z</time></trkpt>
<trkpt lat="25.824723" lon="100.133649">
<time>2016-08-13T11:43:02Z</time></trkpt>
<trkpt lat="25.825183" lon="100.133649">
<time>2016-08-13T11:43:03Z</time></trkpt>
<trkpt lat="25.825864" lon="100.133609">
<time>2016-08-13T11:43:04Z</time></trkpt>
<trkpt lat="25.826104" lon="100.133589">
<time>2016-08-13T11:43:05Z</time></trkpt>
<trkpt lat="25.826324" lon="100.133569">
<time>2016-08-13T11:43:06Z</time></trkpt>
<trkpt lat="25.826634" lon="100.133549">
<time>2016-08-13T11:43:07Z</time></trkpt>
<trkpt lat="25.827174" lon="100.133489">
<time>2016-08-13T11:43:08Z</time></trkpt>
<trkpt lat="25.827364" lon="100.133469">
<time>2016-08-13T11:43:09Z</time></trkpt>
<trkpt lat="25.827505" lon="100.133439">
<time>2016-08-13T11:43:10Z</time></trkpt>
<trkpt lat="25.827585" lon="100.133429">
<time>2016-08-13T11:43:11Z</time></trkpt>
<trkpt lat="25.828695" lon="100.133288">
<time>2016-08-13T11:43:12Z</time></trkpt>
<trkpt lat="25.828975" lon="100.133258">
<time>2016-08-13T11:43:13Z</time></trkpt>
<trkpt lat="25.829465" lon="100.133178">
<time>2016-08-13T11:43:14Z</time></trkpt>
<trkpt lat="25.829886" lon="100.133138">
<time>2016-08-13T11:43:15Z</time></trkpt>
<trkpt lat="25.830056" lon="100.133138">
<time>2016-08-13T11:43:16Z</time></trkpt>
<trkpt lat="25.830436" lon="100.133118">
<time>2016-08-13T11:43:17Z</time></trkpt>
<trkpt lat="25.831196" lon="100.133058">
<time>2016-08-13T11:43:18Z</time></trkpt>
<trkpt lat="25.832517" lon="100.133008">
<time>2016-08-13T11:43:19Z</time></trkpt>
<trkpt lat="25.833238" lon="100.132988">
<time>2016-08-13T11:43:20Z</time></trkpt>
<trkpt lat="25.833348" lon="100.132988">
<time>2016-08-13T11:43:21Z</time></trkpt>
<trkpt lat="25.833598" lon="100.132968">
<time>2016-08-13T11:43:22Z</time></trkpt>
<trkpt lat="25.834038" lon="100.132948">
<time>2016-08-13T11:43:23Z</time></trkpt>
<trkpt lat="25.834238" lon="100.132938">
<time>2016-08-13T11:43:24Z</time></trkpt>
<trkpt lat="25.835289" lon="100.132888">
<time>2016-08-13T11:43:25Z</time></trkpt>
<trkpt lat="25.835959" lon="100.132878">
<time>2016-08-13T11:43:26Z</time></trkpt>
<trkpt lat="25.83718" lon="100.132817">
<time>2016-08-13T11:43:27Z</time></trkpt>
<trkpt lat="25.83729" lon="100.132817">
<time>2016-08-13T11:43:28Z</time></trkpt>
<trkpt lat="25.838121" lon="100.132787">
<time>2016-08-13T11:43:29Z</time></trkpt>
<trkpt lat="25.838641" lon="100.132767">
<time>2016-08-13T11:43:30Z</time></trkpt>
<trkpt lat="25.838951" lon="100.132767">
<time>2016-08-13T11:43:31Z</time></trkpt>
<trkpt lat="25.840002" lon="100.132757">
<time>2016-08-13T11:43:32Z</time></trkpt>
<trkpt lat="25.841423" lon="100.132697">
<time>2016-08-13T11:43:33Z</time></trkpt>
<trkpt lat="25.842343" lon="100.132627">
<time>2016-08-13T11:43:34Z</time></trkpt>
<trkpt lat="25.843774" lon="100.132487">
<time>2016-08-13T11:43:35Z</time></trkpt>
<trkpt lat="25.844314" lon="100.132437">
<time>2016-08-13T11:43:36Z</time></trkpt>
<trkpt lat="25.845325" lon="100.132347">
<time>2016-08-13T11:43:37Z</time></trkpt>
<trkpt lat="25.845325" lon="100.132347">
<time>2016-08-13T11:43:38Z</time></trkpt>
<trkpt lat="25.845495" lon="100.132387">
<time>2016-08-13T11:43:39Z</time></trkpt>
<trkpt lat="25.845685" lon="100.132457">
<time>2016-08-13T11:43:40Z</time></trkpt>
<trkpt lat="25.846196" lon="100.132577">
<time>2016-08-13T11:43:41Z</time></trkpt>
<trkpt lat="25.846706" lon="100.132667">
<time>2016-08-13T11:43:42Z</time></trkpt>
<trkpt lat="25.847096" lon="100.132757">
<time>2016-08-13T11:43:43Z</time></trkpt>
<trkpt lat="25.847577" lon="100.132837">
<time>2016-08-13T11:43:44Z</time></trkpt>
<trkpt lat="25.847847" lon="100.132907">
<time>2016-08-13T11:43:45Z</time></trkpt>
<trkpt lat="25.848298" lon="100.133018">
<time>2016-08-13T11:43:46Z</time></trkpt>
<trkpt lat="25.848418" lon="100.133017">
<time>2016-08-13T11:43:47Z</time></trkpt>
<trkpt lat="25.848468" lon="100.133017">
<time>2016-08-13T11:43:48Z</time></trkpt>
<trkpt lat="25.848868" lon="100.132917">
<time>2016-08-13T11:43:49Z</time></trkpt>
<trkpt lat="25.849018" lon="100.132897">
<time>2016-08-13T11:43:50Z</time></trkpt>
<trkpt lat="25.849378" lon="100.132887">
<time>2016-08-13T11:43:51Z</time></trkpt>
<trkpt lat="25.849618" lon="100.132907">
<time>2016-08-13T11:43:52Z</time></trkpt>
<trkpt lat="25.849678" lon="100.132917">
<time>2016-08-13T11:43:53Z</time></trkpt>
<trkpt lat="25.849828" lon="100.132897">
<time>2016-08-13T11:43:54Z</time></trkpt>
<trkpt lat="25.849968" lon="100.132857">
<time>2016-08-13T11:43:55Z</time></trkpt>
<trkpt lat="25.850479" lon="100.132727">
<time>2016-08-13T11:43:56Z</time></trkpt>
<trkpt lat="25.850889" lon="100.132587">
<time>2016-08-13T11:43:57Z</time></trkpt>
<trkpt lat="25.851109" lon="100.132517">
<time>2016-08-13T11:43:58Z</time></trkpt>
<trkpt lat="25.851299" lon="100.132487">
<time>2016-08-13T11:43:59Z</time></trkpt>
<trkpt lat="25.851519" lon="100.132447">
<time>2016-08-13T11:44:00Z</time></trkpt>
<trkpt lat="25.851729" lon="100.132427">
<time>2016-08-13T11:44:01Z</time></trkpt>
<trkpt lat="25.851919" lon="100.132416">
<time>2016-08-13T11:44:02Z</time></trkpt>
<trkpt lat="25.852119" lon="100.132406">
<time>2016-08-13T11:44:03Z</time></trkpt>
<trkpt lat="25.85324" lon="100.132036">
<time>2016-08-13T11:44:04Z</time></trkpt>
<trkpt lat="25.85326" lon="100.132026">
<time>2016-08-13T11:44:05Z</time></trkpt>
<trkpt lat="25.85434" lon="100.131745">
<time>2016-08-13T11:44:06Z</time></trkpt>
<trkpt lat="25.85508" lon="100.131605">
<time>2016-08-13T11:44:07Z</time></trkpt>
<trkpt lat="25.85566" lon="100.131475">
<time>2016-08-13T11:44:08Z</time></trkpt>
<trkpt lat="25.855831" lon="100.131435">
<time>2016-08-13T11:44:09Z</time></trkpt>
<trkpt lat="25.855951" lon="100.131405">
<time>2016-08-13T11:44:10Z</time></trkpt>
<trkpt lat="25.855971" lon="100.131395">
<time>2016-08-13T11:44:11Z</time></trkpt>
<trkpt lat="25.856021" lon="100.131375">
<time>2016-08-13T11:44:12Z</time></trkpt>
<trkpt lat="25.856051" lon="100.131345">
<time>2016-08-13T11:44:13Z</time></trkpt>
<trkpt lat="25.856081" lon="100.131335">
<time>2016-08-13T11:44:14Z</time></trkpt>
<trkpt lat="25.856121" lon="100.131295">
<time>2016-08-13T11:44:15Z</time></trkpt>
<trkpt lat="25.85614" lon="100.131255">
<time>2016-08-13T11:44:16Z</time></trkpt>
<trkpt lat="25.85617" lon="100.131215">
<time>2016-08-13T11:44:17Z</time></trkpt>
<trkpt lat="25.85629" lon="100.130944">
<time>2016-08-13T11:44:18Z</time></trkpt>
<trkpt lat="25.85629" lon="100.130944">
<time>2016-08-13T11:44:19Z</time></trkpt>
<trkpt lat="25.85664" lon="100.131004">
<time>2016-08-13T11:44:20Z</time></trkpt>
<trkpt lat="25.856931" lon="100.131064">
<time>2016-08-13T11:44:21Z</time></trkpt>
<trkpt lat="25.856991" lon="100.131064">
<time>2016-08-13T11:44:22Z</time></trkpt>
<trkpt lat="25.857151" lon="100.130994">
<time>2016-08-13T11:44:23Z</time></trkpt>
<trkpt lat="25.857291" lon="100.130894">
<time>2016-08-13T11:44:24Z</time></trkpt>
<trkpt lat="25.857461" lon="100.130824">
<time>2016-08-13T11:44:25Z</time></trkpt>
<trkpt lat="25.857621" lon="100.130784">
<time>2016-08-13T11:44:26Z</time></trkpt>
<trkpt lat="25.857801" lon="100.130654">
<time>2016-08-13T11:44:27Z</time></trkpt>
<trkpt lat="25.858011" lon="100.130453">
<time>2016-08-13T11:44:28Z</time></trkpt>
<trkpt lat="25.858111" lon="100.130323">
<time>2016-08-13T11:44:29Z</time></trkpt>
<trkpt lat="25.858341" lon="100.130193">
<time>2016-08-13T11:44:30Z</time></trkpt>
<trkpt lat="25.85854" lon="100.129993">
<time>2016-08-13T11:44:31Z</time></trkpt>
<trkpt lat="25.85855" lon="100.129973">
<time>2016-08-13T11:44:32Z</time></trkpt>
<trkpt lat="25.85855" lon="100.129953">
<time>2016-08-13T11:44:33Z</time></trkpt>
<trkpt lat="25.85858" lon="100.129853">
<time>2016-08-13T11:44:34Z</time></trkpt>
<trkpt lat="25.85858" lon="100.129833">
<time>2016-08-13T11:44:35Z</time></trkpt>
<trkpt lat="25.85859" lon="100.129813">
<time>2016-08-13T11:44:36Z</time></trkpt>
<trkpt lat="25.85867" lon="100.129702">
<time>2016-08-13T11:44:37Z</time></trkpt>
<trkpt lat="25.8588" lon="100.129572">
<time>2016-08-13T11:44:38Z</time></trkpt>
<trkpt lat="25.85881" lon="100.129562">
<time>2016-08-13T11:44:39Z</time></trkpt>
<trkpt lat="25.85882" lon="100.129542">
<time>2016-08-13T11:44:40Z</time></trkpt>
<trkpt lat="25.85886" lon="100.129392">
<time>2016-08-13T11:44:41Z</time></trkpt>
<trkpt lat="25.859679" lon="100.12809">
<time>2016-08-13T11:44:42Z</time></trkpt>
<trkpt lat="25.859679" lon="100.12809">
<time>2016-08-13T11:44:43Z</time></trkpt>
<trkpt lat="25.859579" lon="100.12796">
<time>2016-08-13T11:44:44Z</time></trkpt>
<trkpt lat="25.859579" lon="100.12796">
<time>2016-08-13T11:44:45Z</time></trkpt>
<trkpt lat="25.859809" lon="100.12787">
<time>2016-08-13T11:44:46Z</time></trkpt>
<trkpt lat="25.860949" lon="100.127219">
<time>2016-08-13T11:44:47Z</time></trkpt>
<trkpt lat="25.861869" lon="100.126728">
<time>2016-08-13T11:44:48Z</time></trkpt>
<trkpt lat="25.862509" lon="100.126398">
<time>2016-08-13T11:44:49Z</time></trkpt>
<trkpt lat="25.863439" lon="100.125897">
<time>2016-08-13T11:44:50Z</time></trkpt>
<trkpt lat="25.864239" lon="100.125487">
<time>2016-08-13T11:44:51Z</time></trkpt>
<trkpt lat="25.864909" lon="100.125136">
<time>2016-08-13T11:44:52Z</time></trkpt>
<trkpt lat="25.865159" lon="100.125026">
<time>2016-08-13T11:44:53Z</time></trkpt>
<trkpt lat="25.865439" lon="100.124866">
<time>2016-08-13T11:44:54Z</time></trkpt>
<trkpt lat="25.865819" lon="100.124655">
<time>2016-08-13T11:44:55Z</time></trkpt>
<trkpt lat="25.866349" lon="100.124365">
<time>2016-08-13T11:44:56Z</time></trkpt>
<trkpt lat="25.86975" lon="100.122573">
<time>2016-08-13T11:44:57Z</time></trkpt>
<trkpt lat="25.8712" lon="100.121822">
<time>2016-08-13T11:44:58Z</time></trkpt>
<trkpt lat="25.8718" lon="100.121592">
<time>2016-08-13T11:44:59Z</time></trkpt>
<trkpt lat="25.87231" lon="100.121451">
<time>2016-08-13T11:45:00Z</time></trkpt>
<trkpt lat="25.87238" lon="100.121441">
<time>2016-08-13T11:45:01Z</time></trkpt>
<trkpt lat="25.87285" lon="100.121361">
<time>2016-08-13T11:45:02Z</time></trkpt>
<trkpt lat="25.873301" lon="100.121311">
<time>2016-08-13T11:45:03Z</time></trkpt>
<trkpt lat="25.874391" lon="100.121251">
<time>2016-08-13T11:45:04Z</time></trkpt>
<trkpt lat="25.876403" lon="100.121151">
<time>2016-08-13T11:45:05Z</time></trkpt>
<trkpt lat="25.878064" lon="100.121071">
<time>2016-08-13T11:45:06Z</time></trkpt>
<trkpt lat="25.878154" lon="100.121071">
<time>2016-08-13T11:45:07Z</time></trkpt>
<trkpt lat="25.878444" lon="100.121081">
<time>2016-08-13T11:45:08Z</time></trkpt>
<trkpt lat="25.878824" lon="100.121111">
<time>2016-08-13T11:45:09Z</time></trkpt>
<trkpt lat="25.879355" lon="100.121241">
<time>2016-08-13T11:45:10Z</time></trkpt>
<trkpt lat="25.882047" lon="100.121872">
<time>2016-08-13T11:45:11Z</time></trkpt>
<trkpt lat="25.884349" lon="100.122472">
<time>2016-08-13T11:45:12Z</time></trkpt>
<trkpt lat="25.88488" lon="100.122542">
<time>2016-08-13T11:45:13Z</time></trkpt>
<trkpt lat="25.88509" lon="100.122512">
<time>2016-08-13T11:45:14Z</time></trkpt>
<trkpt lat="25.88629" lon="100.122152">
<time>2016-08-13T11:45:15Z</time></trkpt>
<trkpt lat="25.88629" lon="100.122152">
<time>2016-08-13T11:45:16Z</time></trkpt>
<trkpt lat="25.88636" lon="100.122152">
<time>2016-08-13T11:45:17Z</time></trkpt>
<trkpt lat="25.887951" lon="100.121621">
<time>2016-08-13T11:45:18Z</time></trkpt>
<trkpt lat="25.889171" lon="100.121201">
<time>2016-08-13T11:45:19Z</time></trkpt>
<trkpt lat="25.890292" lon="100.12081">
<time>2016-08-13T11:45:20Z</time></trkpt>
<trkpt lat="25.890922" lon="100.12057">
<time>2016-08-13T11:45:21Z</time></trkpt>
<trkpt lat="25.890932" lon="100.12057">
<time>2016-08-13T11:45:22Z</time></trkpt>
<trkpt lat="25.892222" lon="100.120079">
<time>2016-08-13T11:45:23Z</time></trkpt>
<trkpt lat="25.892853" lon="100.119839">
<time>2016-08-13T11:45:24Z</time></trkpt>
<trkpt lat="25.893873" lon="100.119439">
<time>2016-08-13T11:45:25Z</time></trkpt>
<trkpt lat="25.893943" lon="100.119389">
<time>2016-08-13T11:45:26Z</time></trkpt>
<trkpt lat="25.896354" lon="100.118358">
<time>2016-08-13T11:45:27Z</time></trkpt>
<trkpt lat="25.898284" lon="100.117447">
<time>2016-08-13T11:45:28Z</time></trkpt>
<trkpt lat="25.898724" lon="100.117226">
<time>2016-08-13T11:45:29Z</time></trkpt>
<trkpt lat="25.900105" lon="100.116526">
<time>2016-08-13T11:45:30Z</time></trkpt>
<trkpt lat="25.901255" lon="100.115995">
<time>2016-08-13T11:45:31Z</time></trkpt>
<trkpt lat="25.901335" lon="100.115945">
<time>2016-08-13T11:45:32Z</time></trkpt>
<trkpt lat="25.902325" lon="100.115405">
<time>2016-08-13T11:45:33Z</time></trkpt>
<trkpt lat="25.903155" lon="100.114984">
<time>2016-08-13T11:45:34Z</time></trkpt>
<trkpt lat="25.905696" lon="100.113703">
<time>2016-08-13T11:45:35Z</time></trkpt>
<trkpt lat="25.907397" lon="100.112842">
<time>2016-08-13T11:45:36Z</time></trkpt>
<trkpt lat="25.907787" lon="100.112642">
<time>2016-08-13T11:45:37Z</time></trkpt>
<trkpt lat="25.908997" lon="100.112072">
<time>2016-08-13T11:45:38Z</time></trkpt>
<trkpt lat="25.909138" lon="100.111992">
<time>2016-08-13T11:45:39Z</time></trkpt>
<trkpt lat="25.909998" lon="100.111551">
<time>2016-08-13T11:45:40Z</time></trkpt>
<trkpt lat="25.910818" lon="100.111141">
<time>2016-08-13T11:45:41Z</time></trkpt>
<trkpt lat="25.911899" lon="100.110591">
<time>2016-08-13T11:45:42Z</time></trkpt>
<trkpt lat="25.912939" lon="100.11006">
<time>2016-08-13T11:45:43Z</time></trkpt>
<trkpt lat="25.913399" lon="100.10984">
<time>2016-08-13T11:45:44Z</time></trkpt>
<trkpt lat="25.913549" lon="100.10977">
<time>2016-08-13T11:45:45Z</time></trkpt>
<trkpt lat="25.91431" lon="100.1094">
<time>2016-08-13T11:45:46Z</time></trkpt>
<trkpt lat="25.91584" lon="100.108719">
<time>2016-08-13T11:45:47Z</time></trkpt>
<trkpt lat="25.916581" lon="100.108399">
<time>2016-08-13T11:45:48Z</time></trkpt>
<trkpt lat="25.916681" lon="100.108349">
<time>2016-08-13T11:45:49Z</time></trkpt>
<trkpt lat="25.916921" lon="100.108239">
<time>2016-08-13T11:45:50Z</time></trkpt>
<trkpt lat="25.917291" lon="100.108079">
<time>2016-08-13T11:45:51Z</time></trkpt>
<trkpt lat="25.917651" lon="100.107929">
<time>2016-08-13T11:45:52Z</time></trkpt>
<trkpt lat="25.918001" lon="100.107769">
<time>2016-08-13T11:45:53Z</time></trkpt>
<trkpt lat="25.918362" lon="100.107619">
<time>2016-08-13T11:45:54Z</time></trkpt>
<trkpt lat="25.918702" lon="100.107468">
<time>2016-08-13T11:45:55Z</time></trkpt>
<trkpt lat="25.919062" lon="100.107308">
<time>2016-08-13T11:45:56Z</time></trkpt>
<trkpt lat="25.919192" lon="100.107258">
<time>2016-08-13T11:45:57Z</time></trkpt>
<trkpt lat="25.919402" lon="100.107168">
<time>2016-08-13T11:45:58Z</time></trkpt>
<trkpt lat="25.919752" lon="100.107018">
<time>2016-08-13T11:45:59Z</time></trkpt>
<trkpt lat="25.920102" lon="100.106868">
<time>2016-08-13T11:46:00Z</time></trkpt>
<trkpt lat="25.920443" lon="100.106718">
<time>2016-08-13T11:46:01Z</time></trkpt>
<trkpt lat="25.920783" lon="100.106578">
<time>2016-08-13T11:46:02Z</time></trkpt>
<trkpt lat="25.921063" lon="100.106438">
<time>2016-08-13T11:46:03Z</time></trkpt>
<trkpt lat="25.921413" lon="100.106288">
<time>2016-08-13T11:46:04Z</time></trkpt>
<trkpt lat="25.921743" lon="100.106138">
<time>2016-08-13T11:46:05Z</time></trkpt>
<trkpt lat="25.922063" lon="100.106008">
<time>2016-08-13T11:46:06Z</time></trkpt>
<trkpt lat="25.922133" lon="100.105978">
<time>2016-08-13T11:46:07Z</time></trkpt>
<trkpt lat="25.922384" lon="100.105868">
<time>2016-08-13T11:46:08Z</time></trkpt>
<trkpt lat="25.922664" lon="100.105737">
<time>2016-08-13T11:46:09Z</time></trkpt>
<trkpt lat="25.922994" lon="100.105597">
<time>2016-08-13T11:46:10Z</time></trkpt>
<trkpt lat="25.923134" lon="100.105537">
<time>2016-08-13T11:46:11Z</time></trkpt>
<trkpt lat="25.923274" lon="100.105457">
<time>2016-08-13T11:46:12Z</time></trkpt>
<trkpt lat="25.923564" lon="100.105317">
<time>2016-08-13T11:46:13Z</time></trkpt>
<trkpt lat="25.923824" lon="100.105207">
<time>2016-08-13T11:46:14Z</time></trkpt>
<trkpt lat="25.924064" lon="100.105077">
<time>2016-08-13T11:46:15Z</time></trkpt>
<trkpt lat="25.924285" lon="100.104967">
<time>2016-08-13T11:46:16Z</time></trkpt>
<trkpt lat="25.924525" lon="100.104847">
<time>2016-08-13T11:46:17Z</time></trkpt>
<trkpt lat="25.924735" lon="100.104727">
<time>2016-08-13T11:46:18Z</time></trkpt>
<trkpt lat="25.924925" lon="100.104627">
<time>2016-08-13T11:46:19Z</time></trkpt>
<trkpt lat="25.925115" lon="100.104517">
<time>2016-08-13T11:46:20Z</time></trkpt>
<trkpt lat="25.925315" lon="100.104427">
<time>2016-08-13T11:46:21Z</time></trkpt>
<trkpt lat="25.925525" lon="100.104327">
<time>2016-08-13T11:46:22Z</time></trkpt>
<trkpt lat="25.925755" lon="100.104207">
<time>2016-08-13T11:46:23Z</time></trkpt>
<trkpt lat="25.926015" lon="100.104057">
<time>2016-08-13T11:46:24Z</time></trkpt>
<trkpt lat="25.926296" lon="100.103907">
<time>2016-08-13T11:46:25Z</time></trkpt>
<trkpt lat="25.926586" lon="100.103747">
<time>2016-08-13T11:46:26Z</time></trkpt>
<trkpt lat="25.926836" lon="100.103586">
<time>2016-08-13T11:46:27Z</time></trkpt>
<trkpt lat="25.927086" lon="100.103386">
<time>2016-08-13T11:46:28Z</time></trkpt>
<trkpt lat="25.927226" lon="100.103256">
<time>2016-08-13T11:46:29Z</time></trkpt>
<trkpt lat="25.927336" lon="100.103146">
<time>2016-08-13T11:46:30Z</time></trkpt>
<trkpt lat="25.927446" lon="100.103016">
<time>2016-08-13T11:46:31Z</time></trkpt>
<trkpt lat="25.927526" lon="100.102896">
<time>2016-08-13T11:46:32Z</time></trkpt>
<trkpt lat="25.927876" lon="100.102346">
<time>2016-08-13T11:46:33Z</time></trkpt>
<trkpt lat="25.928096" lon="100.102006">
<time>2016-08-13T11:46:34Z</time></trkpt>
<trkpt lat="25.928306" lon="100.101686">
<time>2016-08-13T11:46:35Z</time></trkpt>
<trkpt lat="25.928426" lon="100.101536">
<time>2016-08-13T11:46:36Z</time></trkpt>
<trkpt lat="25.928577" lon="100.101366">
<time>2016-08-13T11:46:37Z</time></trkpt>
<trkpt lat="25.928847" lon="100.101116">
<time>2016-08-13T11:46:38Z</time></trkpt>
<trkpt lat="25.929137" lon="100.100876">
<time>2016-08-13T11:46:39Z</time></trkpt>
<trkpt lat="25.929447" lon="100.100616">
<time>2016-08-13T11:46:40Z</time></trkpt>
<trkpt lat="25.929737" lon="100.100375">
<time>2016-08-13T11:46:41Z</time></trkpt>
<trkpt lat="25.930057" lon="100.100105">
<time>2016-08-13T11:46:42Z</time></trkpt>
<trkpt lat="25.930307" lon="100.099875">
<time>2016-08-13T11:46:43Z</time></trkpt>
<trkpt lat="25.930598" lon="100.099615">
<time>2016-08-13T11:46:44Z</time></trkpt>
<trkpt lat="25.930938" lon="100.099295">
<time>2016-08-13T11:46:45Z</time></trkpt>
<trkpt lat="25.931098" lon="100.099145">
<time>2016-08-13T11:46:46Z</time></trkpt>
<trkpt lat="25.931198" lon="100.099045">
<time>2016-08-13T11:46:47Z</time></trkpt>
<trkpt lat="25.931468" lon="100.098785">
<time>2016-08-13T11:46:48Z</time></trkpt>
<trkpt lat="25.931728" lon="100.098535">
<time>2016-08-13T11:46:49Z</time></trkpt>
<trkpt lat="25.931989" lon="100.098295">
<time>2016-08-13T11:46:50Z</time></trkpt>
<trkpt lat="25.932259" lon="100.098035">
<time>2016-08-13T11:46:51Z</time></trkpt>
<trkpt lat="25.932529" lon="100.097775">
<time>2016-08-13T11:46:52Z</time></trkpt>
<trkpt lat="25.932759" lon="100.097565">
<time>2016-08-13T11:46:53Z</time></trkpt>
<trkpt lat="25.932989" lon="100.097345">
<time>2016-08-13T11:46:54Z</time></trkpt>
<trkpt lat="25.933139" lon="100.097205">
<time>2016-08-13T11:46:55Z</time></trkpt>
<trkpt lat="25.933269" lon="100.097085">
<time>2016-08-13T11:46:56Z</time></trkpt>
<trkpt lat="25.933419" lon="100.096975">
<time>2016-08-13T11:46:57Z</time></trkpt>
<trkpt lat="25.93354" lon="100.096905">
<time>2016-08-13T11:46:58Z</time></trkpt>
<trkpt lat="25.93383" lon="100.096745">
<time>2016-08-13T11:46:59Z</time></trkpt>
<trkpt lat="25.93411" lon="100.096605">
<time>2016-08-13T11:47:00Z</time></trkpt>
<trkpt lat="25.93416" lon="100.096585">
<time>2016-08-13T11:47:01Z</time></trkpt>
<trkpt lat="25.93442" lon="100.096465">
<time>2016-08-13T11:47:02Z</time></trkpt>
<trkpt lat="25.93471" lon="100.096335">
<time>2016-08-13T11:47:03Z</time></trkpt>
<trkpt lat="25.935001" lon="100.096205">
<time>2016-08-13T11:47:04Z</time></trkpt>
<trkpt lat="25.935301" lon="100.096075">
<time>2016-08-13T11:47:05Z</time></trkpt>
<trkpt lat="25.935601" lon="100.095935">
<time>2016-08-13T11:47:06Z</time></trkpt>
<trkpt lat="25.935911" lon="100.095795">
<time>2016-08-13T11:47:07Z</time></trkpt>
<trkpt lat="25.936051" lon="100.095735">
<time>2016-08-13T11:47:08Z</time></trkpt>
<trkpt lat="25.936221" lon="100.095665">
<time>2016-08-13T11:47:09Z</time></trkpt>
<trkpt lat="25.936362" lon="100.095605">
<time>2016-08-13T11:47:10Z</time></trkpt>
<trkpt lat="25.936542" lon="100.095545">
<time>2016-08-13T11:47:11Z</time></trkpt>
<trkpt lat="25.936682" lon="100.095515">
<time>2016-08-13T11:47:12Z</time></trkpt>
<trkpt lat="25.936832" lon="100.095505">
<time>2016-08-13T11:47:13Z</time></trkpt>
<trkpt lat="25.936992" lon="100.095525">
<time>2016-08-13T11:47:14Z</time></trkpt>
<trkpt lat="25.937102" lon="100.095555">
<time>2016-08-13T11:47:15Z</time></trkpt>
<trkpt lat="25.937232" lon="100.095595">
<time>2016-08-13T11:47:16Z</time></trkpt>
<trkpt lat="25.937302" lon="100.095635">
<time>2016-08-13T11:47:17Z</time></trkpt>
<trkpt lat="25.937362" lon="100.095675">
<time>2016-08-13T11:47:18Z</time></trkpt>
<trkpt lat="25.937442" lon="100.095735">
<time>2016-08-13T11:47:19Z</time></trkpt>
<trkpt lat="25.937572" lon="100.095835">
<time>2016-08-13T11:47:20Z</time></trkpt>
<trkpt lat="25.937813" lon="100.096065">
<time>2016-08-13T11:47:21Z</time></trkpt>
<trkpt lat="25.938073" lon="100.096315">
<time>2016-08-13T11:47:22Z</time></trkpt>
<trkpt lat="25.938323" lon="100.096555">
<time>2016-08-13T11:47:23Z</time></trkpt>
<trkpt lat="25.938483" lon="100.096705">
<time>2016-08-13T11:47:24Z</time></trkpt>
<trkpt lat="25.938633" lon="100.096855">
<time>2016-08-13T11:47:25Z</time></trkpt>
<trkpt lat="25.938783" lon="100.096955">
<time>2016-08-13T11:47:26Z</time></trkpt>
<trkpt lat="25.938943" lon="100.097065">
<time>2016-08-13T11:47:27Z</time></trkpt>
<trkpt lat="25.939053" lon="100.097125">
<time>2016-08-13T11:47:28Z</time></trkpt>
<trkpt lat="25.939254" lon="100.097215">
<time>2016-08-13T11:47:29Z</time></trkpt>
<trkpt lat="25.939424" lon="100.097265">
<time>2016-08-13T11:47:30Z</time></trkpt>
<trkpt lat="25.939594" lon="100.097315">
<time>2016-08-13T11:47:31Z</time></trkpt>
<trkpt lat="25.939744" lon="100.097345">
<time>2016-08-13T11:47:32Z</time></trkpt>
<trkpt lat="25.939914" lon="100.097395">
<time>2016-08-13T11:47:33Z</time></trkpt>
<trkpt lat="25.940264" lon="100.097475">
<time>2016-08-13T11:47:34Z</time></trkpt>
<trkpt lat="25.940574" lon="100.097555">
<time>2016-08-13T11:47:35Z</time></trkpt>
<trkpt lat="25.940915" lon="100.097655">
<time>2016-08-13T11:47:36Z</time></trkpt>
<trkpt lat="25.941245" lon="100.097735">
<time>2016-08-13T11:47:37Z</time></trkpt>
<trkpt lat="25.941585" lon="100.097815">
<time>2016-08-13T11:47:38Z</time></trkpt>
<trkpt lat="25.941905" lon="100.097895">
<time>2016-08-13T11:47:39Z</time></trkpt>
<trkpt lat="25.942206" lon="100.097985">
<time>2016-08-13T11:47:40Z</time></trkpt>
<trkpt lat="25.942506" lon="100.098065">
<time>2016-08-13T11:47:41Z</time></trkpt>
<trkpt lat="25.942796" lon="100.098135">
<time>2016-08-13T11:47:42Z</time></trkpt>
<trkpt lat="25.942946" lon="100.098165">
<time>2016-08-13T11:47:43Z</time></trkpt>
<trkpt lat="25.943076" lon="100.098205">
<time>2016-08-13T11:47:44Z</time></trkpt>
<trkpt lat="25.943166" lon="100.098235">
<time>2016-08-13T11:47:45Z</time></trkpt>
<trkpt lat="25.943276" lon="100.098305">
<time>2016-08-13T11:47:46Z</time></trkpt>
<trkpt lat="25.943366" lon="100.098375">
<time>2016-08-13T11:47:47Z</time></trkpt>
<trkpt lat="25.943446" lon="100.098465">
<time>2016-08-13T11:47:48Z</time></trkpt>
<trkpt lat="25.943497" lon="100.098555">
<time>2016-08-13T11:47:49Z</time></trkpt>
<trkpt lat="25.943567" lon="100.098695">
<time>2016-08-13T11:47:50Z</time></trkpt>
<trkpt lat="25.943657" lon="100.099055">
<time>2016-08-13T11:47:51Z</time></trkpt>
<trkpt lat="25.943717" lon="100.099305">
<time>2016-08-13T11:47:52Z</time></trkpt>
<trkpt lat="25.943747" lon="100.099415">
<time>2016-08-13T11:47:53Z</time></trkpt>
<trkpt lat="25.943767" lon="100.099495">
<time>2016-08-13T11:47:54Z</time></trkpt>
<trkpt lat="25.943947" lon="100.100195">
<time>2016-08-13T11:47:55Z</time></trkpt>
<trkpt lat="25.944057" lon="100.100615">
<time>2016-08-13T11:47:56Z</time></trkpt>
<trkpt lat="25.944067" lon="100.100625">
<time>2016-08-13T11:47:57Z</time></trkpt>
<trkpt lat="25.944147" lon="100.100975">
<time>2016-08-13T11:47:58Z</time></trkpt>
<trkpt lat="25.944257" lon="100.101395">
<time>2016-08-13T11:47:59Z</time></trkpt>
<trkpt lat="25.944358" lon="100.101805">
<time>2016-08-13T11:48:00Z</time></trkpt>
<trkpt lat="25.944458" lon="100.102206">
<time>2016-08-13T11:48:01Z</time></trkpt>
<trkpt lat="25.944518" lon="100.102426">
<time>2016-08-13T11:48:02Z</time></trkpt>
<trkpt lat="25.944588" lon="100.102716">
<time>2016-08-13T11:48:03Z</time></trkpt>
<trkpt lat="25.944638" lon="100.102876">
<time>2016-08-13T11:48:04Z</time></trkpt>
<trkpt lat="25.944698" lon="100.103016">
<time>2016-08-13T11:48:05Z</time></trkpt>
<trkpt lat="25.944778" lon="100.103186">
<time>2016-08-13T11:48:06Z</time></trkpt>
<trkpt lat="25.944908" lon="100.103386">
<time>2016-08-13T11:48:07Z</time></trkpt>
<trkpt lat="25.945018" lon="100.103516">
<time>2016-08-13T11:48:08Z</time></trkpt>
<trkpt lat="25.945139" lon="100.103656">
<time>2016-08-13T11:48:09Z</time></trkpt>
<trkpt lat="25.945419" lon="100.103896">
<time>2016-08-13T11:48:10Z</time></trkpt>
<trkpt lat="25.945749" lon="100.104166">
<time>2016-08-13T11:48:11Z</time></trkpt>
<trkpt lat="25.946019" lon="100.104366">
<time>2016-08-13T11:48:12Z</time></trkpt>
<trkpt lat="25.9461" lon="100.104426">
<time>2016-08-13T11:48:13Z</time></trkpt>
<trkpt lat="25.94641" lon="100.104676">
<time>2016-08-13T11:48:14Z</time></trkpt>
<trkpt lat="25.94669" lon="100.104896">
<time>2016-08-13T11:48:15Z</time></trkpt>
<trkpt lat="25.94678" lon="100.104977">
<time>2016-08-13T11:48:16Z</time></trkpt>
<trkpt lat="25.94708" lon="100.105237">
<time>2016-08-13T11:48:17Z</time></trkpt>
<trkpt lat="25.947221" lon="100.105397">
<time>2016-08-13T11:48:18Z</time></trkpt>
<trkpt lat="25.947401" lon="100.105627">
<time>2016-08-13T11:48:19Z</time></trkpt>
<trkpt lat="25.947931" lon="100.106377">
<time>2016-08-13T11:48:20Z</time></trkpt>
<trkpt lat="25.948432" lon="100.107067">
<time>2016-08-13T11:48:21Z</time></trkpt>
<trkpt lat="25.948662" lon="100.107398">
<time>2016-08-13T11:48:22Z</time></trkpt>
<trkpt lat="25.948883" lon="100.107748">
<time>2016-08-13T11:48:23Z</time></trkpt>
<trkpt lat="25.949113" lon="100.108158">
<time>2016-08-13T11:48:24Z</time></trkpt>
<trkpt lat="25.949133" lon="100.108198">
<time>2016-08-13T11:48:25Z</time></trkpt>
<trkpt lat="25.949243" lon="100.108448">
<time>2016-08-13T11:48:26Z</time></trkpt>
<trkpt lat="25.949313" lon="100.108618">
<time>2016-08-13T11:48:27Z</time></trkpt>
<trkpt lat="25.949424" lon="100.108878">
<time>2016-08-13T11:48:28Z</time></trkpt>
<trkpt lat="25.949855" lon="100.109969">
<time>2016-08-13T11:48:29Z</time></trkpt>
<trkpt lat="25.950155" lon="100.11074">
<time>2016-08-13T11:48:30Z</time></trkpt>
<trkpt lat="25.950265" lon="100.11102">
<time>2016-08-13T11:48:31Z</time></trkpt>
<trkpt lat="25.950396" lon="100.11134">
<time>2016-08-13T11:48:32Z</time></trkpt>
<trkpt lat="25.950496" lon="100.1116">
<time>2016-08-13T11:48:33Z</time></trkpt>
<trkpt lat="25.950636" lon="100.111991">
<time>2016-08-13T11:48:34Z</time></trkpt>
<trkpt lat="25.950797" lon="100.112381">
<time>2016-08-13T11:48:35Z</time></trkpt>
<trkpt lat="25.950897" lon="100.112631">
<time>2016-08-13T11:48:36Z</time></trkpt>
<trkpt lat="25.951157" lon="100.113282">
<time>2016-08-13T11:48:37Z</time></trkpt>
<trkpt lat="25.951398" lon="100.113882">
<time>2016-08-13T11:48:38Z</time></trkpt>
<trkpt lat="25.951518" lon="100.114172">
<time>2016-08-13T11:48:39Z</time></trkpt>
<trkpt lat="25.951659" lon="100.114462">
<time>2016-08-13T11:48:40Z</time></trkpt>
<trkpt lat="25.951759" lon="100.114643">
<time>2016-08-13T11:48:41Z</time></trkpt>
<trkpt lat="25.951839" lon="100.114793">
<time>2016-08-13T11:48:42Z</time></trkpt>
<trkpt lat="25.951879" lon="100.114853">
<time>2016-08-13T11:48:43Z</time></trkpt>
<trkpt lat="25.951959" lon="100.114963">
<time>2016-08-13T11:48:44Z</time></trkpt>
<trkpt lat="25.952029" lon="100.115053">
<time>2016-08-13T11:48:45Z</time></trkpt>
<trkpt lat="25.9522" lon="100.115283">
<time>2016-08-13T11:48:46Z</time></trkpt>
<trkpt lat="25.95239" lon="100.115503">
<time>2016-08-13T11:48:47Z</time></trkpt>
<trkpt lat="25.95264" lon="100.115754">
<time>2016-08-13T11:48:48Z</time></trkpt>
<trkpt lat="25.952891" lon="100.115974">
<time>2016-08-13T11:48:49Z</time></trkpt>
<trkpt lat="25.953151" lon="100.116204">
<time>2016-08-13T11:48:50Z</time></trkpt>
<trkpt lat="25.953211" lon="100.116254">
<time>2016-08-13T11:48:51Z</time></trkpt>
<trkpt lat="25.953451" lon="100.116454">
<time>2016-08-13T11:48:52Z</time></trkpt>
<trkpt lat="25.953762" lon="100.116765">
<time>2016-08-13T11:48:53Z</time></trkpt>
<trkpt lat="25.953962" lon="100.116965">
<time>2016-08-13T11:48:54Z</time></trkpt>
<trkpt lat="25.954203" lon="100.117255">
<time>2016-08-13T11:48:55Z</time></trkpt>
<trkpt lat="25.954433" lon="100.117575">
<time>2016-08-13T11:48:56Z</time></trkpt>
<trkpt lat="25.954643" lon="100.117906">
<time>2016-08-13T11:48:57Z</time></trkpt>
<trkpt lat="25.954844" lon="100.118256">
<time>2016-08-13T11:48:58Z</time></trkpt>
<trkpt lat="25.955526" lon="100.119517">
<time>2016-08-13T11:48:59Z</time></trkpt>
<trkpt lat="25.956097" lon="100.120588">
<time>2016-08-13T11:49:00Z</time></trkpt>
<trkpt lat="25.956779" lon="100.12186">
<time>2016-08-13T11:49:01Z</time></trkpt>
<trkpt lat="25.956939" lon="100.12216">
<time>2016-08-13T11:49:02Z</time></trkpt>
<trkpt lat="25.95736" lon="100.122971">
<time>2016-08-13T11:49:03Z</time></trkpt>
<trkpt lat="25.9574" lon="100.123051">
<time>2016-08-13T11:49:04Z</time></trkpt>
<trkpt lat="25.95745" lon="100.123151">
<time>2016-08-13T11:49:05Z</time></trkpt>
<trkpt lat="25.957511" lon="100.123251">
<time>2016-08-13T11:49:06Z</time></trkpt>
<trkpt lat="25.958132" lon="100.124393">
<time>2016-08-13T11:49:07Z</time></trkpt>
<trkpt lat="25.958273" lon="100.124643">
<time>2016-08-13T11:49:08Z</time></trkpt>
<trkpt lat="25.958413" lon="100.124913">
<time>2016-08-13T11:49:09Z</time></trkpt>
<trkpt lat="25.958473" lon="100.125023">
<time>2016-08-13T11:49:10Z</time></trkpt>
<trkpt lat="25.958844" lon="100.125724">
<time>2016-08-13T11:49:11Z</time></trkpt>
<trkpt lat="25.959015" lon="100.126045">
<time>2016-08-13T11:49:12Z</time></trkpt>
<trkpt lat="25.959486" lon="100.126906">
<time>2016-08-13T11:49:13Z</time></trkpt>
<trkpt lat="25.959546" lon="100.127026">
<time>2016-08-13T11:49:14Z</time></trkpt>
<trkpt lat="25.959556" lon="100.127056">
<time>2016-08-13T11:49:15Z</time></trkpt>
<trkpt lat="25.959636" lon="100.127206">
<time>2016-08-13T11:49:16Z</time></trkpt>
<trkpt lat="25.959727" lon="100.127346">
<time>2016-08-13T11:49:17Z</time></trkpt>
<trkpt lat="25.959867" lon="100.127567">
<time>2016-08-13T11:49:18Z</time></trkpt>
<trkpt lat="25.959967" lon="100.127697">
<time>2016-08-13T11:49:19Z</time></trkpt>
<trkpt lat="25.960128" lon="100.127897">
<time>2016-08-13T11:49:20Z</time></trkpt>
<trkpt lat="25.960168" lon="100.127947">
<time>2016-08-13T11:49:21Z</time></trkpt>
<trkpt lat="25.960398" lon="100.128218">
<time>2016-08-13T11:49:22Z</time></trkpt>
<trkpt lat="25.960619" lon="100.128488">
<time>2016-08-13T11:49:23Z</time></trkpt>
<trkpt lat="25.960729" lon="100.128608">
<time>2016-08-13T11:49:24Z</time></trkpt>
<trkpt lat="25.96143" lon="100.129469">
<time>2016-08-13T11:49:25Z</time></trkpt>
<trkpt lat="25.961721" lon="100.12983">
<time>2016-08-13T11:49:26Z</time></trkpt>
<trkpt lat="25.961721" lon="100.12983">
<time>2016-08-13T11:49:27Z</time></trkpt>
<trkpt lat="25.961761" lon="100.12993">
<time>2016-08-13T11:49:28Z</time></trkpt>
<trkpt lat="25.961822" lon="100.13016">
<time>2016-08-13T11:49:29Z</time></trkpt>
<trkpt lat="25.961852" lon="100.130281">
<time>2016-08-13T11:49:30Z</time></trkpt>
<trkpt lat="25.961912" lon="100.130481">
<time>2016-08-13T11:49:31Z</time></trkpt>
<trkpt lat="25.961992" lon="100.130721">
<time>2016-08-13T11:49:32Z</time></trkpt>
<trkpt lat="25.962123" lon="100.131032">
<time>2016-08-13T11:49:33Z</time></trkpt>
<trkpt lat="25.962153" lon="100.131152">
<time>2016-08-13T11:49:34Z</time></trkpt>
<trkpt lat="25.962223" lon="100.131372">
<time>2016-08-13T11:49:35Z</time></trkpt>
<trkpt lat="25.962294" lon="100.131582">
<time>2016-08-13T11:49:36Z</time></trkpt>
<trkpt lat="25.962364" lon="100.131923">
<time>2016-08-13T11:49:37Z</time></trkpt>
<trkpt lat="25.962455" lon="100.132484">
<time>2016-08-13T11:49:38Z</time></trkpt>
<trkpt lat="25.962525" lon="100.132764">
<time>2016-08-13T11:49:39Z</time></trkpt>
<trkpt lat="25.962566" lon="100.133085">
<time>2016-08-13T11:49:40Z</time></trkpt>
<trkpt lat="25.962617" lon="100.133926">
<time>2016-08-13T11:49:41Z</time></trkpt>
<trkpt lat="25.962607" lon="100.134156">
<time>2016-08-13T11:49:42Z</time></trkpt>
<trkpt lat="25.962598" lon="100.134497">
<time>2016-08-13T11:49:43Z</time></trkpt>
<trkpt lat="25.962568" lon="100.134737">
<time>2016-08-13T11:49:44Z</time></trkpt>
<trkpt lat="25.962539" lon="100.135138">
<time>2016-08-13T11:49:45Z</time></trkpt>
<trkpt lat="25.962529" lon="100.135468">
<time>2016-08-13T11:49:46Z</time></trkpt>
<trkpt lat="25.962539" lon="100.135589">
<time>2016-08-13T11:49:47Z</time></trkpt>
<trkpt lat="25.962549" lon="100.135689">
<time>2016-08-13T11:49:48Z</time></trkpt>
<trkpt lat="25.96257" lon="100.135799">
<time>2016-08-13T11:49:49Z</time></trkpt>
<trkpt lat="25.96263" lon="100.135909">
<time>2016-08-13T11:49:50Z</time></trkpt>
<trkpt lat="25.96274" lon="100.136129">
<time>2016-08-13T11:49:51Z</time></trkpt>
<trkpt lat="25.96278" lon="100.13619">
<time>2016-08-13T11:49:52Z</time></trkpt>
<trkpt lat="25.96284" lon="100.13627">
<time>2016-08-13T11:49:53Z</time></trkpt>
<trkpt lat="25.962871" lon="100.13636">
<time>2016-08-13T11:49:54Z</time></trkpt>
<trkpt lat="25.962921" lon="100.13663">
<time>2016-08-13T11:49:55Z</time></trkpt>
<trkpt lat="25.962951" lon="100.136801">
<time>2016-08-13T11:49:56Z</time></trkpt>
<trkpt lat="25.962982" lon="100.136961">
<time>2016-08-13T11:49:57Z</time></trkpt>
<trkpt lat="25.963052" lon="100.137291">
<time>2016-08-13T11:49:58Z</time></trkpt>
<trkpt lat="25.963084" lon="100.138373">
<time>2016-08-13T11:49:59Z</time></trkpt>
<trkpt lat="25.963084" lon="100.138453">
<time>2016-08-13T11:50:00Z</time></trkpt>
<trkpt lat="25.963064" lon="100.138523">
<time>2016-08-13T11:50:01Z</time></trkpt>
<trkpt lat="25.963054" lon="100.138583">
<time>2016-08-13T11:50:02Z</time></trkpt>
<trkpt lat="25.963034" lon="100.138614">
<time>2016-08-13T11:50:03Z</time></trkpt>
<trkpt lat="25.963024" lon="100.138644">
<time>2016-08-13T11:50:04Z</time></trkpt>
<trkpt lat="25.963014" lon="100.138684">
<time>2016-08-13T11:50:05Z</time></trkpt>
<trkpt lat="25.963014" lon="100.138724">
<time>2016-08-13T11:50:06Z</time></trkpt>
<trkpt lat="25.963024" lon="100.138814">
<time>2016-08-13T11:50:07Z</time></trkpt>
<trkpt lat="25.963034" lon="100.138904">
<time>2016-08-13T11:50:08Z</time></trkpt>
<trkpt lat="25.963055" lon="100.139004">
<time>2016-08-13T11:50:09Z</time></trkpt>
<trkpt lat="25.963115" lon="100.139365">
<time>2016-08-13T11:50:10Z</time></trkpt>
<trkpt lat="25.963156" lon="100.139665">
<time>2016-08-13T11:50:11Z</time></trkpt>
<trkpt lat="25.963206" lon="100.139986">
<time>2016-08-13T11:50:12Z</time></trkpt>
<trkpt lat="25.963247" lon="100.140256">
<time>2016-08-13T11:50:13Z</time></trkpt>
<trkpt lat="25.963287" lon="100.140497">
<time>2016-08-13T11:50:14Z</time></trkpt>
<trkpt lat="25.963368" lon="100.140767">
<time>2016-08-13T11:50:15Z</time></trkpt>
<trkpt lat="25.963418" lon="100.140978">
<time>2016-08-13T11:50:16Z</time></trkpt>
<trkpt lat="25.963458" lon="100.141288">
<time>2016-08-13T11:50:17Z</time></trkpt>
<trkpt lat="25.963509" lon="100.141579">
<time>2016-08-13T11:50:18Z</time></trkpt>
<trkpt lat="25.963559" lon="100.141889">
<time>2016-08-13T11:50:19Z</time></trkpt>
<trkpt lat="25.96362" lon="100.14214">
<time>2016-08-13T11:50:20Z</time></trkpt>
<trkpt lat="25.96367" lon="100.14234">
<time>2016-08-13T11:50:21Z</time></trkpt>
<trkpt lat="25.963691" lon="100.14252">
<time>2016-08-13T11:50:22Z</time></trkpt>
<trkpt lat="25.963701" lon="100.142641">
<time>2016-08-13T11:50:23Z</time></trkpt>
<trkpt lat="25.963701" lon="100.142801">
<time>2016-08-13T11:50:24Z</time></trkpt>
<trkpt lat="25.963692" lon="100.143181">
<time>2016-08-13T11:50:25Z</time></trkpt>
<trkpt lat="25.963682" lon="100.143572">
<time>2016-08-13T11:50:26Z</time></trkpt>
<trkpt lat="25.963672" lon="100.143732">
<time>2016-08-13T11:50:27Z</time></trkpt>
<trkpt lat="25.963673" lon="100.143883">
<time>2016-08-13T11:50:28Z</time></trkpt>
<trkpt lat="25.963693" lon="100.144043">
<time>2016-08-13T11:50:29Z</time></trkpt>
<trkpt lat="25.963954" lon="100.144764">
<time>2016-08-13T11:50:30Z</time></trkpt>
<trkpt lat="25.964065" lon="100.145155">
<time>2016-08-13T11:50:31Z</time></trkpt>
<trkpt lat="25.964065" lon="100.145155">
<time>2016-08-13T11:50:32Z</time></trkpt>
<trkpt lat="25.963565" lon="100.145075">
<time>2016-08-13T11:50:33Z</time></trkpt>
<trkpt lat="25.963565" lon="100.145075">
<time>2016-08-13T11:50:34Z</time></trkpt>
<trkpt lat="25.963917" lon="100.146488">
<time>2016-08-13T11:50:35Z</time></trkpt>
<trkpt lat="25.964068" lon="100.147009">
<time>2016-08-13T11:50:36Z</time></trkpt>
<trkpt lat="25.964138" lon="100.147199">
<time>2016-08-13T11:50:37Z</time></trkpt>
<trkpt lat="25.964289" lon="100.147439">
<time>2016-08-13T11:50:38Z</time></trkpt>
<trkpt lat="25.964479" lon="100.1476">
<time>2016-08-13T11:50:39Z</time></trkpt>
<trkpt lat="25.96501" lon="100.14782">
<time>2016-08-13T11:50:40Z</time></trkpt>
<trkpt lat="25.96525" lon="100.14795">
<time>2016-08-13T11:50:41Z</time></trkpt>
<trkpt lat="25.965441" lon="100.148101">
<time>2016-08-13T11:50:42Z</time></trkpt>
<trkpt lat="25.965611" lon="100.148301">
<time>2016-08-13T11:50:43Z</time></trkpt>
<trkpt lat="25.965742" lon="100.148612">
<time>2016-08-13T11:50:44Z</time></trkpt>
<trkpt lat="25.965792" lon="100.148842">
<time>2016-08-13T11:50:45Z</time></trkpt>
<trkpt lat="25.965888" lon="100.151948">
<time>2016-08-13T11:50:46Z</time></trkpt>
<trkpt lat="25.965748" lon="100.152389">
<time>2016-08-13T11:50:47Z</time></trkpt>
<trkpt lat="25.9653" lon="100.153671">
<time>2016-08-13T11:50:48Z</time></trkpt>
<trkpt lat="25.965161" lon="100.154102">
<time>2016-08-13T11:50:49Z</time></trkpt>
<trkpt lat="25.964921" lon="100.154393">
<time>2016-08-13T11:50:50Z</time></trkpt>
<trkpt lat="25.964732" lon="100.154533">
<time>2016-08-13T11:50:51Z</time></trkpt>
<trkpt lat="25.964492" lon="100.154633">
<time>2016-08-13T11:50:52Z</time></trkpt>
<trkpt lat="25.963021" lon="100.155124">
<time>2016-08-13T11:50:53Z</time></trkpt>
<trkpt lat="25.962591" lon="100.155215">
<time>2016-08-13T11:50:54Z</time></trkpt>
<trkpt lat="25.962141" lon="100.155245">
<time>2016-08-13T11:50:55Z</time></trkpt>
<trkpt lat="25.961581" lon="100.155205">
<time>2016-08-13T11:50:56Z</time></trkpt>
<trkpt lat="25.96105" lon="100.155094">
<time>2016-08-13T11:50:57Z</time></trkpt>
<trkpt lat="25.960569" lon="100.154914">
<time>2016-08-13T11:50:58Z</time></trkpt>
<trkpt lat="25.959628" lon="100.154403">
<time>2016-08-13T11:50:59Z</time></trkpt>
<trkpt lat="25.959427" lon="100.154293">
<time>2016-08-13T11:51:00Z</time></trkpt>
<trkpt lat="25.959177" lon="100.154203">
<time>2016-08-13T11:51:01Z</time></trkpt>
<trkpt lat="25.958346" lon="100.154052">
<time>2016-08-13T11:51:02Z</time></trkpt>
<trkpt lat="25.957826" lon="100.153942">
<time>2016-08-13T11:51:03Z</time></trkpt>
<trkpt lat="25.957595" lon="100.153852">
<time>2016-08-13T11:51:04Z</time></trkpt>
<trkpt lat="25.957425" lon="100.153712">
<time>2016-08-13T11:51:05Z</time></trkpt>
<trkpt lat="25.957305" lon="100.153511">
<time>2016-08-13T11:51:06Z</time></trkpt>
<trkpt lat="25.957164" lon="100.153131">
<time>2016-08-13T11:51:07Z</time></trkpt>
<trkpt lat="25.957063" lon="100.1529">
<time>2016-08-13T11:51:08Z</time></trkpt>
<trkpt lat="25.956933" lon="100.15276">
<time>2016-08-13T11:51:09Z</time></trkpt>
<trkpt lat="25.956813" lon="100.1527">
<time>2016-08-13T11:51:10Z</time></trkpt>
<trkpt lat="25.956703" lon="100.15266">
<time>2016-08-13T11:51:11Z</time></trkpt>
<trkpt lat="25.956593" lon="100.15265">
<time>2016-08-13T11:51:12Z</time></trkpt>
<trkpt lat="25.956472" lon="100.15267">
<time>2016-08-13T11:51:13Z</time></trkpt>
<trkpt lat="25.956263" lon="100.15278">
<time>2016-08-13T11:51:14Z</time></trkpt>
<trkpt lat="25.956103" lon="100.15297">
<time>2016-08-13T11:51:15Z</time></trkpt>
<trkpt lat="25.955973" lon="100.153221">
<time>2016-08-13T11:51:16Z</time></trkpt>
<trkpt lat="25.955724" lon="100.153591">
<time>2016-08-13T11:51:17Z</time></trkpt>
<trkpt lat="25.955514" lon="100.153882">
<time>2016-08-13T11:51:18Z</time></trkpt>
<trkpt lat="25.955254" lon="100.154193">
<time>2016-08-13T11:51:19Z</time></trkpt>
<trkpt lat="25.955044" lon="100.154363">
<time>2016-08-13T11:51:20Z</time></trkpt>
<trkpt lat="25.954405" lon="100.154654">
<time>2016-08-13T11:51:21Z</time></trkpt>
<trkpt lat="25.953835" lon="100.154954">
<time>2016-08-13T11:51:22Z</time></trkpt>
<trkpt lat="25.953595" lon="100.155135">
<time>2016-08-13T11:51:23Z</time></trkpt>
<trkpt lat="25.953525" lon="100.155255">
<time>2016-08-13T11:51:24Z</time></trkpt>
<trkpt lat="25.953166" lon="100.156087">
<time>2016-08-13T11:51:25Z</time></trkpt>
<trkpt lat="25.95217" lon="100.158411">
<time>2016-08-13T11:51:26Z</time></trkpt>
<trkpt lat="25.95212" lon="100.158502">
<time>2016-08-13T11:51:27Z</time></trkpt>
<trkpt lat="25.95206" lon="100.158572">
<time>2016-08-13T11:51:28Z</time></trkpt>
<trkpt lat="25.952" lon="100.158652">
<time>2016-08-13T11:51:29Z</time></trkpt>
<trkpt lat="25.95191" lon="100.158712">
<time>2016-08-13T11:51:30Z</time></trkpt>
<trkpt lat="25.95183" lon="100.158752">
<time>2016-08-13T11:51:31Z</time></trkpt>
<trkpt lat="25.9517" lon="100.158792">
<time>2016-08-13T11:51:32Z</time></trkpt>
<trkpt lat="25.94993" lon="100.159143">
<time>2016-08-13T11:51:33Z</time></trkpt>
<trkpt lat="25.949629" lon="100.159213">
<time>2016-08-13T11:51:34Z</time></trkpt>
<trkpt lat="25.949429" lon="100.159283">
<time>2016-08-13T11:51:35Z</time></trkpt>
<trkpt lat="25.94933" lon="100.159343">
<time>2016-08-13T11:51:36Z</time></trkpt>
<trkpt lat="25.94922" lon="100.159454">
<time>2016-08-13T11:51:37Z</time></trkpt>
<trkpt lat="25.9491" lon="100.159634">
<time>2016-08-13T11:51:38Z</time></trkpt>
<trkpt lat="25.948881" lon="100.160055">
<time>2016-08-13T11:51:39Z</time></trkpt>
<trkpt lat="25.948811" lon="100.160225">
<time>2016-08-13T11:51:40Z</time></trkpt>
<trkpt lat="25.948771" lon="100.160375">
<time>2016-08-13T11:51:41Z</time></trkpt>
<trkpt lat="25.948751" lon="100.160516">
<time>2016-08-13T11:51:42Z</time></trkpt>
<trkpt lat="25.948772" lon="100.160716">
<time>2016-08-13T11:51:43Z</time></trkpt>
<trkpt lat="25.948963" lon="100.161518">
<time>2016-08-13T11:51:44Z</time></trkpt>
<trkpt lat="25.949165" lon="100.16234">
<time>2016-08-13T11:51:45Z</time></trkpt>
<trkpt lat="25.949296" lon="100.162861">
<time>2016-08-13T11:51:46Z</time></trkpt>
<trkpt lat="25.949296" lon="100.163061">
<time>2016-08-13T11:51:47Z</time></trkpt>
<trkpt lat="25.949257" lon="100.163231">
<time>2016-08-13T11:51:48Z</time></trkpt>
<trkpt lat="25.949187" lon="100.163402">
<time>2016-08-13T11:51:49Z</time></trkpt>
<trkpt lat="25.949047" lon="100.163582">
<time>2016-08-13T11:51:50Z</time></trkpt>
<trkpt lat="25.946191" lon="100.166759">
<time>2016-08-13T11:51:51Z</time></trkpt>
<trkpt lat="25.946061" lon="100.166869">
<time>2016-08-13T11:51:52Z</time></trkpt>
<trkpt lat="25.945951" lon="100.166969">
<time>2016-08-13T11:51:53Z</time></trkpt>
<trkpt lat="25.945821" lon="100.167049">
<time>2016-08-13T11:51:54Z</time></trkpt>
<trkpt lat="25.945532" lon="100.16721">
<time>2016-08-13T11:51:55Z</time></trkpt>
<trkpt lat="25.944961" lon="100.1674">
<time>2016-08-13T11:51:56Z</time></trkpt>
<trkpt lat="25.944611" lon="100.16747">
<time>2016-08-13T11:51:57Z</time></trkpt>
<trkpt lat="25.944101" lon="100.16749">
<time>2016-08-13T11:51:58Z</time></trkpt>
<trkpt lat="25.94198" lon="100.167561">
<time>2016-08-13T11:51:59Z</time></trkpt>
<trkpt lat="25.94189" lon="100.167571">
<time>2016-08-13T11:52:00Z</time></trkpt>
<trkpt lat="25.941709" lon="100.167531">
<time>2016-08-13T11:52:01Z</time></trkpt>
<trkpt lat="25.941419" lon="100.16741">
<time>2016-08-13T11:52:02Z</time></trkpt>
<trkpt lat="25.941199" lon="100.16727">
<time>2016-08-13T11:52:03Z</time></trkpt>
<trkpt lat="25.940988" lon="100.16708">
<time>2016-08-13T11:52:04Z</time></trkpt>
<trkpt lat="25.940848" lon="100.166899">
<time>2016-08-13T11:52:05Z</time></trkpt>
<trkpt lat="25.940717" lon="100.166719">
<time>2016-08-13T11:52:06Z</time></trkpt>
<trkpt lat="25.940255" lon="100.165827">
<time>2016-08-13T11:52:07Z</time></trkpt>
<trkpt lat="25.940125" lon="100.165617">
<time>2016-08-13T11:52:08Z</time></trkpt>
<trkpt lat="25.939934" lon="100.165416">
<time>2016-08-13T11:52:09Z</time></trkpt>
<trkpt lat="25.939523" lon="100.165156">
<time>2016-08-13T11:52:10Z</time></trkpt>
<trkpt lat="25.939183" lon="100.164995">
<time>2016-08-13T11:52:11Z</time></trkpt>
<trkpt lat="25.938993" lon="100.164935">
<time>2016-08-13T11:52:12Z</time></trkpt>
<trkpt lat="25.938552" lon="100.164675">
<time>2016-08-13T11:52:13Z</time></trkpt>
<trkpt lat="25.938221" lon="100.164524">
<time>2016-08-13T11:52:14Z</time></trkpt>
<trkpt lat="25.937981" lon="100.164444">
<time>2016-08-13T11:52:15Z</time></trkpt>
<trkpt lat="25.937681" lon="100.164434">
<time>2016-08-13T11:52:16Z</time></trkpt>
<trkpt lat="25.937431" lon="100.164474">
<time>2016-08-13T11:52:17Z</time></trkpt>
<trkpt lat="25.937191" lon="100.164564">
<time>2016-08-13T11:52:18Z</time></trkpt>
<trkpt lat="25.937021" lon="100.164685">
<time>2016-08-13T11:52:19Z</time></trkpt>
<trkpt lat="25.936891" lon="100.164835">
<time>2016-08-13T11:52:20Z</time></trkpt>
<trkpt lat="25.936092" lon="100.165887">
<time>2016-08-13T11:52:21Z</time></trkpt>
<trkpt lat="25.935793" lon="100.166268">
<time>2016-08-13T11:52:22Z</time></trkpt>
<trkpt lat="25.935663" lon="100.166388">
<time>2016-08-13T11:52:23Z</time></trkpt>
<trkpt lat="25.935523" lon="100.166479">
<time>2016-08-13T11:52:24Z</time></trkpt>
<trkpt lat="25.935283" lon="100.166529">
<time>2016-08-13T11:52:25Z</time></trkpt>
<trkpt lat="25.934903" lon="100.166529">
<time>2016-08-13T11:52:26Z</time></trkpt>
<trkpt lat="25.933952" lon="100.166509">
<time>2016-08-13T11:52:27Z</time></trkpt>
<trkpt lat="25.933702" lon="100.166529">
<time>2016-08-13T11:52:28Z</time></trkpt>
<trkpt lat="25.933522" lon="100.166569">
<time>2016-08-13T11:52:29Z</time></trkpt>
<trkpt lat="25.933362" lon="100.166669">
<time>2016-08-13T11:52:30Z</time></trkpt>
<trkpt lat="25.932863" lon="100.1672">
<time>2016-08-13T11:52:31Z</time></trkpt>
<trkpt lat="25.932303" lon="100.167781">
<time>2016-08-13T11:52:32Z</time></trkpt>
<trkpt lat="25.932094" lon="100.167932">
<time>2016-08-13T11:52:33Z</time></trkpt>
<trkpt lat="25.931784" lon="100.168142">
<time>2016-08-13T11:52:34Z</time></trkpt>
<trkpt lat="25.931674" lon="100.168242">
<time>2016-08-13T11:52:35Z</time></trkpt>
<trkpt lat="25.931574" lon="100.168383">
<time>2016-08-13T11:52:36Z</time></trkpt>
<trkpt lat="25.931524" lon="100.168563">
<time>2016-08-13T11:52:37Z</time></trkpt>
<trkpt lat="25.931545" lon="100.168763">
<time>2016-08-13T11:52:38Z</time></trkpt>
<trkpt lat="25.931635" lon="100.168954">
<time>2016-08-13T11:52:39Z</time></trkpt>
<trkpt lat="25.932096" lon="100.169465">
<time>2016-08-13T11:52:40Z</time></trkpt>
<trkpt lat="25.932588" lon="100.170026">
<time>2016-08-13T11:52:41Z</time></trkpt>
<trkpt lat="25.932678" lon="100.170106">
<time>2016-08-13T11:52:42Z</time></trkpt>
<trkpt lat="25.932788" lon="100.170176">
<time>2016-08-13T11:52:43Z</time></trkpt>
<trkpt lat="25.933589" lon="100.170437">
<time>2016-08-13T11:52:44Z</time></trkpt>
<trkpt lat="25.93411" lon="100.170597">
<time>2016-08-13T11:52:45Z</time></trkpt>
<trkpt lat="25.93428" lon="100.170637">
<time>2016-08-13T11:52:46Z</time></trkpt>
<trkpt lat="25.93438" lon="100.170677">
<time>2016-08-13T11:52:47Z</time></trkpt>
<trkpt lat="25.93445" lon="100.170718">
<time>2016-08-13T11:52:48Z</time></trkpt>
<trkpt lat="25.934581" lon="100.170818">
<time>2016-08-13T11:52:49Z</time></trkpt>
<trkpt lat="25.934681" lon="100.170928">
<time>2016-08-13T11:52:50Z</time></trkpt>
<trkpt lat="25.934751" lon="100.171028">
<time>2016-08-13T11:52:51Z</time></trkpt>
<trkpt lat="25.934802" lon="100.171158">
<time>2016-08-13T11:52:52Z</time></trkpt>
<trkpt lat="25.934812" lon="100.171339">
<time>2016-08-13T11:52:53Z</time></trkpt>
<trkpt lat="25.934914" lon="100.172381">
<time>2016-08-13T11:52:54Z</time></trkpt>
<trkpt lat="25.934934" lon="100.172672">
<time>2016-08-13T11:52:55Z</time></trkpt>
<trkpt lat="25.934945" lon="100.172902">
<time>2016-08-13T11:52:56Z</time></trkpt>
<trkpt lat="25.934956" lon="100.173664">
<time>2016-08-13T11:52:57Z</time></trkpt>
<trkpt lat="25.934967" lon="100.173974">
<time>2016-08-13T11:52:58Z</time></trkpt>
<trkpt lat="25.934957" lon="100.174255">
<time>2016-08-13T11:52:59Z</time></trkpt>
<trkpt lat="25.934958" lon="100.174505">
<time>2016-08-13T11:53:00Z</time></trkpt>
<trkpt lat="25.934948" lon="100.174776">
<time>2016-08-13T11:53:01Z</time></trkpt>
<trkpt lat="25.934929" lon="100.175107">
<time>2016-08-13T11:53:02Z</time></trkpt>
<trkpt lat="25.9349" lon="100.175457">
<time>2016-08-13T11:53:03Z</time></trkpt>
<trkpt lat="25.93487" lon="100.175678">
<time>2016-08-13T11:53:04Z</time></trkpt>
<trkpt lat="25.934801" lon="100.176119">
<time>2016-08-13T11:53:05Z</time></trkpt>
<trkpt lat="25.934742" lon="100.17667">
<time>2016-08-13T11:53:06Z</time></trkpt>
<trkpt lat="25.934683" lon="100.177111">
<time>2016-08-13T11:53:07Z</time></trkpt>
<trkpt lat="25.934633" lon="100.177562">
<time>2016-08-13T11:53:08Z</time></trkpt>
<trkpt lat="25.934584" lon="100.177883">
<time>2016-08-13T11:53:09Z</time></trkpt>
<trkpt lat="25.934535" lon="100.178233">
<time>2016-08-13T11:53:10Z</time></trkpt>
<trkpt lat="25.934455" lon="100.178674">
<time>2016-08-13T11:53:11Z</time></trkpt>
<trkpt lat="25.934327" lon="100.179396">
<time>2016-08-13T11:53:12Z</time></trkpt>
<trkpt lat="25.934208" lon="100.179957">
<time>2016-08-13T11:53:13Z</time></trkpt>
<trkpt lat="25.934128" lon="100.180328">
<time>2016-08-13T11:53:14Z</time></trkpt>
<trkpt lat="25.934069" lon="100.180548">
<time>2016-08-13T11:53:15Z</time></trkpt>
<trkpt lat="25.934019" lon="100.180779">
<time>2016-08-13T11:53:16Z</time></trkpt>
<trkpt lat="25.93391" lon="100.181189">
<time>2016-08-13T11:53:17Z</time></trkpt>
<trkpt lat="25.93382" lon="100.18147">
<time>2016-08-13T11:53:18Z</time></trkpt>
<trkpt lat="25.933681" lon="100.181871">
<time>2016-08-13T11:53:19Z</time></trkpt>
<trkpt lat="25.933581" lon="100.182151">
<time>2016-08-13T11:53:20Z</time></trkpt>
<trkpt lat="25.933332" lon="100.182813">
<time>2016-08-13T11:53:21Z</time></trkpt>
<trkpt lat="25.933143" lon="100.183234">
<time>2016-08-13T11:53:22Z</time></trkpt>
<trkpt lat="25.933063" lon="100.183404">
<time>2016-08-13T11:53:23Z</time></trkpt>
<trkpt lat="25.932914" lon="100.183665">
<time>2016-08-13T11:53:24Z</time></trkpt>
<trkpt lat="25.932814" lon="100.183805">
<time>2016-08-13T11:53:25Z</time></trkpt>
<trkpt lat="25.932684" lon="100.183965">
<time>2016-08-13T11:53:26Z</time></trkpt>
<trkpt lat="25.932444" lon="100.184196">
<time>2016-08-13T11:53:27Z</time></trkpt>
<trkpt lat="25.932284" lon="100.184386">
<time>2016-08-13T11:53:28Z</time></trkpt>
<trkpt lat="25.932035" lon="100.184737">
<time>2016-08-13T11:53:29Z</time></trkpt>
<trkpt lat="25.931925" lon="100.184907">
<time>2016-08-13T11:53:30Z</time></trkpt>
<trkpt lat="25.931695" lon="100.185208">
<time>2016-08-13T11:53:31Z</time></trkpt>
<trkpt lat="25.931536" lon="100.185408">
<time>2016-08-13T11:53:32Z</time></trkpt>
<trkpt lat="25.931356" lon="100.185568">
<time>2016-08-13T11:53:33Z</time></trkpt>
<trkpt lat="25.931176" lon="100.185709">
<time>2016-08-13T11:53:34Z</time></trkpt>
<trkpt lat="25.930846" lon="100.185959">
<time>2016-08-13T11:53:35Z</time></trkpt>
<trkpt lat="25.930746" lon="100.186019">
<time>2016-08-13T11:53:36Z</time></trkpt>
<trkpt lat="25.930646" lon="100.186089">
<time>2016-08-13T11:53:37Z</time></trkpt>
<trkpt lat="25.930476" lon="100.18617">
<time>2016-08-13T11:53:38Z</time></trkpt>
<trkpt lat="25.930276" lon="100.18625">
<time>2016-08-13T11:53:39Z</time></trkpt>
<trkpt lat="25.930116" lon="100.1863">
<time>2016-08-13T11:53:40Z</time></trkpt>
<trkpt lat="25.929806" lon="100.18642">
<time>2016-08-13T11:53:41Z</time></trkpt>
<trkpt lat="25.929776" lon="100.18644">
<time>2016-08-13T11:53:42Z</time></trkpt>
<trkpt lat="25.929536" lon="100.18655">
<time>2016-08-13T11:53:43Z</time></trkpt>
<trkpt lat="25.929396" lon="100.186631">
<time>2016-08-13T11:53:44Z</time></trkpt>
<trkpt lat="25.929196" lon="100.186721">
<time>2016-08-13T11:53:45Z</time></trkpt>
<trkpt lat="25.928966" lon="100.186801">
<time>2016-08-13T11:53:46Z</time></trkpt>
<trkpt lat="25.928836" lon="100.186841">
<time>2016-08-13T11:53:47Z</time></trkpt>
<trkpt lat="25.928746" lon="100.186851">
<time>2016-08-13T11:53:48Z</time></trkpt>
<trkpt lat="25.928606" lon="100.186871">
<time>2016-08-13T11:53:49Z</time></trkpt>
<trkpt lat="25.928486" lon="100.186881">
<time>2016-08-13T11:53:50Z</time></trkpt>
<trkpt lat="25.928346" lon="100.186881">
<time>2016-08-13T11:53:51Z</time></trkpt>
<trkpt lat="25.928136" lon="100.186851">
<time>2016-08-13T11:53:52Z</time></trkpt>
<trkpt lat="25.928026" lon="100.186831">
<time>2016-08-13T11:53:53Z</time></trkpt>
<trkpt lat="25.927826" lon="100.186791">
<time>2016-08-13T11:53:54Z</time></trkpt>
<trkpt lat="25.927605" lon="100.186731">
<time>2016-08-13T11:53:55Z</time></trkpt>
<trkpt lat="25.927315" lon="100.186651">
<time>2016-08-13T11:53:56Z</time></trkpt>
<trkpt lat="25.927135" lon="100.186621">
<time>2016-08-13T11:53:57Z</time></trkpt>
<trkpt lat="25.927025" lon="100.186611">
<time>2016-08-13T11:53:58Z</time></trkpt>
<trkpt lat="25.926815" lon="100.186631">
<time>2016-08-13T11:53:59Z</time></trkpt>
<trkpt lat="25.926735" lon="100.186641">
<time>2016-08-13T11:54:00Z</time></trkpt>
<trkpt lat="25.926625" lon="100.186651">
<time>2016-08-13T11:54:01Z</time></trkpt>
<trkpt lat="25.926414" lon="100.186681">
<time>2016-08-13T11:54:02Z</time></trkpt>
<trkpt lat="25.926204" lon="100.186691">
<time>2016-08-13T11:54:03Z</time></trkpt>
<trkpt lat="25.926054" lon="100.186681">
<time>2016-08-13T11:54:04Z</time></trkpt>
<trkpt lat="25.925704" lon="100.186651">
<time>2016-08-13T11:54:05Z</time></trkpt>
<trkpt lat="25.925284" lon="100.186631">
<time>2016-08-13T11:54:06Z</time></trkpt>
<trkpt lat="25.925113" lon="100.186641">
<time>2016-08-13T11:54:07Z</time></trkpt>
<trkpt lat="25.925013" lon="100.186651">
<time>2016-08-13T11:54:08Z</time></trkpt>
<trkpt lat="25.924973" lon="100.186651">
<time>2016-08-13T11:54:09Z</time></trkpt>
<trkpt lat="25.924893" lon="100.186671">
<time>2016-08-13T11:54:10Z</time></trkpt>
<trkpt lat="25.924823" lon="100.186691">
<time>2016-08-13T11:54:11Z</time></trkpt>
<trkpt lat="25.924743" lon="100.186721">
<time>2016-08-13T11:54:12Z</time></trkpt>
<trkpt lat="25.924643" lon="100.186771">
<time>2016-08-13T11:54:13Z</time></trkpt>
<trkpt lat="25.924224" lon="100.187021">
<time>2016-08-13T11:54:14Z</time></trkpt>
<trkpt lat="25.923904" lon="100.187262">
<time>2016-08-13T11:54:15Z</time></trkpt>
<trkpt lat="25.923444" lon="100.187332">
<time>2016-08-13T11:54:16Z</time></trkpt>
<trkpt lat="25.923224" lon="100.187382">
<time>2016-08-13T11:54:17Z</time></trkpt>
<trkpt lat="25.923023" lon="100.187422">
<time>2016-08-13T11:54:18Z</time></trkpt>
<trkpt lat="25.922713" lon="100.187502">
<time>2016-08-13T11:54:19Z</time></trkpt>
<trkpt lat="25.922613" lon="100.187533">
<time>2016-08-13T11:54:20Z</time></trkpt>
<trkpt lat="25.922493" lon="100.187593">
<time>2016-08-13T11:54:21Z</time></trkpt>
<trkpt lat="25.922373" lon="100.187673">
<time>2016-08-13T11:54:22Z</time></trkpt>
<trkpt lat="25.922233" lon="100.187763">
<time>2016-08-13T11:54:23Z</time></trkpt>
<trkpt lat="25.922124" lon="100.187843">
<time>2016-08-13T11:54:24Z</time></trkpt>
<trkpt lat="25.921884" lon="100.187993">
<time>2016-08-13T11:54:25Z</time></trkpt>
<trkpt lat="25.921684" lon="100.188124">
<time>2016-08-13T11:54:26Z</time></trkpt>
<trkpt lat="25.921614" lon="100.188174">
<time>2016-08-13T11:54:27Z</time></trkpt>
<trkpt lat="25.921464" lon="100.188314">
<time>2016-08-13T11:54:28Z</time></trkpt>
<trkpt lat="25.921154" lon="100.188645">
<time>2016-08-13T11:54:29Z</time></trkpt>
<trkpt lat="25.920865" lon="100.188985">
<time>2016-08-13T11:54:30Z</time></trkpt>
<trkpt lat="25.920695" lon="100.189166">
<time>2016-08-13T11:54:31Z</time></trkpt>
<trkpt lat="25.920565" lon="100.189266">
<time>2016-08-13T11:54:32Z</time></trkpt>
<trkpt lat="25.920465" lon="100.189376">
<time>2016-08-13T11:54:33Z</time></trkpt>
<trkpt lat="25.920265" lon="100.189567">
<time>2016-08-13T11:54:34Z</time></trkpt>
<trkpt lat="25.919906" lon="100.189897">
<time>2016-08-13T11:54:35Z</time></trkpt>
<trkpt lat="25.919746" lon="100.190048">
<time>2016-08-13T11:54:36Z</time></trkpt>
<trkpt lat="25.919616" lon="100.190158">
<time>2016-08-13T11:54:37Z</time></trkpt>
<trkpt lat="25.919426" lon="100.190308">
<time>2016-08-13T11:54:38Z</time></trkpt>
<trkpt lat="25.919266" lon="100.190398">
<time>2016-08-13T11:54:39Z</time></trkpt>
<trkpt lat="25.918746" lon="100.190639">
<time>2016-08-13T11:54:40Z</time></trkpt>
<trkpt lat="25.918536" lon="100.190739">
<time>2016-08-13T11:54:41Z</time></trkpt>
<trkpt lat="25.918386" lon="100.190819">
<time>2016-08-13T11:54:42Z</time></trkpt>
<trkpt lat="25.918166" lon="100.190929">
<time>2016-08-13T11:54:43Z</time></trkpt>
<trkpt lat="25.918026" lon="100.190989">
<time>2016-08-13T11:54:44Z</time></trkpt>
<trkpt lat="25.917806" lon="100.1911">
<time>2016-08-13T11:54:45Z</time></trkpt>
<trkpt lat="25.917616" lon="100.19118">
<time>2016-08-13T11:54:46Z</time></trkpt>
<trkpt lat="25.917326" lon="100.19129">
<time>2016-08-13T11:54:47Z</time></trkpt>
<trkpt lat="25.916986" lon="100.19143">
<time>2016-08-13T11:54:48Z</time></trkpt>
<trkpt lat="25.916846" lon="100.19148">
<time>2016-08-13T11:54:49Z</time></trkpt>
<trkpt lat="25.916686" lon="100.191581">
<time>2016-08-13T11:54:50Z</time></trkpt>
<trkpt lat="25.916416" lon="100.191781">
<time>2016-08-13T11:54:51Z</time></trkpt>
<trkpt lat="25.916217" lon="100.191911">
<time>2016-08-13T11:54:52Z</time></trkpt>
<trkpt lat="25.915877" lon="100.192051">
<time>2016-08-13T11:54:53Z</time></trkpt>
<trkpt lat="25.915587" lon="100.192192">
<time>2016-08-13T11:54:54Z</time></trkpt>
<trkpt lat="25.915097" lon="100.192402">
<time>2016-08-13T11:54:55Z</time></trkpt>
<trkpt lat="25.914417" lon="100.192693">
<time>2016-08-13T11:54:56Z</time></trkpt>
<trkpt lat="25.914107" lon="100.192813">
<time>2016-08-13T11:54:57Z</time></trkpt>
<trkpt lat="25.913897" lon="100.192873">
<time>2016-08-13T11:54:58Z</time></trkpt>
<trkpt lat="25.913677" lon="100.192903">
<time>2016-08-13T11:54:59Z</time></trkpt>
<trkpt lat="25.913406" lon="100.192923">
<time>2016-08-13T11:55:00Z</time></trkpt>
<trkpt lat="25.913246" lon="100.192923">
<time>2016-08-13T11:55:01Z</time></trkpt>
<trkpt lat="25.913096" lon="100.192893">
<time>2016-08-13T11:55:02Z</time></trkpt>
<trkpt lat="25.912976" lon="100.192853">
<time>2016-08-13T11:55:03Z</time></trkpt>
<trkpt lat="25.912876" lon="100.192813">
<time>2016-08-13T11:55:04Z</time></trkpt>
<trkpt lat="25.912636" lon="100.192743">
<time>2016-08-13T11:55:05Z</time></trkpt>
<trkpt lat="25.912275" lon="100.192613">
<time>2016-08-13T11:55:06Z</time></trkpt>
<trkpt lat="25.912105" lon="100.192563">
<time>2016-08-13T11:55:07Z</time></trkpt>
<trkpt lat="25.911895" lon="100.192543">
<time>2016-08-13T11:55:08Z</time></trkpt>
<trkpt lat="25.911004" lon="100.192502">
<time>2016-08-13T11:55:09Z</time></trkpt>
<trkpt lat="25.910904" lon="100.192512">
<time>2016-08-13T11:55:10Z</time></trkpt>
<trkpt lat="25.910514" lon="100.192523">
<time>2016-08-13T11:55:11Z</time></trkpt>
<trkpt lat="25.910404" lon="100.192553">
<time>2016-08-13T11:55:12Z</time></trkpt>
<trkpt lat="25.910384" lon="100.192563">
<time>2016-08-13T11:55:13Z</time></trkpt>
<trkpt lat="25.910334" lon="100.192593">
<time>2016-08-13T11:55:14Z</time></trkpt>
<trkpt lat="25.910254" lon="100.192653">
<time>2016-08-13T11:55:15Z</time></trkpt>
<trkpt lat="25.910144" lon="100.192793">
<time>2016-08-13T11:55:16Z</time></trkpt>
<trkpt lat="25.910034" lon="100.192973">
<time>2016-08-13T11:55:17Z</time></trkpt>
<trkpt lat="25.909934" lon="100.193174">
<time>2016-08-13T11:55:18Z</time></trkpt>
<trkpt lat="25.909875" lon="100.193354">
<time>2016-08-13T11:55:19Z</time></trkpt>
<trkpt lat="25.909485" lon="100.193845">
<time>2016-08-13T11:55:20Z</time></trkpt>
<trkpt lat="25.909485" lon="100.193845">
<time>2016-08-13T11:55:21Z</time></trkpt>
<trkpt lat="25.909546" lon="100.194065">
<time>2016-08-13T11:55:22Z</time></trkpt>
<trkpt lat="25.909576" lon="100.194296">
<time>2016-08-13T11:55:23Z</time></trkpt>
<trkpt lat="25.909576" lon="100.194506">
<time>2016-08-13T11:55:24Z</time></trkpt>
<trkpt lat="25.909557" lon="100.194707">
<time>2016-08-13T11:55:25Z</time></trkpt>
<trkpt lat="25.909497" lon="100.194897">
<time>2016-08-13T11:55:26Z</time></trkpt>
<trkpt lat="25.909427" lon="100.195067">
<time>2016-08-13T11:55:27Z</time></trkpt>
<trkpt lat="25.909337" lon="100.195188">
<time>2016-08-13T11:55:28Z</time></trkpt>
<trkpt lat="25.909218" lon="100.195318">
<time>2016-08-13T11:55:29Z</time></trkpt>
<trkpt lat="25.908988" lon="100.195468">
<time>2016-08-13T11:55:30Z</time></trkpt>
<trkpt lat="25.908728" lon="100.195588">
<time>2016-08-13T11:55:31Z</time></trkpt>
<trkpt lat="25.908538" lon="100.195678">
<time>2016-08-13T11:55:32Z</time></trkpt>
<trkpt lat="25.908488" lon="100.195688">
<time>2016-08-13T11:55:33Z</time></trkpt>
<trkpt lat="25.908488" lon="100.195688">
<time>2016-08-13T11:55:34Z</time></trkpt>
<trkpt lat="25.908368" lon="100.195729">
<time>2016-08-13T11:55:35Z</time></trkpt>
<trkpt lat="25.908097" lon="100.195739">
<time>2016-08-13T11:55:36Z</time></trkpt>
<trkpt lat="25.907727" lon="100.195688">
<time>2016-08-13T11:55:37Z</time></trkpt>
<trkpt lat="25.907617" lon="100.195689">
<time>2016-08-13T11:55:38Z</time></trkpt>
<trkpt lat="25.907507" lon="100.195719">
<time>2016-08-13T11:55:39Z</time></trkpt>
<trkpt lat="25.907397" lon="100.195749">
<time>2016-08-13T11:55:40Z</time></trkpt>
<trkpt lat="25.907257" lon="100.195789">
<time>2016-08-13T11:55:41Z</time></trkpt>
<trkpt lat="25.906957" lon="100.195859">
<time>2016-08-13T11:55:42Z</time></trkpt>
<trkpt lat="25.906777" lon="100.195919">
<time>2016-08-13T11:55:43Z</time></trkpt>
<trkpt lat="25.906677" lon="100.195989">
<time>2016-08-13T11:55:44Z</time></trkpt>
<trkpt lat="25.906567" lon="100.196149">
<time>2016-08-13T11:55:45Z</time></trkpt>
<trkpt lat="25.906348" lon="100.19652">
<time>2016-08-13T11:55:46Z</time></trkpt>
<trkpt lat="25.906238" lon="100.19669">
<time>2016-08-13T11:55:47Z</time></trkpt>
<trkpt lat="25.906138" lon="100.196791">
<time>2016-08-13T11:55:48Z</time></trkpt>
<trkpt lat="25.905988" lon="100.196901">
<time>2016-08-13T11:55:49Z</time></trkpt>
<trkpt lat="25.905828" lon="100.196991">
<time>2016-08-13T11:55:50Z</time></trkpt>
<trkpt lat="25.905768" lon="100.197041">
<time>2016-08-13T11:55:51Z</time></trkpt>
<trkpt lat="25.905708" lon="100.197101">
<time>2016-08-13T11:55:52Z</time></trkpt>
<trkpt lat="25.905658" lon="100.197161">
<time>2016-08-13T11:55:53Z</time></trkpt>
<trkpt lat="25.905648" lon="100.197191">
<time>2016-08-13T11:55:54Z</time></trkpt>
<trkpt lat="25.905638" lon="100.197221">
<time>2016-08-13T11:55:55Z</time></trkpt>
<trkpt lat="25.905539" lon="100.197502">
<time>2016-08-13T11:55:56Z</time></trkpt>
<trkpt lat="25.905469" lon="100.197652">
<time>2016-08-13T11:55:57Z</time></trkpt>
<trkpt lat="25.905459" lon="100.197662">
<time>2016-08-13T11:55:58Z</time></trkpt>
<trkpt lat="25.905399" lon="100.197782">
<time>2016-08-13T11:55:59Z</time></trkpt>
<trkpt lat="25.905269" lon="100.198033">
<time>2016-08-13T11:56:00Z</time></trkpt>
<trkpt lat="25.90512" lon="100.198283">
<time>2016-08-13T11:56:01Z</time></trkpt>
<trkpt lat="25.90503" lon="100.198403">
<time>2016-08-13T11:56:02Z</time></trkpt>
<trkpt lat="25.905" lon="100.198494">
<time>2016-08-13T11:56:03Z</time></trkpt>
<trkpt lat="25.90497" lon="100.198614">
<time>2016-08-13T11:56:04Z</time></trkpt>
<trkpt lat="25.90496" lon="100.198714">
<time>2016-08-13T11:56:05Z</time></trkpt>
<trkpt lat="25.90497" lon="100.198944">
<time>2016-08-13T11:56:06Z</time></trkpt>
<trkpt lat="25.904951" lon="100.199125">
<time>2016-08-13T11:56:07Z</time></trkpt>
<trkpt lat="25.904901" lon="100.199265">
<time>2016-08-13T11:56:08Z</time></trkpt>
<trkpt lat="25.904751" lon="100.199515">
<time>2016-08-13T11:56:09Z</time></trkpt>
<trkpt lat="25.904601" lon="100.199736">
<time>2016-08-13T11:56:10Z</time></trkpt>
<trkpt lat="25.904482" lon="100.199976">
<time>2016-08-13T11:56:11Z</time></trkpt>
<trkpt lat="25.904392" lon="100.200257">
<time>2016-08-13T11:56:12Z</time></trkpt>
<trkpt lat="25.904323" lon="100.200617">
<time>2016-08-13T11:56:13Z</time></trkpt>
<trkpt lat="25.904273" lon="100.200958">
<time>2016-08-13T11:56:14Z</time></trkpt>
<trkpt lat="25.904204" lon="100.201359">
<time>2016-08-13T11:56:15Z</time></trkpt>
<trkpt lat="25.904204" lon="100.201689">
<time>2016-08-13T11:56:16Z</time></trkpt>
<trkpt lat="25.904245" lon="100.2021">
<time>2016-08-13T11:56:17Z</time></trkpt>
<trkpt lat="25.904266" lon="100.202551">
<time>2016-08-13T11:56:18Z</time></trkpt>
<trkpt lat="25.904246" lon="100.202951">
<time>2016-08-13T11:56:19Z</time></trkpt>
<trkpt lat="25.904187" lon="100.203292">
<time>2016-08-13T11:56:20Z</time></trkpt>
<trkpt lat="25.904087" lon="100.203733">
<time>2016-08-13T11:56:21Z</time></trkpt>
<trkpt lat="25.903948" lon="100.204414">
<time>2016-08-13T11:56:22Z</time></trkpt>
<trkpt lat="25.903809" lon="100.205015">
<time>2016-08-13T11:56:23Z</time></trkpt>
<trkpt lat="25.903699" lon="100.205405">
<time>2016-08-13T11:56:24Z</time></trkpt>
<trkpt lat="25.90353" lon="100.205936">
<time>2016-08-13T11:56:25Z</time></trkpt>
<trkpt lat="25.903341" lon="100.206497">
<time>2016-08-13T11:56:26Z</time></trkpt>
<trkpt lat="25.903101" lon="100.207088">
<time>2016-08-13T11:56:27Z</time></trkpt>
<trkpt lat="25.902952" lon="100.207459">
<time>2016-08-13T11:56:28Z</time></trkpt>
<trkpt lat="25.902673" lon="100.20816">
<time>2016-08-13T11:56:29Z</time></trkpt>
<trkpt lat="25.902463" lon="100.20861">
<time>2016-08-13T11:56:30Z</time></trkpt>
<trkpt lat="25.902283" lon="100.208941">
<time>2016-08-13T11:56:31Z</time></trkpt>
<trkpt lat="25.901494" lon="100.209812">
<time>2016-08-13T11:56:32Z</time></trkpt>
<trkpt lat="25.901494" lon="100.209812">
<time>2016-08-13T11:56:33Z</time></trkpt>
<trkpt lat="25.901424" lon="100.210002">
<time>2016-08-13T11:56:34Z</time></trkpt>
<trkpt lat="25.901314" lon="100.210163">
<time>2016-08-13T11:56:35Z</time></trkpt>
<trkpt lat="25.900594" lon="100.210423">
<time>2016-08-13T11:56:36Z</time></trkpt>
<trkpt lat="25.900454" lon="100.210523">
<time>2016-08-13T11:56:37Z</time></trkpt>
<trkpt lat="25.900354" lon="100.210673">
<time>2016-08-13T11:56:38Z</time></trkpt>
<trkpt lat="25.900245" lon="100.210884">
<time>2016-08-13T11:56:39Z</time></trkpt>
<trkpt lat="25.899905" lon="100.211745">
<time>2016-08-13T11:56:40Z</time></trkpt>
<trkpt lat="25.899706" lon="100.212206">
<time>2016-08-13T11:56:41Z</time></trkpt>
<trkpt lat="25.899416" lon="100.212636">
<time>2016-08-13T11:56:42Z</time></trkpt>
<trkpt lat="25.898697" lon="100.213477">
<time>2016-08-13T11:56:43Z</time></trkpt>
<trkpt lat="25.898287" lon="100.213868">
<time>2016-08-13T11:56:44Z</time></trkpt>
<trkpt lat="25.897697" lon="100.214278">
<time>2016-08-13T11:56:45Z</time></trkpt>
<trkpt lat="25.896237" lon="100.21507">
<time>2016-08-13T11:56:46Z</time></trkpt>
<trkpt lat="25.895867" lon="100.21524">
<time>2016-08-13T11:56:47Z</time></trkpt>
<trkpt lat="25.895327" lon="100.21566">
<time>2016-08-13T11:56:48Z</time></trkpt>
<trkpt lat="25.894917" lon="100.216071">
<time>2016-08-13T11:56:49Z</time></trkpt>
<trkpt lat="25.894467" lon="100.216441">
<time>2016-08-13T11:56:50Z</time></trkpt>
<trkpt lat="25.892377" lon="100.217803">
<time>2016-08-13T11:56:51Z</time></trkpt>
<trkpt lat="25.892077" lon="100.217983">
<time>2016-08-13T11:56:52Z</time></trkpt>
<trkpt lat="25.891737" lon="100.218103">
<time>2016-08-13T11:56:53Z</time></trkpt>
<trkpt lat="25.891407" lon="100.218164">
<time>2016-08-13T11:56:54Z</time></trkpt>
<trkpt lat="25.890747" lon="100.218204">
<time>2016-08-13T11:56:55Z</time></trkpt>
<trkpt lat="25.889866" lon="100.217873">
<time>2016-08-13T11:56:56Z</time></trkpt>
<trkpt lat="25.889656" lon="100.217743">
<time>2016-08-13T11:56:57Z</time></trkpt>
<trkpt lat="25.889475" lon="100.217573">
<time>2016-08-13T11:56:58Z</time></trkpt>
<trkpt lat="25.889475" lon="100.217573">
<time>2016-08-13T11:56:59Z</time></trkpt>
<trkpt lat="25.889255" lon="100.217283">
<time>2016-08-13T11:57:00Z</time></trkpt>
<trkpt lat="25.889014" lon="100.217032">
<time>2016-08-13T11:57:01Z</time></trkpt>
<trkpt lat="25.888894" lon="100.216852">
<time>2016-08-13T11:57:02Z</time></trkpt>
<trkpt lat="25.888784" lon="100.216492">
<time>2016-08-13T11:57:03Z</time></trkpt>
<trkpt lat="25.888723" lon="100.216121">
<time>2016-08-13T11:57:04Z</time></trkpt>
<trkpt lat="25.888663" lon="100.215921">
<time>2016-08-13T11:57:05Z</time></trkpt>
<trkpt lat="25.888542" lon="100.21564">
<time>2016-08-13T11:57:06Z</time></trkpt>
<trkpt lat="25.888422" lon="100.21554">
<time>2016-08-13T11:57:07Z</time></trkpt>
<trkpt lat="25.888152" lon="100.21546">
<time>2016-08-13T11:57:08Z</time></trkpt>
<trkpt lat="25.887051" lon="100.21544">
<time>2016-08-13T11:57:09Z</time></trkpt>
<trkpt lat="25.886881" lon="100.21538">
<time>2016-08-13T11:57:10Z</time></trkpt>
<trkpt lat="25.88642" lon="100.21512">
<time>2016-08-13T11:57:11Z</time></trkpt>
<trkpt lat="25.88612" lon="100.21502">
<time>2016-08-13T11:57:12Z</time></trkpt>
<trkpt lat="25.885629" lon="100.21485">
<time>2016-08-13T11:57:13Z</time></trkpt>
<trkpt lat="25.885369" lon="100.214659">
<time>2016-08-13T11:57:14Z</time></trkpt>
<trkpt lat="25.885058" lon="100.213978">
<time>2016-08-13T11:57:15Z</time></trkpt>
<trkpt lat="25.884747" lon="100.213087">
<time>2016-08-13T11:57:16Z</time></trkpt>
<trkpt lat="25.884606" lon="100.212877">
<time>2016-08-13T11:57:17Z</time></trkpt>
<trkpt lat="25.884256" lon="100.212737">
<time>2016-08-13T11:57:18Z</time></trkpt>
<trkpt lat="25.884026" lon="100.212717">
<time>2016-08-13T11:57:19Z</time></trkpt>
<trkpt lat="25.883966" lon="100.212737">
<time>2016-08-13T11:57:20Z</time></trkpt>
<trkpt lat="25.883866" lon="100.212777">
<time>2016-08-13T11:57:21Z</time></trkpt>
<trkpt lat="25.883776" lon="100.212867">
<time>2016-08-13T11:57:22Z</time></trkpt>
<trkpt lat="25.883456" lon="100.213217">
<time>2016-08-13T11:57:23Z</time></trkpt>
<trkpt lat="25.883316" lon="100.213308">
<time>2016-08-13T11:57:24Z</time></trkpt>
<trkpt lat="25.883236" lon="100.213328">
<time>2016-08-13T11:57:25Z</time></trkpt>
<trkpt lat="25.883006" lon="100.213328">
<time>2016-08-13T11:57:26Z</time></trkpt>
<trkpt lat="25.882345" lon="100.213247">
<time>2016-08-13T11:57:27Z</time></trkpt>
<trkpt lat="25.881995" lon="100.213177">
<time>2016-08-13T11:57:28Z</time></trkpt>
<trkpt lat="25.881735" lon="100.213007">
<time>2016-08-13T11:57:29Z</time></trkpt>
<trkpt lat="25.881524" lon="100.212807">
<time>2016-08-13T11:57:30Z</time></trkpt>
<trkpt lat="25.880932" lon="100.211745">
<time>2016-08-13T11:57:31Z</time></trkpt>
<trkpt lat="25.880682" lon="100.211245">
<time>2016-08-13T11:57:32Z</time></trkpt>
<trkpt lat="25.87978" lon="100.210163">
<time>2016-08-13T11:57:33Z</time></trkpt>
<trkpt lat="25.879188" lon="100.209092">
<time>2016-08-13T11:57:34Z</time></trkpt>
<trkpt lat="25.878917" lon="100.208731">
<time>2016-08-13T11:57:35Z</time></trkpt>
<trkpt lat="25.878827" lon="100.208661">
<time>2016-08-13T11:57:36Z</time></trkpt>
<trkpt lat="25.878707" lon="100.208611">
<time>2016-08-13T11:57:37Z</time></trkpt>
<trkpt lat="25.878477" lon="100.208551">
<time>2016-08-13T11:57:38Z</time></trkpt>
<trkpt lat="25.878286" lon="100.208541">
<time>2016-08-13T11:57:39Z</time></trkpt>
<trkpt lat="25.877716" lon="100.208751">
<time>2016-08-13T11:57:40Z</time></trkpt>
<trkpt lat="25.877326" lon="100.208871">
<time>2016-08-13T11:57:41Z</time></trkpt>
<trkpt lat="25.876666" lon="100.208921">
<time>2016-08-13T11:57:42Z</time></trkpt>
<trkpt lat="25.876416" lon="100.209032">
<time>2016-08-13T11:57:43Z</time></trkpt>
<trkpt lat="25.876036" lon="100.209322">
<time>2016-08-13T11:57:44Z</time></trkpt>
<trkpt lat="25.876036" lon="100.209322">
<time>2016-08-13T11:57:45Z</time></trkpt>
<trkpt lat="25.876006" lon="100.209612">
<time>2016-08-13T11:57:46Z</time></trkpt>
<trkpt lat="25.875937" lon="100.209903">
<time>2016-08-13T11:57:47Z</time></trkpt>
<trkpt lat="25.875617" lon="100.210434">
<time>2016-08-13T11:57:48Z</time></trkpt>
<trkpt lat="25.875407" lon="100.210594">
<time>2016-08-13T11:57:49Z</time></trkpt>
<trkpt lat="25.874327" lon="100.211225">
<time>2016-08-13T11:57:50Z</time></trkpt>
<trkpt lat="25.874137" lon="100.211365">
<time>2016-08-13T11:57:51Z</time></trkpt>
<trkpt lat="25.873808" lon="100.211746">
<time>2016-08-13T11:57:52Z</time></trkpt>
<trkpt lat="25.873468" lon="100.212146">
<time>2016-08-13T11:57:53Z</time></trkpt>
<trkpt lat="25.872988" lon="100.212447">
<time>2016-08-13T11:57:54Z</time></trkpt>
<trkpt lat="25.872788" lon="100.212497">
<time>2016-08-13T11:57:55Z</time></trkpt>
<trkpt lat="25.872598" lon="100.212467">
<time>2016-08-13T11:57:56Z</time></trkpt>
<trkpt lat="25.872097" lon="100.212156">
<time>2016-08-13T11:57:57Z</time></trkpt>
<trkpt lat="25.871687" lon="100.212006">
<time>2016-08-13T11:57:58Z</time></trkpt>
<trkpt lat="25.871516" lon="100.211946">
<time>2016-08-13T11:57:59Z</time></trkpt>
<trkpt lat="25.870986" lon="100.211816">
<time>2016-08-13T11:58:00Z</time></trkpt>
<trkpt lat="25.870596" lon="100.211756">
<time>2016-08-13T11:58:01Z</time></trkpt>
<trkpt lat="25.870385" lon="100.211756">
<time>2016-08-13T11:58:02Z</time></trkpt>
<trkpt lat="25.870235" lon="100.211826">
<time>2016-08-13T11:58:03Z</time></trkpt>
<trkpt lat="25.869426" lon="100.212617">
<time>2016-08-13T11:58:04Z</time></trkpt>
<trkpt lat="25.869126" lon="100.212847">
<time>2016-08-13T11:58:05Z</time></trkpt>
<trkpt lat="25.868246" lon="100.213398">
<time>2016-08-13T11:58:06Z</time></trkpt>
<trkpt lat="25.868006" lon="100.213578">
<time>2016-08-13T11:58:07Z</time></trkpt>
<trkpt lat="25.867886" lon="100.213739">
<time>2016-08-13T11:58:08Z</time></trkpt>
<trkpt lat="25.867397" lon="100.21462">
<time>2016-08-13T11:58:09Z</time></trkpt>
<trkpt lat="25.867397" lon="100.21462">
<time>2016-08-13T11:58:10Z</time></trkpt>
<trkpt lat="25.866897" lon="100.215321">
<time>2016-08-13T11:58:11Z</time></trkpt>
<trkpt lat="25.866777" lon="100.215431">
<time>2016-08-13T11:58:12Z</time></trkpt>
<trkpt lat="25.866287" lon="100.215691">
<time>2016-08-13T11:58:13Z</time></trkpt>
<trkpt lat="25.865657" lon="100.215911">
<time>2016-08-13T11:58:14Z</time></trkpt>
<trkpt lat="25.864867" lon="100.216192">
<time>2016-08-13T11:58:15Z</time></trkpt>
<trkpt lat="25.864347" lon="100.216432">
<time>2016-08-13T11:58:16Z</time></trkpt>
<trkpt lat="25.863827" lon="100.216572">
<time>2016-08-13T11:58:17Z</time></trkpt>
<trkpt lat="25.863276" lon="100.216562">
<time>2016-08-13T11:58:18Z</time></trkpt>
<trkpt lat="25.862336" lon="100.216462">
<time>2016-08-13T11:58:19Z</time></trkpt>
<trkpt lat="25.862175" lon="100.216392">
<time>2016-08-13T11:58:20Z</time></trkpt>
<trkpt lat="25.862045" lon="100.216302">
<time>2016-08-13T11:58:21Z</time></trkpt>
<trkpt lat="25.861765" lon="100.216032">
<time>2016-08-13T11:58:22Z</time></trkpt>
<trkpt lat="25.861444" lon="100.215691">
<time>2016-08-13T11:58:23Z</time></trkpt>
<trkpt lat="25.861133" lon="100.215271">
<time>2016-08-13T11:58:24Z</time></trkpt>
<trkpt lat="25.860863" lon="100.21491">
<time>2016-08-13T11:58:25Z</time></trkpt>
<trkpt lat="25.860562" lon="100.21461">
<time>2016-08-13T11:58:26Z</time></trkpt>
<trkpt lat="25.859771" lon="100.214079">
<time>2016-08-13T11:58:27Z</time></trkpt>
<trkpt lat="25.859401" lon="100.213769">
<time>2016-08-13T11:58:28Z</time></trkpt>
<trkpt lat="25.85923" lon="100.213709">
<time>2016-08-13T11:58:29Z</time></trkpt>
<trkpt lat="25.85848" lon="100.213639">
<time>2016-08-13T11:58:30Z</time></trkpt>
<trkpt lat="25.85823" lon="100.213729">
<time>2016-08-13T11:58:31Z</time></trkpt>
<trkpt lat="25.85776" lon="100.213969">
<time>2016-08-13T11:58:32Z</time></trkpt>
<trkpt lat="25.85751" lon="100.214039">
<time>2016-08-13T11:58:33Z</time></trkpt>
<trkpt lat="25.856589" lon="100.214059">
<time>2016-08-13T11:58:34Z</time></trkpt>
<trkpt lat="25.856209" lon="100.214149">
<time>2016-08-13T11:58:35Z</time></trkpt>
<trkpt lat="25.855889" lon="100.21432">
<time>2016-08-13T11:58:36Z</time></trkpt>
<trkpt lat="25.855189" lon="100.215201">
<time>2016-08-13T11:58:37Z</time></trkpt>
<trkpt lat="25.85498" lon="100.215401">
<time>2016-08-13T11:58:38Z</time></trkpt>
<trkpt lat="25.85391" lon="100.216242">
<time>2016-08-13T11:58:39Z</time></trkpt>
<trkpt lat="25.85377" lon="100.216452">
<time>2016-08-13T11:58:40Z</time></trkpt>
<trkpt lat="25.85364" lon="100.216753">
<time>2016-08-13T11:58:41Z</time></trkpt>
<trkpt lat="25.8536" lon="100.216933">
<time>2016-08-13T11:58:42Z</time></trkpt>
<trkpt lat="25.853601" lon="100.217123">
<time>2016-08-13T11:58:43Z</time></trkpt>
<trkpt lat="25.853581" lon="100.217253">
<time>2016-08-13T11:58:44Z</time></trkpt>
<trkpt lat="25.853601" lon="100.217414">
<time>2016-08-13T11:58:45Z</time></trkpt>
<trkpt lat="25.853681" lon="100.217754">
<time>2016-08-13T11:58:46Z</time></trkpt>
<trkpt lat="25.853802" lon="100.218124">
<time>2016-08-13T11:58:47Z</time></trkpt>
<trkpt lat="25.854123" lon="100.218815">
<time>2016-08-13T11:58:48Z</time></trkpt>
<trkpt lat="25.854353" lon="100.219316">
<time>2016-08-13T11:58:49Z</time></trkpt>
<trkpt lat="25.854504" lon="100.219676">
<time>2016-08-13T11:58:50Z</time></trkpt>
<trkpt lat="25.854524" lon="100.219746">
<time>2016-08-13T11:58:51Z</time></trkpt>
<trkpt lat="25.854534" lon="100.219816">
<time>2016-08-13T11:58:52Z</time></trkpt>
<trkpt lat="25.854524" lon="100.219876">
<time>2016-08-13T11:58:53Z</time></trkpt>
<trkpt lat="25.854504" lon="100.219947">
<time>2016-08-13T11:58:54Z</time></trkpt>
<trkpt lat="25.854434" lon="100.220047">
<time>2016-08-13T11:58:55Z</time></trkpt>
<trkpt lat="25.854324" lon="100.220167">
<time>2016-08-13T11:58:56Z</time></trkpt>
<trkpt lat="25.853785" lon="100.220727">
<time>2016-08-13T11:58:57Z</time></trkpt>
<trkpt lat="25.853565" lon="100.220918">
<time>2016-08-13T11:58:58Z</time></trkpt>
<trkpt lat="25.853475" lon="100.220978">
<time>2016-08-13T11:58:59Z</time></trkpt>
<trkpt lat="25.853395" lon="100.221018">
<time>2016-08-13T11:59:00Z</time></trkpt>
<trkpt lat="25.853295" lon="100.221038">
<time>2016-08-13T11:59:01Z</time></trkpt>
<trkpt lat="25.853174" lon="100.221028">
<time>2016-08-13T11:59:02Z</time></trkpt>
<trkpt lat="25.853054" lon="100.221008">
<time>2016-08-13T11:59:03Z</time></trkpt>
<trkpt lat="25.852954" lon="100.220978">
<time>2016-08-13T11:59:04Z</time></trkpt>
<trkpt lat="25.852824" lon="100.220928">
<time>2016-08-13T11:59:05Z</time></trkpt>
<trkpt lat="25.852754" lon="100.220888">
<time>2016-08-13T11:59:06Z</time></trkpt>
<trkpt lat="25.852614" lon="100.220818">
<time>2016-08-13T11:59:07Z</time></trkpt>
<trkpt lat="25.852514" lon="100.220747">
<time>2016-08-13T11:59:08Z</time></trkpt>
<trkpt lat="25.852363" lon="100.220637">
<time>2016-08-13T11:59:09Z</time></trkpt>
<trkpt lat="25.852073" lon="100.220427">
<time>2016-08-13T11:59:10Z</time></trkpt>
<trkpt lat="25.851863" lon="100.220257">
<time>2016-08-13T11:59:11Z</time></trkpt>
<trkpt lat="25.851632" lon="100.220057">
<time>2016-08-13T11:59:12Z</time></trkpt>
<trkpt lat="25.851312" lon="100.219786">
<time>2016-08-13T11:59:13Z</time></trkpt>
<trkpt lat="25.851011" lon="100.219556">
<time>2016-08-13T11:59:14Z</time></trkpt>
<trkpt lat="25.850351" lon="100.219036">
<time>2016-08-13T11:59:15Z</time></trkpt>
<trkpt lat="25.84968" lon="100.218515">
<time>2016-08-13T11:59:16Z</time></trkpt>
<trkpt lat="25.849309" lon="100.217974">
<time>2016-08-13T11:59:17Z</time></trkpt>
<trkpt lat="25.848777" lon="100.217063">
<time>2016-08-13T11:59:18Z</time></trkpt>
<trkpt lat="25.848527" lon="100.216573">
<time>2016-08-13T11:59:19Z</time></trkpt>
<trkpt lat="25.848406" lon="100.216432">
<time>2016-08-13T11:59:20Z</time></trkpt>
<trkpt lat="25.848276" lon="100.216332">
<time>2016-08-13T11:59:21Z</time></trkpt>
<trkpt lat="25.848076" lon="100.216292">
<time>2016-08-13T11:59:22Z</time></trkpt>
<trkpt lat="25.847996" lon="100.216302">
<time>2016-08-13T11:59:23Z</time></trkpt>
<trkpt lat="25.847916" lon="100.216312">
<time>2016-08-13T11:59:24Z</time></trkpt>
<trkpt lat="25.847766" lon="100.216422">
<time>2016-08-13T11:59:25Z</time></trkpt>
<trkpt lat="25.847416" lon="100.216903">
<time>2016-08-13T11:59:26Z</time></trkpt>
<trkpt lat="25.846917" lon="100.217594">
<time>2016-08-13T11:59:27Z</time></trkpt>
<trkpt lat="25.846627" lon="100.217984">
<time>2016-08-13T11:59:28Z</time></trkpt>
<trkpt lat="25.846557" lon="100.218055">
<time>2016-08-13T11:59:29Z</time></trkpt>
<trkpt lat="25.846397" lon="100.218115">
<time>2016-08-13T11:59:30Z</time></trkpt>
<trkpt lat="25.846237" lon="100.218105">
<time>2016-08-13T11:59:31Z</time></trkpt>
<trkpt lat="25.846137" lon="100.218065">
<time>2016-08-13T11:59:32Z</time></trkpt>
<trkpt lat="25.846067" lon="100.218035">
<time>2016-08-13T11:59:33Z</time></trkpt>
<trkpt lat="25.845936" lon="100.217914">
<time>2016-08-13T11:59:34Z</time></trkpt>
<trkpt lat="25.845856" lon="100.217754">
<time>2016-08-13T11:59:35Z</time></trkpt>
<trkpt lat="25.845806" lon="100.217564">
<time>2016-08-13T11:59:36Z</time></trkpt>
<trkpt lat="25.845845" lon="100.216372">
<time>2016-08-13T11:59:37Z</time></trkpt>
<trkpt lat="25.845834" lon="100.216262">
<time>2016-08-13T11:59:38Z</time></trkpt>
<trkpt lat="25.845824" lon="100.216222">
<time>2016-08-13T11:59:39Z</time></trkpt>
<trkpt lat="25.845804" lon="100.216192">
<time>2016-08-13T11:59:40Z</time></trkpt>
<trkpt lat="25.845784" lon="100.216152">
<time>2016-08-13T11:59:41Z</time></trkpt>
<trkpt lat="25.845684" lon="100.216052">
<time>2016-08-13T11:59:42Z</time></trkpt>
<trkpt lat="25.845654" lon="100.216032">
<time>2016-08-13T11:59:43Z</time></trkpt>
<trkpt lat="25.845614" lon="100.216022">
<time>2016-08-13T11:59:44Z</time></trkpt>
<trkpt lat="25.845564" lon="100.216012">
<time>2016-08-13T11:59:45Z</time></trkpt>
<trkpt lat="25.845514" lon="100.216002">
<time>2016-08-13T11:59:46Z</time></trkpt>
<trkpt lat="25.845464" lon="100.216002">
<time>2016-08-13T11:59:47Z</time></trkpt>
<trkpt lat="25.845434" lon="100.216012">
<time>2016-08-13T11:59:48Z</time></trkpt>
<trkpt lat="25.845404" lon="100.216022">
<time>2016-08-13T11:59:49Z</time></trkpt>
<trkpt lat="25.844324" lon="100.216503">
<time>2016-08-13T11:59:50Z</time></trkpt>
<trkpt lat="25.843714" lon="100.216743">
<time>2016-08-13T11:59:51Z</time></trkpt>
<trkpt lat="25.843534" lon="100.216803">
<time>2016-08-13T11:59:52Z</time></trkpt>
<trkpt lat="25.843263" lon="100.216763">
<time>2016-08-13T11:59:53Z</time></trkpt>
<trkpt lat="25.842132" lon="100.216122">
<time>2016-08-13T11:59:54Z</time></trkpt>
<trkpt lat="25.842002" lon="100.216062">
<time>2016-08-13T11:59:55Z</time></trkpt>
<trkpt lat="25.841862" lon="100.216022">
<time>2016-08-13T11:59:56Z</time></trkpt>
<trkpt lat="25.841661" lon="100.216002">
<time>2016-08-13T11:59:57Z</time></trkpt>
<trkpt lat="25.841111" lon="100.215982">
<time>2016-08-13T11:59:58Z</time></trkpt>
<trkpt lat="25.841001" lon="100.215942">
<time>2016-08-13T11:59:59Z</time></trkpt>
<trkpt lat="25.840791" lon="100.215822">
<time>2016-08-13T12:00:00Z</time></trkpt>
<trkpt lat="25.84058" lon="100.215642">
<time>2016-08-13T12:00:01Z</time></trkpt>
<trkpt lat="25.84049" lon="100.215501">
<time>2016-08-13T12:00:02Z</time></trkpt>
<trkpt lat="25.84039" lon="100.215311">
<time>2016-08-13T12:00:03Z</time></trkpt>
<trkpt lat="25.840329" lon="100.215011">
<time>2016-08-13T12:00:04Z</time></trkpt>
<trkpt lat="25.840299" lon="100.21469">
<time>2016-08-13T12:00:05Z</time></trkpt>
<trkpt lat="25.840295" lon="100.211636">
<time>2016-08-13T12:00:06Z</time></trkpt>
<trkpt lat="25.840285" lon="100.211216">
<time>2016-08-13T12:00:07Z</time></trkpt>
<trkpt lat="25.840275" lon="100.211126">
<time>2016-08-13T12:00:08Z</time></trkpt>
<trkpt lat="25.840254" lon="100.211045">
<time>2016-08-13T12:00:09Z</time></trkpt>
<trkpt lat="25.840224" lon="100.210975">
<time>2016-08-13T12:00:10Z</time></trkpt>
<trkpt lat="25.840174" lon="100.210905">
<time>2016-08-13T12:00:11Z</time></trkpt>
<trkpt lat="25.840144" lon="100.210875">
<time>2016-08-13T12:00:12Z</time></trkpt>
<trkpt lat="25.840104" lon="100.210835">
<time>2016-08-13T12:00:13Z</time></trkpt>
<trkpt lat="25.840044" lon="100.210785">
<time>2016-08-13T12:00:14Z</time></trkpt>
<trkpt lat="25.839984" lon="100.210755">
<time>2016-08-13T12:00:15Z</time></trkpt>
<trkpt lat="25.839934" lon="100.210735">
<time>2016-08-13T12:00:16Z</time></trkpt>
<trkpt lat="25.839874" lon="100.210725">
<time>2016-08-13T12:00:17Z</time></trkpt>
<trkpt lat="25.839784" lon="100.210745">
<time>2016-08-13T12:00:18Z</time></trkpt>
<trkpt lat="25.839644" lon="100.210815">
<time>2016-08-13T12:00:19Z</time></trkpt>
<trkpt lat="25.839534" lon="100.210925">
<time>2016-08-13T12:00:20Z</time></trkpt>
<trkpt lat="25.839424" lon="100.211256">
<time>2016-08-13T12:00:21Z</time></trkpt>
<trkpt lat="25.839315" lon="100.211696">
<time>2016-08-13T12:00:22Z</time></trkpt>
<trkpt lat="25.839275" lon="100.211797">
<time>2016-08-13T12:00:23Z</time></trkpt>
<trkpt lat="25.839215" lon="100.211857">
<time>2016-08-13T12:00:24Z</time></trkpt>
<trkpt lat="25.839125" lon="100.211897">
<time>2016-08-13T12:00:25Z</time></trkpt>
<trkpt lat="25.839035" lon="100.211917">
<time>2016-08-13T12:00:26Z</time></trkpt>
<trkpt lat="25.838975" lon="100.211907">
<time>2016-08-13T12:00:27Z</time></trkpt>
<trkpt lat="25.838845" lon="100.211847">
<time>2016-08-13T12:00:28Z</time></trkpt>
<trkpt lat="25.838153" lon="100.211386">
<time>2016-08-13T12:00:29Z</time></trkpt>
<trkpt lat="25.837993" lon="100.211296">
<time>2016-08-13T12:00:30Z</time></trkpt>
<trkpt lat="25.837713" lon="100.211226">
<time>2016-08-13T12:00:31Z</time></trkpt>
<trkpt lat="25.837463" lon="100.211246">
<time>2016-08-13T12:00:32Z</time></trkpt>
<trkpt lat="25.837233" lon="100.211396">
<time>2016-08-13T12:00:33Z</time></trkpt>
<trkpt lat="25.836813" lon="100.211857">
<time>2016-08-13T12:00:34Z</time></trkpt>
<trkpt lat="25.836444" lon="100.212397">
<time>2016-08-13T12:00:35Z</time></trkpt>
<trkpt lat="25.836214" lon="100.213068">
<time>2016-08-13T12:00:36Z</time></trkpt>
<trkpt lat="25.836155" lon="100.213379">
<time>2016-08-13T12:00:37Z</time></trkpt>
<trkpt lat="25.836338" lon="100.216233">
<time>2016-08-13T12:00:38Z</time></trkpt>
<trkpt lat="25.836319" lon="100.216573">
<time>2016-08-13T12:00:39Z</time></trkpt>
<trkpt lat="25.836259" lon="100.216783">
<time>2016-08-13T12:00:40Z</time></trkpt>
<trkpt lat="25.836209" lon="100.216893">
<time>2016-08-13T12:00:41Z</time></trkpt>
<trkpt lat="25.836199" lon="100.216923">
<time>2016-08-13T12:00:42Z</time></trkpt>
<trkpt lat="25.836089" lon="100.217074">
<time>2016-08-13T12:00:43Z</time></trkpt>
<trkpt lat="25.835989" lon="100.217164">
<time>2016-08-13T12:00:44Z</time></trkpt>
<trkpt lat="25.835779" lon="100.217274">
<time>2016-08-13T12:00:45Z</time></trkpt>
<trkpt lat="25.834319" lon="100.217875">
<time>2016-08-13T12:00:46Z</time></trkpt>
<trkpt lat="25.833679" lon="100.218125">
<time>2016-08-13T12:00:47Z</time></trkpt>
<trkpt lat="25.833348" lon="100.218185">
<time>2016-08-13T12:00:48Z</time></trkpt>
<trkpt lat="25.833108" lon="100.218195">
<time>2016-08-13T12:00:49Z</time></trkpt>
<trkpt lat="25.832728" lon="100.218225">
<time>2016-08-13T12:00:50Z</time></trkpt>
<trkpt lat="25.832498" lon="100.218235">
<time>2016-08-13T12:00:51Z</time></trkpt>
<trkpt lat="25.832418" lon="100.218245">
<time>2016-08-13T12:00:52Z</time></trkpt>
<trkpt lat="25.832328" lon="100.218275">
<time>2016-08-13T12:00:53Z</time></trkpt>
<trkpt lat="25.832238" lon="100.218305">
<time>2016-08-13T12:00:54Z</time></trkpt>
<trkpt lat="25.832148" lon="100.218345">
<time>2016-08-13T12:00:55Z</time></trkpt>
<trkpt lat="25.832068" lon="100.218385">
<time>2016-08-13T12:00:56Z</time></trkpt>
<trkpt lat="25.831998" lon="100.218425">
<time>2016-08-13T12:00:57Z</time></trkpt>
<trkpt lat="25.831918" lon="100.218505">
<time>2016-08-13T12:00:58Z</time></trkpt>
<trkpt lat="25.831848" lon="100.218576">
<time>2016-08-13T12:00:59Z</time></trkpt>
<trkpt lat="25.831788" lon="100.218646">
<time>2016-08-13T12:01:00Z</time></trkpt>
<trkpt lat="25.831738" lon="100.218726">
<time>2016-08-13T12:01:01Z</time></trkpt>
<trkpt lat="25.831648" lon="100.218906">
<time>2016-08-13T12:01:02Z</time></trkpt>
<trkpt lat="25.831578" lon="100.219166">
<time>2016-08-13T12:01:03Z</time></trkpt>
<trkpt lat="25.831509" lon="100.219477">
<time>2016-08-13T12:01:04Z</time></trkpt>
<trkpt lat="25.831429" lon="100.219807">
<time>2016-08-13T12:01:05Z</time></trkpt>
<trkpt lat="25.831359" lon="100.220087">
<time>2016-08-13T12:01:06Z</time></trkpt>
<trkpt lat="25.831269" lon="100.220318">
<time>2016-08-13T12:01:07Z</time></trkpt>
<trkpt lat="25.831139" lon="100.220578">
<time>2016-08-13T12:01:08Z</time></trkpt>
<trkpt lat="25.83094" lon="100.220948">
<time>2016-08-13T12:01:09Z</time></trkpt>
<trkpt lat="25.83069" lon="100.221319">
<time>2016-08-13T12:01:10Z</time></trkpt>
<trkpt lat="25.83044" lon="100.221599">
<time>2016-08-13T12:01:11Z</time></trkpt>
<trkpt lat="25.82978" lon="100.22227">
<time>2016-08-13T12:01:12Z</time></trkpt>
<trkpt lat="25.82904" lon="100.22291">
<time>2016-08-13T12:01:13Z</time></trkpt>
<trkpt lat="25.82865" lon="100.223171">
<time>2016-08-13T12:01:14Z</time></trkpt>
<trkpt lat="25.82807" lon="100.223501">
<time>2016-08-13T12:01:15Z</time></trkpt>
<trkpt lat="25.82739" lon="100.223721">
<time>2016-08-13T12:01:16Z</time></trkpt>
<trkpt lat="25.82707" lon="100.223831">
<time>2016-08-13T12:01:17Z</time></trkpt>
<trkpt lat="25.82684" lon="100.223921">
<time>2016-08-13T12:01:18Z</time></trkpt>
<trkpt lat="25.82658" lon="100.224102">
<time>2016-08-13T12:01:19Z</time></trkpt>
<trkpt lat="25.8264" lon="100.224242">
<time>2016-08-13T12:01:20Z</time></trkpt>
<trkpt lat="25.8264" lon="100.224242">
<time>2016-08-13T12:01:21Z</time></trkpt>
<trkpt lat="25.82675" lon="100.224642">
<time>2016-08-13T12:01:22Z</time></trkpt>
<trkpt lat="25.826821" lon="100.224702">
<time>2016-08-13T12:01:23Z</time></trkpt>
<trkpt lat="25.826851" lon="100.224742">
<time>2016-08-13T12:01:24Z</time></trkpt>
<trkpt lat="25.826911" lon="100.224802">
<time>2016-08-13T12:01:25Z</time></trkpt>
<trkpt lat="25.826911" lon="100.224802">
<time>2016-08-13T12:01:26Z</time></trkpt>
<trkpt lat="25.826991" lon="100.224772">
<time>2016-08-13T12:01:27Z</time></trkpt>
<trkpt lat="25.827081" lon="100.224732">
<time>2016-08-13T12:01:28Z</time></trkpt>
<trkpt lat="25.827261" lon="100.224652">
<time>2016-08-13T12:01:29Z</time></trkpt>
<trkpt lat="25.827431" lon="100.224582">
<time>2016-08-13T12:01:30Z</time></trkpt>
<trkpt lat="25.827641" lon="100.224512">
<time>2016-08-13T12:01:31Z</time></trkpt>
<trkpt lat="25.828431" lon="100.224262">
<time>2016-08-13T12:01:32Z</time></trkpt>
<trkpt lat="25.828621" lon="100.224232">
<time>2016-08-13T12:01:33Z</time></trkpt>
<trkpt lat="25.828721" lon="100.224212">
<time>2016-08-13T12:01:34Z</time></trkpt>
<trkpt lat="25.828861" lon="100.224192">
<time>2016-08-13T12:01:35Z</time></trkpt>
<trkpt lat="25.829012" lon="100.224182">
<time>2016-08-13T12:01:36Z</time></trkpt>
<trkpt lat="25.829332" lon="100.224152">
<time>2016-08-13T12:01:37Z</time></trkpt>
<trkpt lat="25.829472" lon="100.224112">
<time>2016-08-13T12:01:38Z</time></trkpt>
<trkpt lat="25.829812" lon="100.224041">
<time>2016-08-13T12:01:39Z</time></trkpt>
<trkpt lat="25.830102" lon="100.223911">
<time>2016-08-13T12:01:40Z</time></trkpt>
<trkpt lat="25.830422" lon="100.223721">
<time>2016-08-13T12:01:41Z</time></trkpt>
<trkpt lat="25.830482" lon="100.223711">
<time>2016-08-13T12:01:42Z</time></trkpt>
<trkpt lat="25.830702" lon="100.223711">
<time>2016-08-13T12:01:43Z</time></trkpt>
<trkpt lat="25.830752" lon="100.223711">
<time>2016-08-13T12:01:44Z</time></trkpt>
<trkpt lat="25.830872" lon="100.223611">
<time>2016-08-13T12:01:45Z</time></trkpt>
<trkpt lat="25.830982" lon="100.223511">
<time>2016-08-13T12:01:46Z</time></trkpt>
<trkpt lat="25.830982" lon="100.223511">
<time>2016-08-13T12:01:47Z</time></trkpt>
<trkpt lat="25.831062" lon="100.223641">
<time>2016-08-13T12:01:48Z</time></trkpt>
<trkpt lat="25.831163" lon="100.223801">
<time>2016-08-13T12:01:49Z</time></trkpt>
<trkpt lat="25.831583" lon="100.224312">
<time>2016-08-13T12:01:50Z</time></trkpt>
<trkpt lat="25.831864" lon="100.224682">
<time>2016-08-13T12:01:51Z</time></trkpt>
<trkpt lat="25.832094" lon="100.225042">
<time>2016-08-13T12:01:52Z</time></trkpt>
<trkpt lat="25.832325" lon="100.225403">
<time>2016-08-13T12:01:53Z</time></trkpt>
<trkpt lat="25.832605" lon="100.225863">
<time>2016-08-13T12:01:54Z</time></trkpt>
<trkpt lat="25.832906" lon="100.226324">
<time>2016-08-13T12:01:55Z</time></trkpt>
<trkpt lat="25.833006" lon="100.226494">
<time>2016-08-13T12:01:56Z</time></trkpt>
<trkpt lat="25.833347" lon="100.227004">
<time>2016-08-13T12:01:57Z</time></trkpt>
<trkpt lat="25.833357" lon="100.227004">
<time>2016-08-13T12:01:58Z</time></trkpt>
<trkpt lat="25.833587" lon="100.227354">
<time>2016-08-13T12:01:59Z</time></trkpt>
<trkpt lat="25.833828" lon="100.227715">
<time>2016-08-13T12:02:00Z</time></trkpt>
<trkpt lat="25.833938" lon="100.227895">
<time>2016-08-13T12:02:01Z</time></trkpt>
<trkpt lat="25.834298" lon="100.228415">
<time>2016-08-13T12:02:02Z</time></trkpt>
<trkpt lat="25.834609" lon="100.228876">
<time>2016-08-13T12:02:03Z</time></trkpt>
<trkpt lat="25.83501" lon="100.229446">
<time>2016-08-13T12:02:04Z</time></trkpt>
<trkpt lat="25.83526" lon="100.229816">
<time>2016-08-13T12:02:05Z</time></trkpt>
<trkpt lat="25.835581" lon="100.230277">
<time>2016-08-13T12:02:06Z</time></trkpt>
<trkpt lat="25.835651" lon="100.230397">
<time>2016-08-13T12:02:07Z</time></trkpt>
<trkpt lat="25.835881" lon="100.230747">
<time>2016-08-13T12:02:08Z</time></trkpt>
<trkpt lat="25.836051" lon="100.231007">
<time>2016-08-13T12:02:09Z</time></trkpt>
<trkpt lat="25.836302" lon="100.231367">
<time>2016-08-13T12:02:10Z</time></trkpt>
<trkpt lat="25.836482" lon="100.231698">
<time>2016-08-13T12:02:11Z</time></trkpt>
<trkpt lat="25.836672" lon="100.232008">
<time>2016-08-13T12:02:12Z</time></trkpt>
<trkpt lat="25.837013" lon="100.232458">
<time>2016-08-13T12:02:13Z</time></trkpt>
<trkpt lat="25.837233" lon="100.232828">
<time>2016-08-13T12:02:14Z</time></trkpt>
<trkpt lat="25.837384" lon="100.233109">
<time>2016-08-13T12:02:15Z</time></trkpt>
<trkpt lat="25.837594" lon="100.233519">
<time>2016-08-13T12:02:16Z</time></trkpt>
<trkpt lat="25.837634" lon="100.233609">
<time>2016-08-13T12:02:17Z</time></trkpt>
<trkpt lat="25.837704" lon="100.233759">
<time>2016-08-13T12:02:18Z</time></trkpt>
<trkpt lat="25.837884" lon="100.234009">
<time>2016-08-13T12:02:19Z</time></trkpt>
<trkpt lat="25.838105" lon="100.234209">
<time>2016-08-13T12:02:20Z</time></trkpt>
<trkpt lat="25.838305" lon="100.234339">
<time>2016-08-13T12:02:21Z</time></trkpt>
<trkpt lat="25.838485" lon="100.234399">
<time>2016-08-13T12:02:22Z</time></trkpt>
<trkpt lat="25.838505" lon="100.234409">
<time>2016-08-13T12:02:23Z</time></trkpt>
<trkpt lat="25.838765" lon="100.234479">
<time>2016-08-13T12:02:24Z</time></trkpt>
<trkpt lat="25.839035" lon="100.234599">
<time>2016-08-13T12:02:25Z</time></trkpt>
<trkpt lat="25.839226" lon="100.23474">
<time>2016-08-13T12:02:26Z</time></trkpt>
<trkpt lat="25.839356" lon="100.23489">
<time>2016-08-13T12:02:27Z</time></trkpt>
<trkpt lat="25.839486" lon="100.23507">
<time>2016-08-13T12:02:28Z</time></trkpt>
<trkpt lat="25.839756" lon="100.23541">
<time>2016-08-13T12:02:29Z</time></trkpt>
<trkpt lat="25.840097" lon="100.23578">
<time>2016-08-13T12:02:30Z</time></trkpt>
<trkpt lat="25.840467" lon="100.23617">
<time>2016-08-13T12:02:31Z</time></trkpt>
<trkpt lat="25.840647" lon="100.23636">
<time>2016-08-13T12:02:32Z</time></trkpt>
<trkpt lat="25.840798" lon="100.23652">
<time>2016-08-13T12:02:33Z</time></trkpt>
<trkpt lat="25.841038" lon="100.236851">
<time>2016-08-13T12:02:34Z</time></trkpt>
<trkpt lat="25.841418" lon="100.237321">
<time>2016-08-13T12:02:35Z</time></trkpt>
<trkpt lat="25.841468" lon="100.237371">
<time>2016-08-13T12:02:36Z</time></trkpt>
<trkpt lat="25.841568" lon="100.237451">
<time>2016-08-13T12:02:37Z</time></trkpt>
<trkpt lat="25.841689" lon="100.237561">
<time>2016-08-13T12:02:38Z</time></trkpt>
<trkpt lat="25.842179" lon="100.237861">
<time>2016-08-13T12:02:39Z</time></trkpt>
<trkpt lat="25.842379" lon="100.238011">
<time>2016-08-13T12:02:40Z</time></trkpt>
<trkpt lat="25.84278" lon="100.238501">
<time>2016-08-13T12:02:41Z</time></trkpt>
<trkpt lat="25.84281" lon="100.238571">
<time>2016-08-13T12:02:42Z</time></trkpt>
<trkpt lat="25.84289" lon="100.238661">
<time>2016-08-13T12:02:43Z</time></trkpt>
<trkpt lat="25.84348" lon="100.239392">
<time>2016-08-13T12:02:44Z</time></trkpt>
<trkpt lat="25.843641" lon="100.239632">
<time>2016-08-13T12:02:45Z</time></trkpt>
<trkpt lat="25.843701" lon="100.239832">
<time>2016-08-13T12:02:46Z</time></trkpt>
<trkpt lat="25.843711" lon="100.239922">
<time>2016-08-13T12:02:47Z</time></trkpt>
<trkpt lat="25.843701" lon="100.240292">
<time>2016-08-13T12:02:48Z</time></trkpt>
<trkpt lat="25.843701" lon="100.240332">
<time>2016-08-13T12:02:49Z</time></trkpt>
<trkpt lat="25.843761" lon="100.240902">
<time>2016-08-13T12:02:50Z</time></trkpt>
<trkpt lat="25.843741" lon="100.241432">
<time>2016-08-13T12:02:51Z</time></trkpt>
<trkpt lat="25.843741" lon="100.241622">
<time>2016-08-13T12:02:52Z</time></trkpt>
<trkpt lat="25.843701" lon="100.241832">
<time>2016-08-13T12:02:53Z</time></trkpt>
<trkpt lat="25.843531" lon="100.242413">
<time>2016-08-13T12:02:54Z</time></trkpt>
<trkpt lat="25.843401" lon="100.242773">
<time>2016-08-13T12:02:55Z</time></trkpt>
<trkpt lat="25.843321" lon="100.243023">
<time>2016-08-13T12:02:56Z</time></trkpt>
<trkpt lat="25.843281" lon="100.243323">
<time>2016-08-13T12:02:57Z</time></trkpt>
<trkpt lat="25.843281" lon="100.243473">
<time>2016-08-13T12:02:58Z</time></trkpt>
<trkpt lat="25.843342" lon="100.243763">
<time>2016-08-13T12:02:59Z</time></trkpt>
<trkpt lat="25.843512" lon="100.244313">
<time>2016-08-13T12:03:00Z</time></trkpt>
<trkpt lat="25.843672" lon="100.244853">
<time>2016-08-13T12:03:01Z</time></trkpt>
<trkpt lat="25.843792" lon="100.245233">
<time>2016-08-13T12:03:02Z</time></trkpt>
<trkpt lat="25.843952" lon="100.245703">
<time>2016-08-13T12:03:03Z</time></trkpt>
<trkpt lat="25.844142" lon="100.246283">
<time>2016-08-13T12:03:04Z</time></trkpt>
<trkpt lat="25.844303" lon="100.246653">
<time>2016-08-13T12:03:05Z</time></trkpt>
<trkpt lat="25.844393" lon="100.246903">
<time>2016-08-13T12:03:06Z</time></trkpt>
<trkpt lat="25.844533" lon="100.247403">
<time>2016-08-13T12:03:07Z</time></trkpt>
<trkpt lat="25.844693" lon="100.247913">
<time>2016-08-13T12:03:08Z</time></trkpt>
<trkpt lat="25.844743" lon="100.248313">
<time>2016-08-13T12:03:09Z</time></trkpt>
<trkpt lat="25.844763" lon="100.248833">
<time>2016-08-13T12:03:10Z</time></trkpt>
<trkpt lat="25.844773" lon="100.249143">
<time>2016-08-13T12:03:11Z</time></trkpt>
<trkpt lat="25.844793" lon="100.249373">
<time>2016-08-13T12:03:12Z</time></trkpt>
<trkpt lat="25.844793" lon="100.249373">
<time>2016-08-13T12:03:13Z</time></trkpt>
<trkpt lat="25.844923" lon="100.249463">
<time>2016-08-13T12:03:14Z</time></trkpt>
<trkpt lat="25.845083" lon="100.249463">
<time>2016-08-13T12:03:15Z</time></trkpt>
<trkpt lat="25.845453" lon="100.249293">
<time>2016-08-13T12:03:16Z</time></trkpt>
<trkpt lat="25.845904" lon="100.249083">
<time>2016-08-13T12:03:17Z</time></trkpt>
<trkpt lat="25.846334" lon="100.248883">
<time>2016-08-13T12:03:18Z</time></trkpt>
<trkpt lat="25.846544" lon="100.248773">
<time>2016-08-13T12:03:19Z</time></trkpt>
<trkpt lat="25.846754" lon="100.248673">
<time>2016-08-13T12:03:20Z</time></trkpt>
<trkpt lat="25.846974" lon="100.248583">
<time>2016-08-13T12:03:21Z</time></trkpt>
<trkpt lat="25.847505" lon="100.248403">
<time>2016-08-13T12:03:22Z</time></trkpt>
<trkpt lat="25.847695" lon="100.248343">
<time>2016-08-13T12:03:23Z</time></trkpt>
<trkpt lat="25.847965" lon="100.248283">
<time>2016-08-13T12:03:24Z</time></trkpt>
<trkpt lat="25.848095" lon="100.248253">
<time>2016-08-13T12:03:25Z</time></trkpt>
<trkpt lat="25.848235" lon="100.248233">
<time>2016-08-13T12:03:26Z</time></trkpt>
<trkpt lat="25.848716" lon="100.248193">
<time>2016-08-13T12:03:27Z</time></trkpt>
<trkpt lat="25.849396" lon="100.248163">
<time>2016-08-13T12:03:28Z</time></trkpt>
<trkpt lat="25.849496" lon="100.248153">
<time>2016-08-13T12:03:29Z</time></trkpt>
<trkpt lat="25.849656" lon="100.248113">
<time>2016-08-13T12:03:30Z</time></trkpt>
<trkpt lat="25.849726" lon="100.248103">
<time>2016-08-13T12:03:31Z</time></trkpt>
<trkpt lat="25.850157" lon="100.248083">
<time>2016-08-13T12:03:32Z</time></trkpt>
<trkpt lat="25.850217" lon="100.248073">
<time>2016-08-13T12:03:33Z</time></trkpt>
<trkpt lat="25.850247" lon="100.248063">
<time>2016-08-13T12:03:34Z</time></trkpt>
<trkpt lat="25.850277" lon="100.248043">
<time>2016-08-13T12:03:35Z</time></trkpt>
<trkpt lat="25.850397" lon="100.247963">
<time>2016-08-13T12:03:36Z</time></trkpt>
<trkpt lat="25.850767" lon="100.247773">
<time>2016-08-13T12:03:37Z</time></trkpt>
<trkpt lat="25.851677" lon="100.245693">
<time>2016-08-13T12:03:38Z</time></trkpt>
<trkpt lat="25.853388" lon="100.242672">
<time>2016-08-13T12:03:39Z</time></trkpt>
<trkpt lat="25.853388" lon="100.242672">
<time>2016-08-13T12:03:40Z</time></trkpt>
<trkpt lat="25.854449" lon="100.243673">
<time>2016-08-13T12:03:41Z</time></trkpt>
<trkpt lat="25.854859" lon="100.244043">
<time>2016-08-13T12:03:42Z</time></trkpt>
<trkpt lat="25.855079" lon="100.244273">
<time>2016-08-13T12:03:43Z</time></trkpt>
<trkpt lat="25.85527" lon="100.244513">
<time>2016-08-13T12:03:44Z</time></trkpt>
<trkpt lat="25.85561" lon="100.245073">
<time>2016-08-13T12:03:45Z</time></trkpt>
<trkpt lat="25.8561" lon="100.245983">
<time>2016-08-13T12:03:46Z</time></trkpt>
<trkpt lat="25.856751" lon="100.247133">
<time>2016-08-13T12:03:47Z</time></trkpt>
<trkpt lat="25.857231" lon="100.247993">
<time>2016-08-13T12:03:48Z</time></trkpt>
<trkpt lat="25.857632" lon="100.248683">
<time>2016-08-13T12:03:49Z</time></trkpt>
<trkpt lat="25.857742" lon="100.248893">
<time>2016-08-13T12:03:50Z</time></trkpt>
<trkpt lat="25.857912" lon="100.249023">
<time>2016-08-13T12:03:51Z</time></trkpt>
<trkpt lat="25.858022" lon="100.249063">
<time>2016-08-13T12:03:52Z</time></trkpt>
<trkpt lat="25.858382" lon="100.249103">
<time>2016-08-13T12:03:53Z</time></trkpt>
<trkpt lat="25.858712" lon="100.249203">
<time>2016-08-13T12:03:54Z</time></trkpt>
<trkpt lat="25.859142" lon="100.249453">
<time>2016-08-13T12:03:55Z</time></trkpt>
<trkpt lat="25.859663" lon="100.249663">
<time>2016-08-13T12:03:56Z</time></trkpt>
<trkpt lat="25.860133" lon="100.249753">
<time>2016-08-13T12:03:57Z</time></trkpt>
<trkpt lat="25.861034" lon="100.249963">
<time>2016-08-13T12:03:58Z</time></trkpt>
<trkpt lat="25.861204" lon="100.250023">
<time>2016-08-13T12:03:59Z</time></trkpt>
<trkpt lat="25.861324" lon="100.250053">
<time>2016-08-13T12:04:00Z</time></trkpt>
<trkpt lat="25.861534" lon="100.250123">
<time>2016-08-13T12:04:01Z</time></trkpt>
<trkpt lat="25.861854" lon="100.250233">
<time>2016-08-13T12:04:02Z</time></trkpt>
<trkpt lat="25.862215" lon="100.250423">
<time>2016-08-13T12:04:03Z</time></trkpt>
<trkpt lat="25.862475" lon="100.250573">
<time>2016-08-13T12:04:04Z</time></trkpt>
<trkpt lat="25.862725" lon="100.250753">
<time>2016-08-13T12:04:05Z</time></trkpt>
<trkpt lat="25.862975" lon="100.250923">
<time>2016-08-13T12:04:06Z</time></trkpt>
<trkpt lat="25.863225" lon="100.251083">
<time>2016-08-13T12:04:07Z</time></trkpt>
<trkpt lat="25.863415" lon="100.251153">
<time>2016-08-13T12:04:08Z</time></trkpt>
<trkpt lat="25.863605" lon="100.251212">
<time>2016-08-13T12:04:09Z</time></trkpt>
<trkpt lat="25.863816" lon="100.251282">
<time>2016-08-13T12:04:10Z</time></trkpt>
<trkpt lat="25.863946" lon="100.251372">
<time>2016-08-13T12:04:11Z</time></trkpt>
<trkpt lat="25.864126" lon="100.251512">
<time>2016-08-13T12:04:12Z</time></trkpt>
<trkpt lat="25.864326" lon="100.251682">
<time>2016-08-13T12:04:13Z</time></trkpt>
<trkpt lat="25.864506" lon="100.251832">
<time>2016-08-13T12:04:14Z</time></trkpt>
<trkpt lat="25.864776" lon="100.252022">
<time>2016-08-13T12:04:15Z</time></trkpt>
<trkpt lat="25.865026" lon="100.252162">
<time>2016-08-13T12:04:16Z</time></trkpt>
<trkpt lat="25.865266" lon="100.252352">
<time>2016-08-13T12:04:17Z</time></trkpt>
<trkpt lat="25.865436" lon="100.252452">
<time>2016-08-13T12:04:18Z</time></trkpt>
<trkpt lat="25.865577" lon="100.252512">
<time>2016-08-13T12:04:19Z</time></trkpt>
<trkpt lat="25.865837" lon="100.252562">
<time>2016-08-13T12:04:20Z</time></trkpt>
<trkpt lat="25.866027" lon="100.252592">
<time>2016-08-13T12:04:21Z</time></trkpt>
<trkpt lat="25.866207" lon="100.252642">
<time>2016-08-13T12:04:22Z</time></trkpt>
<trkpt lat="25.866377" lon="100.252712">
<time>2016-08-13T12:04:23Z</time></trkpt>
<trkpt lat="25.866637" lon="100.252842">
<time>2016-08-13T12:04:24Z</time></trkpt>
<trkpt lat="25.866757" lon="100.252942">
<time>2016-08-13T12:04:25Z</time></trkpt>
<trkpt lat="25.866857" lon="100.253042">
<time>2016-08-13T12:04:26Z</time></trkpt>
<trkpt lat="25.867117" lon="100.253402">
<time>2016-08-13T12:04:27Z</time></trkpt>
<trkpt lat="25.867338" lon="100.253692">
<time>2016-08-13T12:04:28Z</time></trkpt>
<trkpt lat="25.867398" lon="100.253832">
<time>2016-08-13T12:04:29Z</time></trkpt>
<trkpt lat="25.867488" lon="100.254122">
<time>2016-08-13T12:04:30Z</time></trkpt>
<trkpt lat="25.867558" lon="100.254332">
<time>2016-08-13T12:04:31Z</time></trkpt>
<trkpt lat="25.867658" lon="100.254632">
<time>2016-08-13T12:04:32Z</time></trkpt>
<trkpt lat="25.867758" lon="100.254972">
<time>2016-08-13T12:04:33Z</time></trkpt>
<trkpt lat="25.867838" lon="100.255261">
<time>2016-08-13T12:04:34Z</time></trkpt>
<trkpt lat="25.867887" lon="100.255401">
<time>2016-08-13T12:04:35Z</time></trkpt>
<trkpt lat="25.867958" lon="100.255491">
<time>2016-08-13T12:04:36Z</time></trkpt>
<trkpt lat="25.868098" lon="100.255631">
<time>2016-08-13T12:04:37Z</time></trkpt>
<trkpt lat="25.868288" lon="100.255781">
<time>2016-08-13T12:04:38Z</time></trkpt>
<trkpt lat="25.868978" lon="100.256251">
<time>2016-08-13T12:04:39Z</time></trkpt>
<trkpt lat="25.869158" lon="100.256411">
<time>2016-08-13T12:04:40Z</time></trkpt>
<trkpt lat="25.869308" lon="100.256511">
<time>2016-08-13T12:04:41Z</time></trkpt>
<trkpt lat="25.869468" lon="100.256571">
<time>2016-08-13T12:04:42Z</time></trkpt>
<trkpt lat="25.869818" lon="100.256631">
<time>2016-08-13T12:04:43Z</time></trkpt>
<trkpt lat="25.869979" lon="100.256691">
<time>2016-08-13T12:04:44Z</time></trkpt>
<trkpt lat="25.870479" lon="100.256911">
<time>2016-08-13T12:04:45Z</time></trkpt>
<trkpt lat="25.870649" lon="100.256991">
<time>2016-08-13T12:04:46Z</time></trkpt>
<trkpt lat="25.871159" lon="100.257251">
<time>2016-08-13T12:04:47Z</time></trkpt>
<trkpt lat="25.871339" lon="100.257321">
<time>2016-08-13T12:04:48Z</time></trkpt>
<trkpt lat="25.871519" lon="100.257361">
<time>2016-08-13T12:04:49Z</time></trkpt>
<trkpt lat="25.871709" lon="100.257361">
<time>2016-08-13T12:04:50Z</time></trkpt>
<trkpt lat="25.87206" lon="100.257331">
<time>2016-08-13T12:04:51Z</time></trkpt>
<trkpt lat="25.87247" lon="100.257271">
<time>2016-08-13T12:04:52Z</time></trkpt>
<trkpt lat="25.87278" lon="100.257231">
<time>2016-08-13T12:04:53Z</time></trkpt>
<trkpt lat="25.87295" lon="100.257191">
<time>2016-08-13T12:04:54Z</time></trkpt>
<trkpt lat="25.873381" lon="100.257081">
<time>2016-08-13T12:04:55Z</time></trkpt>
<trkpt lat="25.873541" lon="100.257051">
<time>2016-08-13T12:04:56Z</time></trkpt>
<trkpt lat="25.873701" lon="100.257061">
<time>2016-08-13T12:04:57Z</time></trkpt>
<trkpt lat="25.873841" lon="100.257111">
<time>2016-08-13T12:04:58Z</time></trkpt>
<trkpt lat="25.874111" lon="100.257311">
<time>2016-08-13T12:04:59Z</time></trkpt>
<trkpt lat="25.874171" lon="100.257381">
<time>2016-08-13T12:05:00Z</time></trkpt>
<trkpt lat="25.874171" lon="100.257381">
<time>2016-08-13T12:05:01Z</time></trkpt>
<trkpt lat="25.874211" lon="100.257431">
<time>2016-08-13T12:05:02Z</time></trkpt>
<trkpt lat="25.874261" lon="100.257531">
<time>2016-08-13T12:05:03Z</time></trkpt>
<trkpt lat="25.874501" lon="100.2581">
<time>2016-08-13T12:05:04Z</time></trkpt>
<trkpt lat="25.874561" lon="100.25826">
<time>2016-08-13T12:05:05Z</time></trkpt>
<trkpt lat="25.874561" lon="100.25834">
<time>2016-08-13T12:05:06Z</time></trkpt>
<trkpt lat="25.874551" lon="100.2584">
<time>2016-08-13T12:05:07Z</time></trkpt>
<trkpt lat="25.874461" lon="100.2585">
<time>2016-08-13T12:05:08Z</time></trkpt>
<trkpt lat="25.874051" lon="100.2588">
<time>2016-08-13T12:05:09Z</time></trkpt>
<trkpt lat="25.87396" lon="100.25888">
<time>2016-08-13T12:05:10Z</time></trkpt>
<trkpt lat="25.8739" lon="100.25898">
<time>2016-08-13T12:05:11Z</time></trkpt>
<trkpt lat="25.87391" lon="100.25911">
<time>2016-08-13T12:05:12Z</time></trkpt>
<trkpt lat="25.87395" lon="100.25925">
<time>2016-08-13T12:05:13Z</time></trkpt>
<trkpt lat="25.87406" lon="100.25957">
<time>2016-08-13T12:05:14Z</time></trkpt>
<trkpt lat="25.87419" lon="100.260019">
<time>2016-08-13T12:05:15Z</time></trkpt>
<trkpt lat="25.87427" lon="100.260249">
<time>2016-08-13T12:05:16Z</time></trkpt>
<trkpt lat="25.87433" lon="100.260409">
<time>2016-08-13T12:05:17Z</time></trkpt>
<trkpt lat="25.87442" lon="100.260559">
<time>2016-08-13T12:05:18Z</time></trkpt>
<trkpt lat="25.87474" lon="100.260969">
<time>2016-08-13T12:05:19Z</time></trkpt>
<trkpt lat="25.87505" lon="100.261349">
<time>2016-08-13T12:05:20Z</time></trkpt>
<trkpt lat="25.87534" lon="100.261569">
<time>2016-08-13T12:05:21Z</time></trkpt>
<trkpt lat="25.87569" lon="100.261808">
<time>2016-08-13T12:05:22Z</time></trkpt>
<trkpt lat="25.87596" lon="100.261898">
<time>2016-08-13T12:05:23Z</time></trkpt>
<trkpt lat="25.876231" lon="100.261958">
<time>2016-08-13T12:05:24Z</time></trkpt>
<trkpt lat="25.876481" lon="100.261978">
<time>2016-08-13T12:05:25Z</time></trkpt>
<trkpt lat="25.876781" lon="100.261988">
<time>2016-08-13T12:05:26Z</time></trkpt>
<trkpt lat="25.877161" lon="100.262008">
<time>2016-08-13T12:05:27Z</time></trkpt>
<trkpt lat="25.877511" lon="100.262008">
<time>2016-08-13T12:05:28Z</time></trkpt>
<trkpt lat="25.877822" lon="100.262028">
<time>2016-08-13T12:05:29Z</time></trkpt>
<trkpt lat="25.878372" lon="100.262138">
<time>2016-08-13T12:05:30Z</time></trkpt>
<trkpt lat="25.878912" lon="100.262248">
<time>2016-08-13T12:05:31Z</time></trkpt>
<trkpt lat="25.879252" lon="100.262348">
<time>2016-08-13T12:05:32Z</time></trkpt>
<trkpt lat="25.879723" lon="100.262558">
<time>2016-08-13T12:05:33Z</time></trkpt>
<trkpt lat="25.880203" lon="100.262798">
<time>2016-08-13T12:05:34Z</time></trkpt>
<trkpt lat="25.880383" lon="100.262878">
<time>2016-08-13T12:05:35Z</time></trkpt>
<trkpt lat="25.880913" lon="100.263068">
<time>2016-08-13T12:05:36Z</time></trkpt>
<trkpt lat="25.881063" lon="100.263147">
<time>2016-08-13T12:05:37Z</time></trkpt>
<trkpt lat="25.881333" lon="100.263337">
<time>2016-08-13T12:05:38Z</time></trkpt>
<trkpt lat="25.881723" lon="100.263667">
<time>2016-08-13T12:05:39Z</time></trkpt>
<trkpt lat="25.881883" lon="100.263767">
<time>2016-08-13T12:05:40Z</time></trkpt>
<trkpt lat="25.882394" lon="100.263967">
<time>2016-08-13T12:05:41Z</time></trkpt>
<trkpt lat="25.882584" lon="100.264087">
<time>2016-08-13T12:05:42Z</time></trkpt>
<trkpt lat="25.882754" lon="100.264157">
<time>2016-08-13T12:05:43Z</time></trkpt>
<trkpt lat="25.883104" lon="100.264257">
<time>2016-08-13T12:05:44Z</time></trkpt>
<trkpt lat="25.883284" lon="100.264287">
<time>2016-08-13T12:05:45Z</time></trkpt>
<trkpt lat="25.883484" lon="100.264307">
<time>2016-08-13T12:05:46Z</time></trkpt>
<trkpt lat="25.883835" lon="100.264307">
<time>2016-08-13T12:05:47Z</time></trkpt>
<trkpt lat="25.884005" lon="100.264307">
<time>2016-08-13T12:05:48Z</time></trkpt>
<trkpt lat="25.884225" lon="100.264307">
<time>2016-08-13T12:05:49Z</time></trkpt>
<trkpt lat="25.884515" lon="100.264297">
<time>2016-08-13T12:05:50Z</time></trkpt>
<trkpt lat="25.884895" lon="100.264307">
<time>2016-08-13T12:05:51Z</time></trkpt>
<trkpt lat="25.885075" lon="100.264297">
<time>2016-08-13T12:05:52Z</time></trkpt>
<trkpt lat="25.885596" lon="100.264257">
<time>2016-08-13T12:05:53Z</time></trkpt>
<trkpt lat="25.886136" lon="100.264207">
<time>2016-08-13T12:05:54Z</time></trkpt>
<trkpt lat="25.886657" lon="100.264147">
<time>2016-08-13T12:05:55Z</time></trkpt>
<trkpt lat="25.886807" lon="100.264137">
<time>2016-08-13T12:05:56Z</time></trkpt>
<trkpt lat="25.886957" lon="100.264157">
<time>2016-08-13T12:05:57Z</time></trkpt>
<trkpt lat="25.887097" lon="100.264217">
<time>2016-08-13T12:05:58Z</time></trkpt>
<trkpt lat="25.887217" lon="100.264297">
<time>2016-08-13T12:05:59Z</time></trkpt>
<trkpt lat="25.887607" lon="100.264646">
<time>2016-08-13T12:06:00Z</time></trkpt>
<trkpt lat="25.887747" lon="100.264726">
<time>2016-08-13T12:06:01Z</time></trkpt>
<trkpt lat="25.887897" lon="100.264776">
<time>2016-08-13T12:06:02Z</time></trkpt>
<trkpt lat="25.888067" lon="100.264806">
<time>2016-08-13T12:06:03Z</time></trkpt>
<trkpt lat="25.888617" lon="100.264926">
<time>2016-08-13T12:06:04Z</time></trkpt>
<trkpt lat="25.889198" lon="100.265046">
<time>2016-08-13T12:06:05Z</time></trkpt>
<trkpt lat="25.889558" lon="100.265106">
<time>2016-08-13T12:06:06Z</time></trkpt>
<trkpt lat="25.890088" lon="100.265206">
<time>2016-08-13T12:06:07Z</time></trkpt>
<trkpt lat="25.890438" lon="100.265276">
<time>2016-08-13T12:06:08Z</time></trkpt>
<trkpt lat="25.890819" lon="100.265346">
<time>2016-08-13T12:06:09Z</time></trkpt>
<trkpt lat="25.891189" lon="100.265416">
<time>2016-08-13T12:06:10Z</time></trkpt>
<trkpt lat="25.891359" lon="100.265476">
<time>2016-08-13T12:06:11Z</time></trkpt>
<trkpt lat="25.891869" lon="100.265685">
<time>2016-08-13T12:06:12Z</time></trkpt>
<trkpt lat="25.892019" lon="100.265765">
<time>2016-08-13T12:06:13Z</time></trkpt>
<trkpt lat="25.892309" lon="100.265985">
<time>2016-08-13T12:06:14Z</time></trkpt>
<trkpt lat="25.892459" lon="100.266075">
<time>2016-08-13T12:06:15Z</time></trkpt>
<trkpt lat="25.892919" lon="100.266275">
<time>2016-08-13T12:06:16Z</time></trkpt>
<trkpt lat="25.893069" lon="100.266375">
<time>2016-08-13T12:06:17Z</time></trkpt>
<trkpt lat="25.89337" lon="100.266615">
<time>2016-08-13T12:06:18Z</time></trkpt>
<trkpt lat="25.89368" lon="100.266854">
<time>2016-08-13T12:06:19Z</time></trkpt>
<trkpt lat="25.89388" lon="100.266974">
<time>2016-08-13T12:06:20Z</time></trkpt>
<trkpt lat="25.8942" lon="100.267224">
<time>2016-08-13T12:06:21Z</time></trkpt>
<trkpt lat="25.89438" lon="100.267314">
<time>2016-08-13T12:06:22Z</time></trkpt>
<trkpt lat="25.89454" lon="100.267414">
<time>2016-08-13T12:06:23Z</time></trkpt>
<trkpt lat="25.89469" lon="100.267524">
<time>2016-08-13T12:06:24Z</time></trkpt>
<trkpt lat="25.89482" lon="100.267654">
<time>2016-08-13T12:06:25Z</time></trkpt>
<trkpt lat="25.89507" lon="100.267974">
<time>2016-08-13T12:06:26Z</time></trkpt>
<trkpt lat="25.89517" lon="100.268153">
<time>2016-08-13T12:06:27Z</time></trkpt>
<trkpt lat="25.89543" lon="100.268453">
<time>2016-08-13T12:06:28Z</time></trkpt>
<trkpt lat="25.89569" lon="100.268713">
<time>2016-08-13T12:06:29Z</time></trkpt>
<trkpt lat="25.89599" lon="100.268973">
<time>2016-08-13T12:06:30Z</time></trkpt>
<trkpt lat="25.89612" lon="100.269123">
<time>2016-08-13T12:06:31Z</time></trkpt>
<trkpt lat="25.89645" lon="100.269582">
<time>2016-08-13T12:06:32Z</time></trkpt>
<trkpt lat="25.896739" lon="100.270022">
<time>2016-08-13T12:06:33Z</time></trkpt>
<trkpt lat="25.896799" lon="100.270172">
<time>2016-08-13T12:06:34Z</time></trkpt>
<trkpt lat="25.896879" lon="100.270491">
<time>2016-08-13T12:06:35Z</time></trkpt>
<trkpt lat="25.896949" lon="100.270641">
<time>2016-08-13T12:06:36Z</time></trkpt>
<trkpt lat="25.897179" lon="100.270891">
<time>2016-08-13T12:06:37Z</time></trkpt>
<trkpt lat="25.897559" lon="100.271221">
<time>2016-08-13T12:06:38Z</time></trkpt>
<trkpt lat="25.897659" lon="100.27135">
<time>2016-08-13T12:06:39Z</time></trkpt>
<trkpt lat="25.897729" lon="100.27152">
<time>2016-08-13T12:06:40Z</time></trkpt>
<trkpt lat="25.897908" lon="100.27208">
<time>2016-08-13T12:06:41Z</time></trkpt>
<trkpt lat="25.897968" lon="100.27227">
<time>2016-08-13T12:06:42Z</time></trkpt>
<trkpt lat="25.898018" lon="100.272489">
<time>2016-08-13T12:06:43Z</time></trkpt>
<trkpt lat="25.898078" lon="100.272699">
<time>2016-08-13T12:06:44Z</time></trkpt>
<trkpt lat="25.898178" lon="100.272969">
<time>2016-08-13T12:06:45Z</time></trkpt>
<trkpt lat="25.898228" lon="100.273149">
<time>2016-08-13T12:06:46Z</time></trkpt>
<trkpt lat="25.898377" lon="100.273758">
<time>2016-08-13T12:06:47Z</time></trkpt>
<trkpt lat="25.898497" lon="100.274347">
<time>2016-08-13T12:06:48Z</time></trkpt>
<trkpt lat="25.898547" lon="100.274517">
<time>2016-08-13T12:06:49Z</time></trkpt>
<trkpt lat="25.898627" lon="100.274687">
<time>2016-08-13T12:06:50Z</time></trkpt>
<trkpt lat="25.898976" lon="100.275166">
<time>2016-08-13T12:06:51Z</time></trkpt>
<trkpt lat="25.899106" lon="100.275316">
<time>2016-08-13T12:06:52Z</time></trkpt>
<trkpt lat="25.899466" lon="100.275746">
<time>2016-08-13T12:06:53Z</time></trkpt>
<trkpt lat="25.899686" lon="100.276055">
<time>2016-08-13T12:06:54Z</time></trkpt>
<trkpt lat="25.899996" lon="100.276525">
<time>2016-08-13T12:06:55Z</time></trkpt>
<trkpt lat="25.900116" lon="100.276665">
<time>2016-08-13T12:06:56Z</time></trkpt>
<trkpt lat="25.900556" lon="100.277044">
<time>2016-08-13T12:06:57Z</time></trkpt>
<trkpt lat="25.900866" lon="100.277294">
<time>2016-08-13T12:06:58Z</time></trkpt>
<trkpt lat="25.901335" lon="100.277654">
<time>2016-08-13T12:06:59Z</time></trkpt>
<trkpt lat="25.901795" lon="100.278023">
<time>2016-08-13T12:07:00Z</time></trkpt>
<trkpt lat="25.901955" lon="100.278123">
<time>2016-08-13T12:07:01Z</time></trkpt>
<trkpt lat="25.902435" lon="100.278443">
<time>2016-08-13T12:07:02Z</time></trkpt>
<trkpt lat="25.902935" lon="100.278782">
<time>2016-08-13T12:07:03Z</time></trkpt>
<trkpt lat="25.903435" lon="100.279112">
<time>2016-08-13T12:07:04Z</time></trkpt>
<trkpt lat="25.903955" lon="100.279461">
<time>2016-08-13T12:07:05Z</time></trkpt>
<trkpt lat="25.904445" lon="100.279781">
<time>2016-08-13T12:07:06Z</time></trkpt>
<trkpt lat="25.904915" lon="100.28005">
<time>2016-08-13T12:07:07Z</time></trkpt>
<trkpt lat="25.905375" lon="100.28031">
<time>2016-08-13T12:07:08Z</time></trkpt>
<trkpt lat="25.905795" lon="100.28055">
<time>2016-08-13T12:07:09Z</time></trkpt>
<trkpt lat="25.906215" lon="100.280789">
<time>2016-08-13T12:07:10Z</time></trkpt>
<trkpt lat="25.906565" lon="100.281129">
<time>2016-08-13T12:07:11Z</time></trkpt>
<trkpt lat="25.906625" lon="100.281199">
<time>2016-08-13T12:07:12Z</time></trkpt>
<trkpt lat="25.906975" lon="100.281568">
<time>2016-08-13T12:07:13Z</time></trkpt>
<trkpt lat="25.907355" lon="100.281988">
<time>2016-08-13T12:07:14Z</time></trkpt>
<trkpt lat="25.907725" lon="100.282397">
<time>2016-08-13T12:07:15Z</time></trkpt>
<trkpt lat="25.907855" lon="100.282507">
<time>2016-08-13T12:07:16Z</time></trkpt>
<trkpt lat="25.908304" lon="100.282817">
<time>2016-08-13T12:07:17Z</time></trkpt>
<trkpt lat="25.908504" lon="100.282936">
<time>2016-08-13T12:07:18Z</time></trkpt>
<trkpt lat="25.908764" lon="100.283106">
<time>2016-08-13T12:07:19Z</time></trkpt>
<trkpt lat="25.909034" lon="100.283286">
<time>2016-08-13T12:07:20Z</time></trkpt>
<trkpt lat="25.909214" lon="100.283426">
<time>2016-08-13T12:07:21Z</time></trkpt>
<trkpt lat="25.909384" lon="100.283546">
<time>2016-08-13T12:07:22Z</time></trkpt>
<trkpt lat="25.909684" lon="100.283815">
<time>2016-08-13T12:07:23Z</time></trkpt>
<trkpt lat="25.909814" lon="100.283945">
<time>2016-08-13T12:07:24Z</time></trkpt>
<trkpt lat="25.910214" lon="100.284344">
<time>2016-08-13T12:07:25Z</time></trkpt>
<trkpt lat="25.910614" lon="100.284744">
<time>2016-08-13T12:07:26Z</time></trkpt>
<trkpt lat="25.910724" lon="100.284894">
<time>2016-08-13T12:07:27Z</time></trkpt>
<trkpt lat="25.910803" lon="100.285043">
<time>2016-08-13T12:07:28Z</time></trkpt>
<trkpt lat="25.910873" lon="100.285203">
<time>2016-08-13T12:07:29Z</time></trkpt>
<trkpt lat="25.910883" lon="100.285373">
<time>2016-08-13T12:07:30Z</time></trkpt>
<trkpt lat="25.910813" lon="100.285543">
<time>2016-08-13T12:07:31Z</time></trkpt>
<trkpt lat="25.910713" lon="100.285663">
<time>2016-08-13T12:07:32Z</time></trkpt>
<trkpt lat="25.910582" lon="100.285742">
<time>2016-08-13T12:07:33Z</time></trkpt>
<trkpt lat="25.910432" lon="100.285772">
<time>2016-08-13T12:07:34Z</time></trkpt>
<trkpt lat="25.910282" lon="100.285772">
<time>2016-08-13T12:07:35Z</time></trkpt>
<trkpt lat="25.910122" lon="100.285712">
<time>2016-08-13T12:07:36Z</time></trkpt>
<trkpt lat="25.909832" lon="100.285573">
<time>2016-08-13T12:07:37Z</time></trkpt>
<trkpt lat="25.909352" lon="100.285353">
<time>2016-08-13T12:07:38Z</time></trkpt>
<trkpt lat="25.908922" lon="100.285083">
<time>2016-08-13T12:07:39Z</time></trkpt>
<trkpt lat="25.908462" lon="100.284844">
<time>2016-08-13T12:07:40Z</time></trkpt>
<trkpt lat="25.908032" lon="100.284604">
<time>2016-08-13T12:07:41Z</time></trkpt>
<trkpt lat="25.907862" lon="100.284504">
<time>2016-08-13T12:07:42Z</time></trkpt>
<trkpt lat="25.907512" lon="100.284305">
<time>2016-08-13T12:07:43Z</time></trkpt>
<trkpt lat="25.907002" lon="100.284005">
<time>2016-08-13T12:07:44Z</time></trkpt>
<trkpt lat="25.906642" lon="100.283795">
<time>2016-08-13T12:07:45Z</time></trkpt>
<trkpt lat="25.906272" lon="100.283586">
<time>2016-08-13T12:07:46Z</time></trkpt>
<trkpt lat="25.906082" lon="100.283506">
<time>2016-08-13T12:07:47Z</time></trkpt>
<trkpt lat="25.905542" lon="100.283326">
<time>2016-08-13T12:07:48Z</time></trkpt>
<trkpt lat="25.905082" lon="100.283166">
<time>2016-08-13T12:07:49Z</time></trkpt>
<trkpt lat="25.904982" lon="100.283076">
<time>2016-08-13T12:07:50Z</time></trkpt>
<trkpt lat="25.904912" lon="100.282937">
<time>2016-08-13T12:07:51Z</time></trkpt>
<trkpt lat="25.904812" lon="100.282797">
<time>2016-08-13T12:07:52Z</time></trkpt>
<trkpt lat="25.904692" lon="100.282667">
<time>2016-08-13T12:07:53Z</time></trkpt>
<trkpt lat="25.904532" lon="100.282567">
<time>2016-08-13T12:07:54Z</time></trkpt>
<trkpt lat="25.904032" lon="100.282297">
<time>2016-08-13T12:07:55Z</time></trkpt>
<trkpt lat="25.903622" lon="100.282028">
<time>2016-08-13T12:07:56Z</time></trkpt>
<trkpt lat="25.903482" lon="100.281968">
<time>2016-08-13T12:07:57Z</time></trkpt>
<trkpt lat="25.903362" lon="100.281938">
<time>2016-08-13T12:07:58Z</time></trkpt>
<trkpt lat="25.903272" lon="100.281988">
<time>2016-08-13T12:07:59Z</time></trkpt>
<trkpt lat="25.903041" lon="100.282417">
<time>2016-08-13T12:08:00Z</time></trkpt>
<trkpt lat="25.90276" lon="100.282947">
<time>2016-08-13T12:08:01Z</time></trkpt>
<trkpt lat="25.90268" lon="100.283126">
<time>2016-08-13T12:08:02Z</time></trkpt>
<trkpt lat="25.90262" lon="100.283306">
<time>2016-08-13T12:08:03Z</time></trkpt>
<trkpt lat="25.90252" lon="100.283436">
<time>2016-08-13T12:08:04Z</time></trkpt>
<trkpt lat="25.90243" lon="100.283506">
<time>2016-08-13T12:08:05Z</time></trkpt>
<trkpt lat="25.90233" lon="100.283476">
<time>2016-08-13T12:08:06Z</time></trkpt>
<trkpt lat="25.90227" lon="100.283356">
<time>2016-08-13T12:08:07Z</time></trkpt>
<trkpt lat="25.90224" lon="100.283037">
<time>2016-08-13T12:08:08Z</time></trkpt>
<trkpt lat="25.90224" lon="100.282857">
<time>2016-08-13T12:08:09Z</time></trkpt>
<trkpt lat="25.902281" lon="100.282497">
<time>2016-08-13T12:08:10Z</time></trkpt>
<trkpt lat="25.902251" lon="100.282148">
<time>2016-08-13T12:08:11Z</time></trkpt>
<trkpt lat="25.902211" lon="100.281978">
<time>2016-08-13T12:08:12Z</time></trkpt>
<trkpt lat="25.902161" lon="100.281818">
<time>2016-08-13T12:08:13Z</time></trkpt>
<trkpt lat="25.902092" lon="100.281688">
<time>2016-08-13T12:08:14Z</time></trkpt>
<trkpt lat="25.901982" lon="100.281579">
<time>2016-08-13T12:08:15Z</time></trkpt>
<trkpt lat="25.901862" lon="100.281509">
<time>2016-08-13T12:08:16Z</time></trkpt>
<trkpt lat="25.901401" lon="100.281429">
<time>2016-08-13T12:08:17Z</time></trkpt>
<trkpt lat="25.901251" lon="100.281349">
<time>2016-08-13T12:08:18Z</time></trkpt>
<trkpt lat="25.901012" lon="100.281079">
<time>2016-08-13T12:08:19Z</time></trkpt>
<trkpt lat="25.900762" lon="100.28078">
<time>2016-08-13T12:08:20Z</time></trkpt>
<trkpt lat="25.900632" lon="100.28065">
<time>2016-08-13T12:08:21Z</time></trkpt>
<trkpt lat="25.900472" lon="100.28055">
<time>2016-08-13T12:08:22Z</time></trkpt>
<trkpt lat="25.900012" lon="100.28025">
<time>2016-08-13T12:08:23Z</time></trkpt>
<trkpt lat="25.899852" lon="100.28016">
<time>2016-08-13T12:08:24Z</time></trkpt>
<trkpt lat="25.899692" lon="100.280091">
<time>2016-08-13T12:08:25Z</time></trkpt>
<trkpt lat="25.899532" lon="100.280071">
<time>2016-08-13T12:08:26Z</time></trkpt>
<trkpt lat="25.899382" lon="100.280101">
<time>2016-08-13T12:08:27Z</time></trkpt>
<trkpt lat="25.899221" lon="100.28016">
<time>2016-08-13T12:08:28Z</time></trkpt>
<trkpt lat="25.899061" lon="100.28022">
<time>2016-08-13T12:08:29Z</time></trkpt>
<trkpt lat="25.898901" lon="100.28031">
<time>2016-08-13T12:08:30Z</time></trkpt>
<trkpt lat="25.898781" lon="100.28044">
<time>2016-08-13T12:08:31Z</time></trkpt>
<trkpt lat="25.89869" lon="100.2806">
<time>2016-08-13T12:08:32Z</time></trkpt>
<trkpt lat="25.89863" lon="100.28077">
<time>2016-08-13T12:08:33Z</time></trkpt>
<trkpt lat="25.89861" lon="100.280949">
<time>2016-08-13T12:08:34Z</time></trkpt>
<trkpt lat="25.898629" lon="100.281509">
<time>2016-08-13T12:08:35Z</time></trkpt>
<trkpt lat="25.898659" lon="100.282068">
<time>2016-08-13T12:08:36Z</time></trkpt>
<trkpt lat="25.898689" lon="100.282258">
<time>2016-08-13T12:08:37Z</time></trkpt>
<trkpt lat="25.898738" lon="100.282427">
<time>2016-08-13T12:08:38Z</time></trkpt>
<trkpt lat="25.898868" lon="100.282767">
<time>2016-08-13T12:08:39Z</time></trkpt>
<trkpt lat="25.898948" lon="100.282917">
<time>2016-08-13T12:08:40Z</time></trkpt>
<trkpt lat="25.899228" lon="100.283386">
<time>2016-08-13T12:08:41Z</time></trkpt>
<trkpt lat="25.899527" lon="100.283855">
<time>2016-08-13T12:08:42Z</time></trkpt>
<trkpt lat="25.899827" lon="100.284345">
<time>2016-08-13T12:08:43Z</time></trkpt>
<trkpt lat="25.900146" lon="100.284824">
<time>2016-08-13T12:08:44Z</time></trkpt>
<trkpt lat="25.900236" lon="100.284994">
<time>2016-08-13T12:08:45Z</time></trkpt>
<trkpt lat="25.900286" lon="100.285164">
<time>2016-08-13T12:08:46Z</time></trkpt>
<trkpt lat="25.900276" lon="100.285333">
<time>2016-08-13T12:08:47Z</time></trkpt>
<trkpt lat="25.900206" lon="100.285473">
<time>2016-08-13T12:08:48Z</time></trkpt>
<trkpt lat="25.900105" lon="100.285573">
<time>2016-08-13T12:08:49Z</time></trkpt>
<trkpt lat="25.899965" lon="100.285613">
<time>2016-08-13T12:08:50Z</time></trkpt>
<trkpt lat="25.899775" lon="100.285623">
<time>2016-08-13T12:08:51Z</time></trkpt>
<trkpt lat="25.899335" lon="100.285633">
<time>2016-08-13T12:08:52Z</time></trkpt>
<trkpt lat="25.898924" lon="100.285713">
<time>2016-08-13T12:08:53Z</time></trkpt>
<trkpt lat="25.898554" lon="100.285863">
<time>2016-08-13T12:08:54Z</time></trkpt>
<trkpt lat="25.897983" lon="100.286112">
<time>2016-08-13T12:08:55Z</time></trkpt>
<trkpt lat="25.897813" lon="100.286222">
<time>2016-08-13T12:08:56Z</time></trkpt>
<trkpt lat="25.897663" lon="100.286342">
<time>2016-08-13T12:08:57Z</time></trkpt>
<trkpt lat="25.897262" lon="100.286741">
<time>2016-08-13T12:08:58Z</time></trkpt>
<trkpt lat="25.897172" lon="100.286901">
<time>2016-08-13T12:08:59Z</time></trkpt>
<trkpt lat="25.897141" lon="100.287081">
<time>2016-08-13T12:09:00Z</time></trkpt>
<trkpt lat="25.897161" lon="100.28726">
<time>2016-08-13T12:09:01Z</time></trkpt>
<trkpt lat="25.897211" lon="100.28742">
<time>2016-08-13T12:09:02Z</time></trkpt>
<trkpt lat="25.897311" lon="100.28752">
<time>2016-08-13T12:09:03Z</time></trkpt>
<trkpt lat="25.897461" lon="100.28757">
<time>2016-08-13T12:09:04Z</time></trkpt>
<trkpt lat="25.897971" lon="100.28768">
<time>2016-08-13T12:09:05Z</time></trkpt>
<trkpt lat="25.898141" lon="100.28775">
<time>2016-08-13T12:09:06Z</time></trkpt>
<trkpt lat="25.898431" lon="100.287939">
<time>2016-08-13T12:09:07Z</time></trkpt>
<trkpt lat="25.898691" lon="100.288149">
<time>2016-08-13T12:09:08Z</time></trkpt>
<trkpt lat="25.898831" lon="100.288239">
<time>2016-08-13T12:09:09Z</time></trkpt>
<trkpt lat="25.898991" lon="100.288289">
<time>2016-08-13T12:09:10Z</time></trkpt>
<trkpt lat="25.899161" lon="100.288299">
<time>2016-08-13T12:09:11Z</time></trkpt>
<trkpt lat="25.899521" lon="100.288289">
<time>2016-08-13T12:09:12Z</time></trkpt>
<trkpt lat="25.899882" lon="100.288269">
<time>2016-08-13T12:09:13Z</time></trkpt>
<trkpt lat="25.900262" lon="100.288299">
<time>2016-08-13T12:09:14Z</time></trkpt>
<trkpt lat="25.900632" lon="100.288419">
<time>2016-08-13T12:09:15Z</time></trkpt>
<trkpt lat="25.900792" lon="100.288498">
<time>2016-08-13T12:09:16Z</time></trkpt>
<trkpt lat="25.900902" lon="100.288608">
<time>2016-08-13T12:09:17Z</time></trkpt>
<trkpt lat="25.900942" lon="100.288748">
<time>2016-08-13T12:09:18Z</time></trkpt>
<trkpt lat="25.900902" lon="100.288878">
<time>2016-08-13T12:09:19Z</time></trkpt>
<trkpt lat="25.900801" lon="100.288938">
<time>2016-08-13T12:09:20Z</time></trkpt>
<trkpt lat="25.900661" lon="100.288918">
<time>2016-08-13T12:09:21Z</time></trkpt>
<trkpt lat="25.900341" lon="100.288798">
<time>2016-08-13T12:09:22Z</time></trkpt>
<trkpt lat="25.900161" lon="100.288788">
<time>2016-08-13T12:09:23Z</time></trkpt>
<trkpt lat="25.899981" lon="100.288828">
<time>2016-08-13T12:09:24Z</time></trkpt>
<trkpt lat="25.899641" lon="100.289008">
<time>2016-08-13T12:09:25Z</time></trkpt>
<trkpt lat="25.89912" lon="100.289297">
<time>2016-08-13T12:09:26Z</time></trkpt>
<trkpt lat="25.898799" lon="100.289487">
<time>2016-08-13T12:09:27Z</time></trkpt>
<trkpt lat="25.898659" lon="100.289597">
<time>2016-08-13T12:09:28Z</time></trkpt>
<trkpt lat="25.898539" lon="100.289727">
<time>2016-08-13T12:09:29Z</time></trkpt>
<trkpt lat="25.898438" lon="100.289866">
<time>2016-08-13T12:09:30Z</time></trkpt>
<trkpt lat="25.898368" lon="100.290036">
<time>2016-08-13T12:09:31Z</time></trkpt>
<trkpt lat="25.898298" lon="100.290216">
<time>2016-08-13T12:09:32Z</time></trkpt>
<trkpt lat="25.898107" lon="100.290775">
<time>2016-08-13T12:09:33Z</time></trkpt>
<trkpt lat="25.898067" lon="100.290915">
<time>2016-08-13T12:09:34Z</time></trkpt>
<trkpt lat="25.898107" lon="100.291054">
<time>2016-08-13T12:09:35Z</time></trkpt>
<trkpt lat="25.898187" lon="100.291144">
<time>2016-08-13T12:09:36Z</time></trkpt>
<trkpt lat="25.898307" lon="100.291144">
<time>2016-08-13T12:09:37Z</time></trkpt>
<trkpt lat="25.898407" lon="100.291074">
<time>2016-08-13T12:09:38Z</time></trkpt>
<trkpt lat="25.898607" lon="100.290655">
<time>2016-08-13T12:09:39Z</time></trkpt>
<trkpt lat="25.898698" lon="100.290505">
<time>2016-08-13T12:09:40Z</time></trkpt>
<trkpt lat="25.898918" lon="100.290266">
<time>2016-08-13T12:09:41Z</time></trkpt>
<trkpt lat="25.899048" lon="100.290166">
<time>2016-08-13T12:09:42Z</time></trkpt>
<trkpt lat="25.899189" lon="100.290086">
<time>2016-08-13T12:09:43Z</time></trkpt>
<trkpt lat="25.899339" lon="100.290026">
<time>2016-08-13T12:09:44Z</time></trkpt>
<trkpt lat="25.899639" lon="100.289956">
<time>2016-08-13T12:09:45Z</time></trkpt>
<trkpt lat="25.899789" lon="100.289946">
<time>2016-08-13T12:09:46Z</time></trkpt>
<trkpt lat="25.899939" lon="100.289986">
<time>2016-08-13T12:09:47Z</time></trkpt>
<trkpt lat="25.900089" lon="100.290056">
<time>2016-08-13T12:09:48Z</time></trkpt>
<trkpt lat="25.900579" lon="100.290336">
<time>2016-08-13T12:09:49Z</time></trkpt>
<trkpt lat="25.900719" lon="100.290465">
<time>2016-08-13T12:09:50Z</time></trkpt>
<trkpt lat="25.900809" lon="100.290635">
<time>2016-08-13T12:09:51Z</time></trkpt>
<trkpt lat="25.900969" lon="100.290984">
<time>2016-08-13T12:09:52Z</time></trkpt>
<trkpt lat="25.901008" lon="100.291164">
<time>2016-08-13T12:09:53Z</time></trkpt>
<trkpt lat="25.900968" lon="100.291743">
<time>2016-08-13T12:09:54Z</time></trkpt>
<trkpt lat="25.901007" lon="100.291943">
<time>2016-08-13T12:09:55Z</time></trkpt>
<trkpt lat="25.901087" lon="100.292133">
<time>2016-08-13T12:09:56Z</time></trkpt>
<trkpt lat="25.901207" lon="100.292282">
<time>2016-08-13T12:09:57Z</time></trkpt>
<trkpt lat="25.901477" lon="100.292552">
<time>2016-08-13T12:09:58Z</time></trkpt>
<trkpt lat="25.901956" lon="100.292991">
<time>2016-08-13T12:09:59Z</time></trkpt>
<trkpt lat="25.902016" lon="100.293111">
<time>2016-08-13T12:10:00Z</time></trkpt>
<trkpt lat="25.902016" lon="100.293181">
<time>2016-08-13T12:10:01Z</time></trkpt>
<trkpt lat="25.901966" lon="100.293251">
<time>2016-08-13T12:10:02Z</time></trkpt>
<trkpt lat="25.901896" lon="100.293291">
<time>2016-08-13T12:10:03Z</time></trkpt>
<trkpt lat="25.901786" lon="100.293261">
<time>2016-08-13T12:10:04Z</time></trkpt>
<trkpt lat="25.901626" lon="100.293041">
<time>2016-08-13T12:10:05Z</time></trkpt>
<trkpt lat="25.901586" lon="100.292951">
<time>2016-08-13T12:10:06Z</time></trkpt>
<trkpt lat="25.901436" lon="100.292801">
<time>2016-08-13T12:10:07Z</time></trkpt>
<trkpt lat="25.901136" lon="100.292622">
<time>2016-08-13T12:10:08Z</time></trkpt>
<trkpt lat="25.900966" lon="100.292482">
<time>2016-08-13T12:10:09Z</time></trkpt>
<trkpt lat="25.900787" lon="100.292322">
<time>2016-08-13T12:10:10Z</time></trkpt>
<trkpt lat="25.900577" lon="100.292053">
<time>2016-08-13T12:10:11Z</time></trkpt>
<trkpt lat="25.900457" lon="100.291943">
<time>2016-08-13T12:10:12Z</time></trkpt>
<trkpt lat="25.900327" lon="100.291893">
<time>2016-08-13T12:10:13Z</time></trkpt>
<trkpt lat="25.900177" lon="100.291903">
<time>2016-08-13T12:10:14Z</time></trkpt>
<trkpt lat="25.900047" lon="100.291963">
<time>2016-08-13T12:10:15Z</time></trkpt>
<trkpt lat="25.899896" lon="100.292043">
<time>2016-08-13T12:10:16Z</time></trkpt>
<trkpt lat="25.899446" lon="100.292282">
<time>2016-08-13T12:10:17Z</time></trkpt>
<trkpt lat="25.898985" lon="100.292542">
<time>2016-08-13T12:10:18Z</time></trkpt>
<trkpt lat="25.898695" lon="100.292752">
<time>2016-08-13T12:10:19Z</time></trkpt>
<trkpt lat="25.898614" lon="100.292951">
<time>2016-08-13T12:10:20Z</time></trkpt>
<trkpt lat="25.898403" lon="100.29348">
<time>2016-08-13T12:10:21Z</time></trkpt>
<trkpt lat="25.898333" lon="100.29365">
<time>2016-08-13T12:10:22Z</time></trkpt>
<trkpt lat="25.898233" lon="100.29376">
<time>2016-08-13T12:10:23Z</time></trkpt>
<trkpt lat="25.897962" lon="100.2939">
<time>2016-08-13T12:10:24Z</time></trkpt>
<trkpt lat="25.897822" lon="100.293999">
<time>2016-08-13T12:10:25Z</time></trkpt>
<trkpt lat="25.897722" lon="100.294119">
<time>2016-08-13T12:10:26Z</time></trkpt>
<trkpt lat="25.897481" lon="100.294449">
<time>2016-08-13T12:10:27Z</time></trkpt>
<trkpt lat="25.89718" lon="100.294868">
<time>2016-08-13T12:10:28Z</time></trkpt>
<trkpt lat="25.89708" lon="100.294978">
<time>2016-08-13T12:10:29Z</time></trkpt>
<trkpt lat="25.89696" lon="100.295048">
<time>2016-08-13T12:10:30Z</time></trkpt>
<trkpt lat="25.89683" lon="100.295088">
<time>2016-08-13T12:10:31Z</time></trkpt>
<trkpt lat="25.89669" lon="100.295098">
<time>2016-08-13T12:10:32Z</time></trkpt>
<trkpt lat="25.896419" lon="100.295088">
<time>2016-08-13T12:10:33Z</time></trkpt>
<trkpt lat="25.896139" lon="100.295128">
<time>2016-08-13T12:10:34Z</time></trkpt>
<trkpt lat="25.895849" lon="100.295227">
<time>2016-08-13T12:10:35Z</time></trkpt>
<trkpt lat="25.895468" lon="100.295427">
<time>2016-08-13T12:10:36Z</time></trkpt>
<trkpt lat="25.895308" lon="100.295577">
<time>2016-08-13T12:10:37Z</time></trkpt>
<trkpt lat="25.895127" lon="100.295876">
<time>2016-08-13T12:10:38Z</time></trkpt>
<trkpt lat="25.895027" lon="100.296106">
<time>2016-08-13T12:10:39Z</time></trkpt>
<trkpt lat="25.894906" lon="100.296465">
<time>2016-08-13T12:10:40Z</time></trkpt>
<trkpt lat="25.894796" lon="100.296695">
<time>2016-08-13T12:10:41Z</time></trkpt>
<trkpt lat="25.894485" lon="100.297114">
<time>2016-08-13T12:10:42Z</time></trkpt>
<trkpt lat="25.894234" lon="100.297414">
<time>2016-08-13T12:10:43Z</time></trkpt>
<trkpt lat="25.893934" lon="100.297763">
<time>2016-08-13T12:10:44Z</time></trkpt>
<trkpt lat="25.893773" lon="100.298032">
<time>2016-08-13T12:10:45Z</time></trkpt>
<trkpt lat="25.893713" lon="100.298222">
<time>2016-08-13T12:10:46Z</time></trkpt>
<trkpt lat="25.893713" lon="100.298252">
<time>2016-08-13T12:10:47Z</time></trkpt>
<trkpt lat="25.893692" lon="100.298502">
<time>2016-08-13T12:10:48Z</time></trkpt>
<trkpt lat="25.893721" lon="100.299021">
<time>2016-08-13T12:10:49Z</time></trkpt>
<trkpt lat="25.893721" lon="100.29939">
<time>2016-08-13T12:10:50Z</time></trkpt>
<trkpt lat="25.89372" lon="100.299789">
<time>2016-08-13T12:10:51Z</time></trkpt>
<trkpt lat="25.89374" lon="100.300198">
<time>2016-08-13T12:10:52Z</time></trkpt>
<trkpt lat="25.893759" lon="100.300628">
<time>2016-08-13T12:10:53Z</time></trkpt>
<trkpt lat="25.893748" lon="100.301057">
<time>2016-08-13T12:10:54Z</time></trkpt>
<trkpt lat="25.893728" lon="100.301346">
<time>2016-08-13T12:10:55Z</time></trkpt>
<trkpt lat="25.893697" lon="100.301476">
<time>2016-08-13T12:10:56Z</time></trkpt>
<trkpt lat="25.893617" lon="100.301755">
<time>2016-08-13T12:10:57Z</time></trkpt>
<trkpt lat="25.893456" lon="100.302294">
<time>2016-08-13T12:10:58Z</time></trkpt>
<trkpt lat="25.893355" lon="100.302704">
<time>2016-08-13T12:10:59Z</time></trkpt>
<trkpt lat="25.893325" lon="100.302973">
<time>2016-08-13T12:11:00Z</time></trkpt>
<trkpt lat="25.893314" lon="100.303253">
<time>2016-08-13T12:11:01Z</time></trkpt>
<trkpt lat="25.893313" lon="100.303772">
<time>2016-08-13T12:11:02Z</time></trkpt>
<trkpt lat="25.893303" lon="100.303901">
<time>2016-08-13T12:11:03Z</time></trkpt>
<trkpt lat="25.893233" lon="100.304141">
<time>2016-08-13T12:11:04Z</time></trkpt>
<trkpt lat="25.893162" lon="100.304261">
<time>2016-08-13T12:11:05Z</time></trkpt>
<trkpt lat="25.892932" lon="100.30455">
<time>2016-08-13T12:11:06Z</time></trkpt>
<trkpt lat="25.892811" lon="100.30476">
<time>2016-08-13T12:11:07Z</time></trkpt>
<trkpt lat="25.89265" lon="100.305199">
<time>2016-08-13T12:11:08Z</time></trkpt>
<trkpt lat="25.8926" lon="100.305418">
<time>2016-08-13T12:11:09Z</time></trkpt>
<trkpt lat="25.892559" lon="100.305648">
<time>2016-08-13T12:11:10Z</time></trkpt>
<trkpt lat="25.892489" lon="100.306087">
<time>2016-08-13T12:11:11Z</time></trkpt>
<trkpt lat="25.892448" lon="100.306636">
<time>2016-08-13T12:11:12Z</time></trkpt>
<trkpt lat="25.892457" lon="100.307095">
<time>2016-08-13T12:11:13Z</time></trkpt>
<trkpt lat="25.892506" lon="100.307684">
<time>2016-08-13T12:11:14Z</time></trkpt>
<trkpt lat="25.892505" lon="100.307903">
<time>2016-08-13T12:11:15Z</time></trkpt>
<trkpt lat="25.892485" lon="100.308133">
<time>2016-08-13T12:11:16Z</time></trkpt>
<trkpt lat="25.892405" lon="100.308352">
<time>2016-08-13T12:11:17Z</time></trkpt>
<trkpt lat="25.892294" lon="100.308562">
<time>2016-08-13T12:11:18Z</time></trkpt>
<trkpt lat="25.892073" lon="100.308971">
<time>2016-08-13T12:11:19Z</time></trkpt>
<trkpt lat="25.891792" lon="100.30947">
<time>2016-08-13T12:11:20Z</time></trkpt>
<trkpt lat="25.891722" lon="100.30969">
<time>2016-08-13T12:11:21Z</time></trkpt>
<trkpt lat="25.891712" lon="100.309799">
<time>2016-08-13T12:11:22Z</time></trkpt>
<trkpt lat="25.891721" lon="100.309909">
<time>2016-08-13T12:11:23Z</time></trkpt>
<trkpt lat="25.891741" lon="100.310019">
<time>2016-08-13T12:11:24Z</time></trkpt>
<trkpt lat="25.891811" lon="100.310249">
<time>2016-08-13T12:11:25Z</time></trkpt>
<trkpt lat="25.89197" lon="100.310757">
<time>2016-08-13T12:11:26Z</time></trkpt>
<trkpt lat="25.892119" lon="100.311246">
<time>2016-08-13T12:11:27Z</time></trkpt>
<trkpt lat="25.892199" lon="100.311506">
<time>2016-08-13T12:11:28Z</time></trkpt>
<trkpt lat="25.892298" lon="100.311895">
<time>2016-08-13T12:11:29Z</time></trkpt>
<trkpt lat="25.892388" lon="100.312164">
<time>2016-08-13T12:11:30Z</time></trkpt>
<trkpt lat="25.892607" lon="100.312643">
<time>2016-08-13T12:11:31Z</time></trkpt>
<trkpt lat="25.892617" lon="100.312773">
<time>2016-08-13T12:11:32Z</time></trkpt>
<trkpt lat="25.892617" lon="100.312903">
<time>2016-08-13T12:11:33Z</time></trkpt>
<trkpt lat="25.892536" lon="100.313172">
<time>2016-08-13T12:11:34Z</time></trkpt>
<trkpt lat="25.892385" lon="100.313701">
<time>2016-08-13T12:11:35Z</time></trkpt>
<trkpt lat="25.892234" lon="100.31418">
<time>2016-08-13T12:11:36Z</time></trkpt>
<trkpt lat="25.892193" lon="100.3144">
<time>2016-08-13T12:11:37Z</time></trkpt>
<trkpt lat="25.892203" lon="100.314619">
<time>2016-08-13T12:11:38Z</time></trkpt>
<trkpt lat="25.892213" lon="100.314719">
<time>2016-08-13T12:11:39Z</time></trkpt>
<trkpt lat="25.892283" lon="100.314909">
<time>2016-08-13T12:11:40Z</time></trkpt>
<trkpt lat="25.892442" lon="100.315278">
<time>2016-08-13T12:11:41Z</time></trkpt>
<trkpt lat="25.892691" lon="100.315797">
<time>2016-08-13T12:11:42Z</time></trkpt>
<trkpt lat="25.892821" lon="100.316026">
<time>2016-08-13T12:11:43Z</time></trkpt>
<trkpt lat="25.892871" lon="100.316176">
<time>2016-08-13T12:11:44Z</time></trkpt>
<trkpt lat="25.892861" lon="100.316246">
<time>2016-08-13T12:11:45Z</time></trkpt>
<trkpt lat="25.89283" lon="100.316306">
<time>2016-08-13T12:11:46Z</time></trkpt>
<trkpt lat="25.89278" lon="100.316336">
<time>2016-08-13T12:11:47Z</time></trkpt>
<trkpt lat="25.89273" lon="100.316346">
<time>2016-08-13T12:11:48Z</time></trkpt>
<trkpt lat="25.89266" lon="100.316336">
<time>2016-08-13T12:11:49Z</time></trkpt>
<trkpt lat="25.8926" lon="100.316296">
<time>2016-08-13T12:11:50Z</time></trkpt>
<trkpt lat="25.892341" lon="100.316006">
<time>2016-08-13T12:11:51Z</time></trkpt>
<trkpt lat="25.892191" lon="100.315877">
<time>2016-08-13T12:11:52Z</time></trkpt>
<trkpt lat="25.892091" lon="100.315817">
<time>2016-08-13T12:11:53Z</time></trkpt>
<trkpt lat="25.891921" lon="100.315727">
<time>2016-08-13T12:11:54Z</time></trkpt>
<trkpt lat="25.891381" lon="100.315527">
<time>2016-08-13T12:11:55Z</time></trkpt>
<trkpt lat="25.891291" lon="100.315477">
<time>2016-08-13T12:11:56Z</time></trkpt>
<trkpt lat="25.891231" lon="100.315408">
<time>2016-08-13T12:11:57Z</time></trkpt>
<trkpt lat="25.891131" lon="100.315228">
<time>2016-08-13T12:11:58Z</time></trkpt>
<trkpt lat="25.891042" lon="100.314819">
<time>2016-08-13T12:11:59Z</time></trkpt>
<trkpt lat="25.890913" lon="100.31437">
<time>2016-08-13T12:12:00Z</time></trkpt>
<trkpt lat="25.890774" lon="100.313851">
<time>2016-08-13T12:12:01Z</time></trkpt>
<trkpt lat="25.890754" lon="100.313741">
<time>2016-08-13T12:12:02Z</time></trkpt>
<trkpt lat="25.890754" lon="100.313641">
<time>2016-08-13T12:12:03Z</time></trkpt>
<trkpt lat="25.890784" lon="100.313362">
<time>2016-08-13T12:12:04Z</time></trkpt>
<trkpt lat="25.890775" lon="100.313053">
<time>2016-08-13T12:12:05Z</time></trkpt>
<trkpt lat="25.890745" lon="100.312993">
<time>2016-08-13T12:12:06Z</time></trkpt>
<trkpt lat="25.890695" lon="100.312963">
<time>2016-08-13T12:12:07Z</time></trkpt>
<trkpt lat="25.890635" lon="100.312963">
<time>2016-08-13T12:12:08Z</time></trkpt>
<trkpt lat="25.890575" lon="100.312983">
<time>2016-08-13T12:12:09Z</time></trkpt>
<trkpt lat="25.890525" lon="100.313043">
<time>2016-08-13T12:12:10Z</time></trkpt>
<trkpt lat="25.890464" lon="100.313252">
<time>2016-08-13T12:12:11Z</time></trkpt>
<trkpt lat="25.890444" lon="100.313661">
<time>2016-08-13T12:12:12Z</time></trkpt>
<trkpt lat="25.890373" lon="100.31422">
<time>2016-08-13T12:12:13Z</time></trkpt>
<trkpt lat="25.890292" lon="100.3145">
<time>2016-08-13T12:12:14Z</time></trkpt>
<trkpt lat="25.890141" lon="100.314909">
<time>2016-08-13T12:12:15Z</time></trkpt>
<trkpt lat="25.89004" lon="100.315308">
<time>2016-08-13T12:12:16Z</time></trkpt>
<trkpt lat="25.89" lon="100.315597">
<time>2016-08-13T12:12:17Z</time></trkpt>
<trkpt lat="25.89001" lon="100.315737">
<time>2016-08-13T12:12:18Z</time></trkpt>
<trkpt lat="25.890019" lon="100.315877">
<time>2016-08-13T12:12:19Z</time></trkpt>
<trkpt lat="25.890079" lon="100.316286">
<time>2016-08-13T12:12:20Z</time></trkpt>
<trkpt lat="25.890128" lon="100.316545">
<time>2016-08-13T12:12:21Z</time></trkpt>
<trkpt lat="25.890227" lon="100.316924">
<time>2016-08-13T12:12:22Z</time></trkpt>
<trkpt lat="25.890297" lon="100.317174">
<time>2016-08-13T12:12:23Z</time></trkpt>
<trkpt lat="25.890436" lon="100.317663">
<time>2016-08-13T12:12:24Z</time></trkpt>
<trkpt lat="25.890526" lon="100.317882">
<time>2016-08-13T12:12:25Z</time></trkpt>
<trkpt lat="25.890646" lon="100.318072">
<time>2016-08-13T12:12:26Z</time></trkpt>
<trkpt lat="25.890855" lon="100.318331">
<time>2016-08-13T12:12:27Z</time></trkpt>
<trkpt lat="25.891215" lon="100.31874">
<time>2016-08-13T12:12:28Z</time></trkpt>
<trkpt lat="25.891275" lon="100.31883">
<time>2016-08-13T12:12:29Z</time></trkpt>
<trkpt lat="25.891304" lon="100.31893">
<time>2016-08-13T12:12:30Z</time></trkpt>
<trkpt lat="25.891304" lon="100.31905">
<time>2016-08-13T12:12:31Z</time></trkpt>
<trkpt lat="25.891264" lon="100.31917">
<time>2016-08-13T12:12:32Z</time></trkpt>
<trkpt lat="25.891083" lon="100.319509">
<time>2016-08-13T12:12:33Z</time></trkpt>
<trkpt lat="25.890852" lon="100.319828">
<time>2016-08-13T12:12:34Z</time></trkpt>
<trkpt lat="25.890561" lon="100.320247">
<time>2016-08-13T12:12:35Z</time></trkpt>
<trkpt lat="25.890401" lon="100.320427">
<time>2016-08-13T12:12:36Z</time></trkpt>
<trkpt lat="25.89022" lon="100.320706">
<time>2016-08-13T12:12:37Z</time></trkpt>
<trkpt lat="25.89021" lon="100.320726">
<time>2016-08-13T12:12:38Z</time></trkpt>
<trkpt lat="25.89021" lon="100.320746">
<time>2016-08-13T12:12:39Z</time></trkpt>
<trkpt lat="25.8902" lon="100.320786">
<time>2016-08-13T12:12:40Z</time></trkpt>
<trkpt lat="25.8902" lon="100.320786">
<time>2016-08-13T12:12:41Z</time></trkpt>
<trkpt lat="25.889909" lon="100.321305">
<time>2016-08-13T12:12:42Z</time></trkpt>
<trkpt lat="25.889819" lon="100.321365">
<time>2016-08-13T12:12:43Z</time></trkpt>
<trkpt lat="25.889809" lon="100.321365">
<time>2016-08-13T12:12:44Z</time></trkpt>
<trkpt lat="25.889809" lon="100.321365">
<time>2016-08-13T12:12:45Z</time></trkpt>
<trkpt lat="25.890439" lon="100.321405">
<time>2016-08-13T12:12:46Z</time></trkpt>
<trkpt lat="25.890439" lon="100.321405">
<time>2016-08-13T12:12:47Z</time></trkpt>
<trkpt lat="25.890499" lon="100.321455">
<time>2016-08-13T12:12:48Z</time></trkpt>
<trkpt lat="25.890859" lon="100.321614">
<time>2016-08-13T12:12:49Z</time></trkpt>
<trkpt lat="25.891239" lon="100.321764">
<time>2016-08-13T12:12:50Z</time></trkpt>
<trkpt lat="25.891499" lon="100.321844">
<time>2016-08-13T12:12:51Z</time></trkpt>
<trkpt lat="25.891879" lon="100.321933">
<time>2016-08-13T12:12:52Z</time></trkpt>
<trkpt lat="25.892119" lon="100.321983">
<time>2016-08-13T12:12:53Z</time></trkpt>
<trkpt lat="25.892679" lon="100.322093">
<time>2016-08-13T12:12:54Z</time></trkpt>
<trkpt lat="25.893209" lon="100.322213">
<time>2016-08-13T12:12:55Z</time></trkpt>
<trkpt lat="25.893409" lon="100.322283">
<time>2016-08-13T12:12:56Z</time></trkpt>
<trkpt lat="25.893809" lon="100.322502">
<time>2016-08-13T12:12:57Z</time></trkpt>
<trkpt lat="25.894009" lon="100.322582">
<time>2016-08-13T12:12:58Z</time></trkpt>
<trkpt lat="25.894109" lon="100.322612">
<time>2016-08-13T12:12:59Z</time></trkpt>
<trkpt lat="25.894309" lon="100.322612">
<time>2016-08-13T12:13:00Z</time></trkpt>
<trkpt lat="25.89443" lon="100.322612">
<time>2016-08-13T12:13:01Z</time></trkpt>
<trkpt lat="25.89452" lon="100.322572">
<time>2016-08-13T12:13:02Z</time></trkpt>
<trkpt lat="25.89461" lon="100.322512">
<time>2016-08-13T12:13:03Z</time></trkpt>
<trkpt lat="25.89476" lon="100.322362">
<time>2016-08-13T12:13:04Z</time></trkpt>
<trkpt lat="25.894941" lon="100.322103">
<time>2016-08-13T12:13:05Z</time></trkpt>
<trkpt lat="25.895072" lon="100.321804">
<time>2016-08-13T12:13:06Z</time></trkpt>
<trkpt lat="25.895182" lon="100.321385">
<time>2016-08-13T12:13:07Z</time></trkpt>
<trkpt lat="25.895283" lon="100.321195">
<time>2016-08-13T12:13:08Z</time></trkpt>
<trkpt lat="25.895353" lon="100.321125">
<time>2016-08-13T12:13:09Z</time></trkpt>
<trkpt lat="25.895543" lon="100.321045">
<time>2016-08-13T12:13:10Z</time></trkpt>
<trkpt lat="25.895964" lon="100.320995">
<time>2016-08-13T12:13:11Z</time></trkpt>
<trkpt lat="25.896164" lon="100.320936">
<time>2016-08-13T12:13:12Z</time></trkpt>
<trkpt lat="25.896254" lon="100.320876">
<time>2016-08-13T12:13:13Z</time></trkpt>
<trkpt lat="25.896425" lon="100.320726">
<time>2016-08-13T12:13:14Z</time></trkpt>
<trkpt lat="25.896495" lon="100.320636">
<time>2016-08-13T12:13:15Z</time></trkpt>
<trkpt lat="25.896585" lon="100.320427">
<time>2016-08-13T12:13:16Z</time></trkpt>
<trkpt lat="25.896625" lon="100.320317">
<time>2016-08-13T12:13:17Z</time></trkpt>
<trkpt lat="25.896686" lon="100.319938">
<time>2016-08-13T12:13:18Z</time></trkpt>
<trkpt lat="25.896726" lon="100.319818">
<time>2016-08-13T12:13:19Z</time></trkpt>
<trkpt lat="25.896787" lon="100.319728">
<time>2016-08-13T12:13:20Z</time></trkpt>
<trkpt lat="25.896927" lon="100.319569">
<time>2016-08-13T12:13:21Z</time></trkpt>
<trkpt lat="25.897178" lon="100.319379">
<time>2016-08-13T12:13:22Z</time></trkpt>
<trkpt lat="25.897368" lon="100.319279">
<time>2016-08-13T12:13:23Z</time></trkpt>
<trkpt lat="25.897568" lon="100.319219">
<time>2016-08-13T12:13:24Z</time></trkpt>
<trkpt lat="25.897959" lon="100.319149">
<time>2016-08-13T12:13:25Z</time></trkpt>
<trkpt lat="25.898139" lon="100.31909">
<time>2016-08-13T12:13:26Z</time></trkpt>
<trkpt lat="25.898229" lon="100.31904">
<time>2016-08-13T12:13:27Z</time></trkpt>
<trkpt lat="25.898359" lon="100.31891">
<time>2016-08-13T12:13:28Z</time></trkpt>
<trkpt lat="25.89856" lon="100.31874">
<time>2016-08-13T12:13:29Z</time></trkpt>
<trkpt lat="25.89864" lon="100.31871">
<time>2016-08-13T12:13:30Z</time></trkpt>
<trkpt lat="25.89872" lon="100.31873">
<time>2016-08-13T12:13:31Z</time></trkpt>
<trkpt lat="25.89878" lon="100.31879">
<time>2016-08-13T12:13:32Z</time></trkpt>
<trkpt lat="25.8988" lon="100.31887">
<time>2016-08-13T12:13:33Z</time></trkpt>
<trkpt lat="25.898769" lon="100.31896">
<time>2016-08-13T12:13:34Z</time></trkpt>
<trkpt lat="25.898719" lon="100.31904">
<time>2016-08-13T12:13:35Z</time></trkpt>
<trkpt lat="25.898509" lon="100.319269">
<time>2016-08-13T12:13:36Z</time></trkpt>
<trkpt lat="25.898358" lon="100.319409">
<time>2016-08-13T12:13:37Z</time></trkpt>
<trkpt lat="25.898168" lon="100.319479">
<time>2016-08-13T12:13:38Z</time></trkpt>
<trkpt lat="25.897878" lon="100.319499">
<time>2016-08-13T12:13:39Z</time></trkpt>
<trkpt lat="25.897778" lon="100.319529">
<time>2016-08-13T12:13:40Z</time></trkpt>
<trkpt lat="25.897597" lon="100.319608">
<time>2016-08-13T12:13:41Z</time></trkpt>
<trkpt lat="25.897527" lon="100.319678">
<time>2016-08-13T12:13:42Z</time></trkpt>
<trkpt lat="25.897467" lon="100.319768">
<time>2016-08-13T12:13:43Z</time></trkpt>
<trkpt lat="25.897316" lon="100.320157">
<time>2016-08-13T12:13:44Z</time></trkpt>
<trkpt lat="25.897175" lon="100.320556">
<time>2016-08-13T12:13:45Z</time></trkpt>
<trkpt lat="25.897125" lon="100.320776">
<time>2016-08-13T12:13:46Z</time></trkpt>
<trkpt lat="25.897104" lon="100.320995">
<time>2016-08-13T12:13:47Z</time></trkpt>
<trkpt lat="25.897113" lon="100.321634">
<time>2016-08-13T12:13:48Z</time></trkpt>
<trkpt lat="25.897093" lon="100.321734">
<time>2016-08-13T12:13:49Z</time></trkpt>
<trkpt lat="25.897053" lon="100.321824">
<time>2016-08-13T12:13:50Z</time></trkpt>
<trkpt lat="25.896852" lon="100.322073">
<time>2016-08-13T12:13:51Z</time></trkpt>
<trkpt lat="25.896551" lon="100.322552">
<time>2016-08-13T12:13:52Z</time></trkpt>
<trkpt lat="25.896401" lon="100.322712">
<time>2016-08-13T12:13:53Z</time></trkpt>
<trkpt lat="25.89622" lon="100.322961">
<time>2016-08-13T12:13:54Z</time></trkpt>
<trkpt lat="25.895979" lon="100.323221">
<time>2016-08-13T12:13:55Z</time></trkpt>
<trkpt lat="25.895739" lon="100.3235">
<time>2016-08-13T12:13:56Z</time></trkpt>
<trkpt lat="25.895719" lon="100.32356">
<time>2016-08-13T12:13:57Z</time></trkpt>
<trkpt lat="25.895708" lon="100.32363">
<time>2016-08-13T12:13:58Z</time></trkpt>
<trkpt lat="25.895718" lon="100.32369">
<time>2016-08-13T12:13:59Z</time></trkpt>
<trkpt lat="25.895768" lon="100.323729">
<time>2016-08-13T12:14:00Z</time></trkpt>
<trkpt lat="25.895828" lon="100.323749">
<time>2016-08-13T12:14:01Z</time></trkpt>
<trkpt lat="25.895898" lon="100.323729">
<time>2016-08-13T12:14:02Z</time></trkpt>
<trkpt lat="25.896339" lon="100.32342">
<time>2016-08-13T12:14:03Z</time></trkpt>
<trkpt lat="25.89643" lon="100.32335">
<time>2016-08-13T12:14:04Z</time></trkpt>
<trkpt lat="25.89657" lon="100.323191">
<time>2016-08-13T12:14:05Z</time></trkpt>
<trkpt lat="25.896801" lon="100.322821">
<time>2016-08-13T12:14:06Z</time></trkpt>
<trkpt lat="25.896941" lon="100.322642">
<time>2016-08-13T12:14:07Z</time></trkpt>
<trkpt lat="25.897262" lon="100.322332">
<time>2016-08-13T12:14:08Z</time></trkpt>
<trkpt lat="25.897452" lon="100.322193">
<time>2016-08-13T12:14:09Z</time></trkpt>
<trkpt lat="25.897823" lon="100.321784">
<time>2016-08-13T12:14:10Z</time></trkpt>
<trkpt lat="25.897904" lon="100.321724">
<time>2016-08-13T12:14:11Z</time></trkpt>
<trkpt lat="25.897994" lon="100.321694">
<time>2016-08-13T12:14:12Z</time></trkpt>
<trkpt lat="25.898084" lon="100.321704">
<time>2016-08-13T12:14:13Z</time></trkpt>
<trkpt lat="25.898154" lon="100.321754">
<time>2016-08-13T12:14:14Z</time></trkpt>
<trkpt lat="25.898253" lon="100.321933">
<time>2016-08-13T12:14:15Z</time></trkpt>
<trkpt lat="25.898413" lon="100.322432">
<time>2016-08-13T12:14:16Z</time></trkpt>
<trkpt lat="25.898482" lon="100.322752">
<time>2016-08-13T12:14:17Z</time></trkpt>
<trkpt lat="25.898482" lon="100.322861">
<time>2016-08-13T12:14:18Z</time></trkpt>
<trkpt lat="25.898461" lon="100.323101">
<time>2016-08-13T12:14:19Z</time></trkpt>
<trkpt lat="25.898401" lon="100.32333">
<time>2016-08-13T12:14:20Z</time></trkpt>
<trkpt lat="25.89832" lon="100.323789">
<time>2016-08-13T12:14:21Z</time></trkpt>
<trkpt lat="25.89832" lon="100.323909">
<time>2016-08-13T12:14:22Z</time></trkpt>
<trkpt lat="25.898339" lon="100.324258">
<time>2016-08-13T12:14:23Z</time></trkpt>
<trkpt lat="25.898288" lon="100.324558">
<time>2016-08-13T12:14:24Z</time></trkpt>
<trkpt lat="25.898308" lon="100.324667">
<time>2016-08-13T12:14:25Z</time></trkpt>
<trkpt lat="25.898338" lon="100.324757">
<time>2016-08-13T12:14:26Z</time></trkpt>
<trkpt lat="25.898528" lon="100.324997">
<time>2016-08-13T12:14:27Z</time></trkpt>
<trkpt lat="25.898668" lon="100.325156">
<time>2016-08-13T12:14:28Z</time></trkpt>
<trkpt lat="25.898777" lon="100.325326">
<time>2016-08-13T12:14:29Z</time></trkpt>
<trkpt lat="25.898817" lon="100.325426">
<time>2016-08-13T12:14:30Z</time></trkpt>
<trkpt lat="25.898817" lon="100.325775">
<time>2016-08-13T12:14:31Z</time></trkpt>
<trkpt lat="25.898846" lon="100.326004">
<time>2016-08-13T12:14:32Z</time></trkpt>
<trkpt lat="25.898906" lon="100.326224">
<time>2016-08-13T12:14:33Z</time></trkpt>
<trkpt lat="25.899035" lon="100.326543">
<time>2016-08-13T12:14:34Z</time></trkpt>
<trkpt lat="25.899185" lon="100.326862">
<time>2016-08-13T12:14:35Z</time></trkpt>
<trkpt lat="25.899334" lon="100.327042">
<time>2016-08-13T12:14:36Z</time></trkpt>
<trkpt lat="25.899424" lon="100.327102">
<time>2016-08-13T12:14:37Z</time></trkpt>
<trkpt lat="25.899634" lon="100.327182">
<time>2016-08-13T12:14:38Z</time></trkpt>
<trkpt lat="25.900004" lon="100.327301">
<time>2016-08-13T12:14:39Z</time></trkpt>
<trkpt lat="25.900294" lon="100.327371">
<time>2016-08-13T12:14:40Z</time></trkpt>
<trkpt lat="25.900385" lon="100.327361">
<time>2016-08-13T12:14:41Z</time></trkpt>
<trkpt lat="25.900465" lon="100.327331">
<time>2016-08-13T12:14:42Z</time></trkpt>
<trkpt lat="25.900615" lon="100.327222">
<time>2016-08-13T12:14:43Z</time></trkpt>
<trkpt lat="25.900745" lon="100.327072">
<time>2016-08-13T12:14:44Z</time></trkpt>
<trkpt lat="25.900916" lon="100.326972">
<time>2016-08-13T12:14:45Z</time></trkpt>
<trkpt lat="25.901006" lon="100.326972">
<time>2016-08-13T12:14:46Z</time></trkpt>
<trkpt lat="25.901086" lon="100.327002">
<time>2016-08-13T12:14:47Z</time></trkpt>
<trkpt lat="25.901166" lon="100.327072">
<time>2016-08-13T12:14:48Z</time></trkpt>
<trkpt lat="25.901226" lon="100.327152">
<time>2016-08-13T12:14:49Z</time></trkpt>
<trkpt lat="25.901365" lon="100.327411">
<time>2016-08-13T12:14:50Z</time></trkpt>
<trkpt lat="25.901475" lon="100.327541">
<time>2016-08-13T12:14:51Z</time></trkpt>
<trkpt lat="25.901545" lon="100.327591">
<time>2016-08-13T12:14:52Z</time></trkpt>
<trkpt lat="25.901625" lon="100.327621">
<time>2016-08-13T12:14:53Z</time></trkpt>
<trkpt lat="25.901905" lon="100.327691">
<time>2016-08-13T12:14:54Z</time></trkpt>
<trkpt lat="25.902025" lon="100.32774">
<time>2016-08-13T12:14:55Z</time></trkpt>
<trkpt lat="25.902085" lon="100.32777">
<time>2016-08-13T12:14:56Z</time></trkpt>
<trkpt lat="25.902125" lon="100.32784">
<time>2016-08-13T12:14:57Z</time></trkpt>
<trkpt lat="25.902145" lon="100.32792">
<time>2016-08-13T12:14:58Z</time></trkpt>
<trkpt lat="25.902124" lon="100.32801">
<time>2016-08-13T12:14:59Z</time></trkpt>
<trkpt lat="25.902074" lon="100.32809">
<time>2016-08-13T12:15:00Z</time></trkpt>
<trkpt lat="25.901834" lon="100.328289">
<time>2016-08-13T12:15:01Z</time></trkpt>
<trkpt lat="25.901473" lon="100.328599">
<time>2016-08-13T12:15:02Z</time></trkpt>
<trkpt lat="25.901292" lon="100.328778">
<time>2016-08-13T12:15:03Z</time></trkpt>
<trkpt lat="25.901212" lon="100.328878">
<time>2016-08-13T12:15:04Z</time></trkpt>
<trkpt lat="25.901001" lon="100.329217">
<time>2016-08-13T12:15:05Z</time></trkpt>
<trkpt lat="25.90074" lon="100.329656">
<time>2016-08-13T12:15:06Z</time></trkpt>
<trkpt lat="25.900429" lon="100.330165">
<time>2016-08-13T12:15:07Z</time></trkpt>
<trkpt lat="25.900329" lon="100.330365">
<time>2016-08-13T12:15:08Z</time></trkpt>
<trkpt lat="25.900309" lon="100.330464">
<time>2016-08-13T12:15:09Z</time></trkpt>
<trkpt lat="25.900298" lon="100.330704">
<time>2016-08-13T12:15:10Z</time></trkpt>
<trkpt lat="25.900307" lon="100.331073">
<time>2016-08-13T12:15:11Z</time></trkpt>
<trkpt lat="25.900326" lon="100.331672">
<time>2016-08-13T12:15:12Z</time></trkpt>
<trkpt lat="25.900345" lon="100.332171">
<time>2016-08-13T12:15:13Z</time></trkpt>
<trkpt lat="25.900335" lon="100.3323">
<time>2016-08-13T12:15:14Z</time></trkpt>
<trkpt lat="25.900285" lon="100.33254">
<time>2016-08-13T12:15:15Z</time></trkpt>
<trkpt lat="25.900184" lon="100.333009">
<time>2016-08-13T12:15:16Z</time></trkpt>
<trkpt lat="25.900143" lon="100.333428">
<time>2016-08-13T12:15:17Z</time></trkpt>
<trkpt lat="25.900173" lon="100.333518">
<time>2016-08-13T12:15:18Z</time></trkpt>
<trkpt lat="25.900223" lon="100.333608">
<time>2016-08-13T12:15:19Z</time></trkpt>
<trkpt lat="25.900292" lon="100.333667">
<time>2016-08-13T12:15:20Z</time></trkpt>
<trkpt lat="25.900522" lon="100.333727">
<time>2016-08-13T12:15:21Z</time></trkpt>
<trkpt lat="25.900703" lon="100.333737">
<time>2016-08-13T12:15:22Z</time></trkpt>
<trkpt lat="25.900883" lon="100.333697">
<time>2016-08-13T12:15:23Z</time></trkpt>
<trkpt lat="25.901063" lon="100.333618">
<time>2016-08-13T12:15:24Z</time></trkpt>
<trkpt lat="25.901163" lon="100.333598">
<time>2016-08-13T12:15:25Z</time></trkpt>
<trkpt lat="25.901253" lon="100.333598">
<time>2016-08-13T12:15:26Z</time></trkpt>
<trkpt lat="25.901433" lon="100.333657">
<time>2016-08-13T12:15:27Z</time></trkpt>
<trkpt lat="25.901683" lon="100.333817">
<time>2016-08-13T12:15:28Z</time></trkpt>
<trkpt lat="25.901783" lon="100.333857">
<time>2016-08-13T12:15:29Z</time></trkpt>
<trkpt lat="25.901873" lon="100.333857">
<time>2016-08-13T12:15:30Z</time></trkpt>
<trkpt lat="25.901973" lon="100.333837">
<time>2016-08-13T12:15:31Z</time></trkpt>
<trkpt lat="25.902374" lon="100.333627">
<time>2016-08-13T12:15:32Z</time></trkpt>
<trkpt lat="25.902745" lon="100.333378">
<time>2016-08-13T12:15:33Z</time></trkpt>
<trkpt lat="25.902915" lon="100.333228">
<time>2016-08-13T12:15:34Z</time></trkpt>
<trkpt lat="25.903076" lon="100.333059">
<time>2016-08-13T12:15:35Z</time></trkpt>
<trkpt lat="25.903166" lon="100.332999">
<time>2016-08-13T12:15:36Z</time></trkpt>
<trkpt lat="25.903266" lon="100.332959">
<time>2016-08-13T12:15:37Z</time></trkpt>
<trkpt lat="25.903476" lon="100.332919">
<time>2016-08-13T12:15:38Z</time></trkpt>
<trkpt lat="25.903666" lon="100.332929">
<time>2016-08-13T12:15:39Z</time></trkpt>
<trkpt lat="25.903856" lon="100.332989">
<time>2016-08-13T12:15:40Z</time></trkpt>
<trkpt lat="25.904096" lon="100.333148">
<time>2016-08-13T12:15:41Z</time></trkpt>
<trkpt lat="25.904346" lon="100.333388">
<time>2016-08-13T12:15:42Z</time></trkpt>
<trkpt lat="25.904476" lon="100.333458">
<time>2016-08-13T12:15:43Z</time></trkpt>
<trkpt lat="25.904646" lon="100.333478">
<time>2016-08-13T12:15:44Z</time></trkpt>
<trkpt lat="25.905106" lon="100.333408">
<time>2016-08-13T12:15:45Z</time></trkpt>
<trkpt lat="25.905276" lon="100.333348">
<time>2016-08-13T12:15:46Z</time></trkpt>
<trkpt lat="25.905347" lon="100.333288">
<time>2016-08-13T12:15:47Z</time></trkpt>
<trkpt lat="25.905407" lon="100.333208">
<time>2016-08-13T12:15:48Z</time></trkpt>
<trkpt lat="25.905608" lon="100.332769">
<time>2016-08-13T12:15:49Z</time></trkpt>
<trkpt lat="25.905728" lon="100.33256">
<time>2016-08-13T12:15:50Z</time></trkpt>
<trkpt lat="25.905949" lon="100.33231">
<time>2016-08-13T12:15:51Z</time></trkpt>
<trkpt lat="25.906029" lon="100.33226">
<time>2016-08-13T12:15:52Z</time></trkpt>
<trkpt lat="25.906119" lon="100.33222">
<time>2016-08-13T12:15:53Z</time></trkpt>
<trkpt lat="25.906219" lon="100.33222">
<time>2016-08-13T12:15:54Z</time></trkpt>
<trkpt lat="25.906309" lon="100.33224">
<time>2016-08-13T12:15:55Z</time></trkpt>
<trkpt lat="25.906389" lon="100.33229">
<time>2016-08-13T12:15:56Z</time></trkpt>
<trkpt lat="25.906799" lon="100.332709">
<time>2016-08-13T12:15:57Z</time></trkpt>
<trkpt lat="25.906959" lon="100.332789">
<time>2016-08-13T12:15:58Z</time></trkpt>
<trkpt lat="25.907109" lon="100.332789">
<time>2016-08-13T12:15:59Z</time></trkpt>
<trkpt lat="25.907179" lon="100.332759">
<time>2016-08-13T12:16:00Z</time></trkpt>
<trkpt lat="25.907249" lon="100.332699">
<time>2016-08-13T12:16:01Z</time></trkpt>
<trkpt lat="25.907349" lon="100.33255">
<time>2016-08-13T12:16:02Z</time></trkpt>
<trkpt lat="25.90739" lon="100.33236">
<time>2016-08-13T12:16:03Z</time></trkpt>
<trkpt lat="25.90742" lon="100.33228">
<time>2016-08-13T12:16:04Z</time></trkpt>
<trkpt lat="25.90741" lon="100.332171">
<time>2016-08-13T12:16:05Z</time></trkpt>
<trkpt lat="25.907431" lon="100.331981">
<time>2016-08-13T12:16:06Z</time></trkpt>
<trkpt lat="25.907521" lon="100.331831">
<time>2016-08-13T12:16:07Z</time></trkpt>
<trkpt lat="25.907601" lon="100.331791">
<time>2016-08-13T12:16:08Z</time></trkpt>
<trkpt lat="25.907681" lon="100.331791">
<time>2016-08-13T12:16:09Z</time></trkpt>
<trkpt lat="25.908141" lon="100.331841">
<time>2016-08-13T12:16:10Z</time></trkpt>
<trkpt lat="25.908291" lon="100.331821">
<time>2016-08-13T12:16:11Z</time></trkpt>
<trkpt lat="25.908352" lon="100.331771">
<time>2016-08-13T12:16:12Z</time></trkpt>
<trkpt lat="25.908402" lon="100.331702">
<time>2016-08-13T12:16:13Z</time></trkpt>
<trkpt lat="25.908603" lon="100.331342">
<time>2016-08-13T12:16:14Z</time></trkpt>
<trkpt lat="25.908653" lon="100.331282">
<time>2016-08-13T12:16:15Z</time></trkpt>
<trkpt lat="25.908753" lon="100.331223">
<time>2016-08-13T12:16:16Z</time></trkpt>
<trkpt lat="25.908813" lon="100.331223">
<time>2016-08-13T12:16:17Z</time></trkpt>
<trkpt lat="25.908853" lon="100.331253">
<time>2016-08-13T12:16:18Z</time></trkpt>
<trkpt lat="25.908883" lon="100.331302">
<time>2016-08-13T12:16:19Z</time></trkpt>
<trkpt lat="25.909072" lon="100.331821">
<time>2016-08-13T12:16:20Z</time></trkpt>
<trkpt lat="25.909192" lon="100.331971">
<time>2016-08-13T12:16:21Z</time></trkpt>
<trkpt lat="25.909362" lon="100.332101">
<time>2016-08-13T12:16:22Z</time></trkpt>
<trkpt lat="25.909462" lon="100.332131">
<time>2016-08-13T12:16:23Z</time></trkpt>
<trkpt lat="25.909652" lon="100.332121">
<time>2016-08-13T12:16:24Z</time></trkpt>
<trkpt lat="25.909852" lon="100.332031">
<time>2016-08-13T12:16:25Z</time></trkpt>
<trkpt lat="25.910143" lon="100.331821">
<time>2016-08-13T12:16:26Z</time></trkpt>
<trkpt lat="25.910523" lon="100.331562">
<time>2016-08-13T12:16:27Z</time></trkpt>
<trkpt lat="25.910624" lon="100.331522">
<time>2016-08-13T12:16:28Z</time></trkpt>
<trkpt lat="25.910734" lon="100.331512">
<time>2016-08-13T12:16:29Z</time></trkpt>
<trkpt lat="25.911164" lon="100.331572">
<time>2016-08-13T12:16:30Z</time></trkpt>
<trkpt lat="25.911364" lon="100.331552">
<time>2016-08-13T12:16:31Z</time></trkpt>
<trkpt lat="25.911875" lon="100.331332">
<time>2016-08-13T12:16:32Z</time></trkpt>
<trkpt lat="25.912245" lon="100.331183">
<time>2016-08-13T12:16:33Z</time></trkpt>
<trkpt lat="25.912456" lon="100.331103">
<time>2016-08-13T12:16:34Z</time></trkpt>
<trkpt lat="25.912806" lon="100.330993">
<time>2016-08-13T12:16:35Z</time></trkpt>
<trkpt lat="25.913147" lon="100.330863">
<time>2016-08-13T12:16:36Z</time></trkpt>
<trkpt lat="25.913617" lon="100.330654">
<time>2016-08-13T12:16:37Z</time></trkpt>
<trkpt lat="25.913727" lon="100.330614">
<time>2016-08-13T12:16:38Z</time></trkpt>
<trkpt lat="25.913868" lon="100.330594">
<time>2016-08-13T12:16:39Z</time></trkpt>
<trkpt lat="25.914398" lon="100.330364">
<time>2016-08-13T12:16:40Z</time></trkpt>
<trkpt lat="25.914699" lon="100.330215">
<time>2016-08-13T12:16:41Z</time></trkpt>
<trkpt lat="25.915069" lon="100.330045">
<time>2016-08-13T12:16:42Z</time></trkpt>
<trkpt lat="25.91532" lon="100.329955">
<time>2016-08-13T12:16:43Z</time></trkpt>
<trkpt lat="25.91539" lon="100.329945">
<time>2016-08-13T12:16:44Z</time></trkpt>
<trkpt lat="25.91546" lon="100.329985">
<time>2016-08-13T12:16:45Z</time></trkpt>
<trkpt lat="25.9155" lon="100.330045">
<time>2016-08-13T12:16:46Z</time></trkpt>
<trkpt lat="25.91551" lon="100.330125">
<time>2016-08-13T12:16:47Z</time></trkpt>
<trkpt lat="25.91549" lon="100.330195">
<time>2016-08-13T12:16:48Z</time></trkpt>
<trkpt lat="25.915339" lon="100.330484">
<time>2016-08-13T12:16:49Z</time></trkpt>
<trkpt lat="25.915158" lon="100.330803">
<time>2016-08-13T12:16:50Z</time></trkpt>
<trkpt lat="25.914947" lon="100.331123">
<time>2016-08-13T12:16:51Z</time></trkpt>
<trkpt lat="25.914687" lon="100.331392">
<time>2016-08-13T12:16:52Z</time></trkpt>
<trkpt lat="25.914306" lon="100.331691">
<time>2016-08-13T12:16:53Z</time></trkpt>
<trkpt lat="25.914025" lon="100.331901">
<time>2016-08-13T12:16:54Z</time></trkpt>
<trkpt lat="25.913935" lon="100.331981">
<time>2016-08-13T12:16:55Z</time></trkpt>
<trkpt lat="25.913805" lon="100.33218">
<time>2016-08-13T12:16:56Z</time></trkpt>
<trkpt lat="25.913604" lon="100.332599">
<time>2016-08-13T12:16:57Z</time></trkpt>
<trkpt lat="25.913463" lon="100.332769">
<time>2016-08-13T12:16:58Z</time></trkpt>
<trkpt lat="25.913373" lon="100.332819">
<time>2016-08-13T12:16:59Z</time></trkpt>
<trkpt lat="25.912993" lon="100.332859">
<time>2016-08-13T12:17:00Z</time></trkpt>
<trkpt lat="25.912792" lon="100.332919">
<time>2016-08-13T12:17:01Z</time></trkpt>
<trkpt lat="25.912572" lon="100.332999">
<time>2016-08-13T12:17:02Z</time></trkpt>
<trkpt lat="25.912452" lon="100.333148">
<time>2016-08-13T12:17:03Z</time></trkpt>
<trkpt lat="25.912321" lon="100.333468">
<time>2016-08-13T12:17:04Z</time></trkpt>
<trkpt lat="25.912201" lon="100.333627">
<time>2016-08-13T12:17:05Z</time></trkpt>
<trkpt lat="25.912121" lon="100.333697">
<time>2016-08-13T12:17:06Z</time></trkpt>
<trkpt lat="25.91204" lon="100.333737">
<time>2016-08-13T12:17:07Z</time></trkpt>
<trkpt lat="25.91185" lon="100.333807">
<time>2016-08-13T12:17:08Z</time></trkpt>
<trkpt lat="25.91169" lon="100.333927">
<time>2016-08-13T12:17:09Z</time></trkpt>
<trkpt lat="25.91164" lon="100.334026">
<time>2016-08-13T12:17:10Z</time></trkpt>
<trkpt lat="25.911619" lon="100.334136">
<time>2016-08-13T12:17:11Z</time></trkpt>
<trkpt lat="25.911629" lon="100.334246">
<time>2016-08-13T12:17:12Z</time></trkpt>
<trkpt lat="25.911659" lon="100.334366">
<time>2016-08-13T12:17:13Z</time></trkpt>
<trkpt lat="25.911699" lon="100.334475">
<time>2016-08-13T12:17:14Z</time></trkpt>
<trkpt lat="25.911759" lon="100.334555">
<time>2016-08-13T12:17:15Z</time></trkpt>
<trkpt lat="25.912088" lon="100.334815">
<time>2016-08-13T12:17:16Z</time></trkpt>
<trkpt lat="25.912318" lon="100.335014">
<time>2016-08-13T12:17:17Z</time></trkpt>
<trkpt lat="25.912568" lon="100.335234">
<time>2016-08-13T12:17:18Z</time></trkpt>
<trkpt lat="25.912668" lon="100.335284">
<time>2016-08-13T12:17:19Z</time></trkpt>
<trkpt lat="25.912948" lon="100.335383">
<time>2016-08-13T12:17:20Z</time></trkpt>
<trkpt lat="25.913148" lon="100.335483">
<time>2016-08-13T12:17:21Z</time></trkpt>
<trkpt lat="25.913348" lon="100.335603">
<time>2016-08-13T12:17:22Z</time></trkpt>
<trkpt lat="25.913528" lon="100.335733">
<time>2016-08-13T12:17:23Z</time></trkpt>
<trkpt lat="25.913618" lon="100.335792">
<time>2016-08-13T12:17:24Z</time></trkpt>
<trkpt lat="25.913928" lon="100.335922">
<time>2016-08-13T12:17:25Z</time></trkpt>
<trkpt lat="25.914118" lon="100.336022">
<time>2016-08-13T12:17:26Z</time></trkpt>
<trkpt lat="25.914447" lon="100.336301">
<time>2016-08-13T12:17:27Z</time></trkpt>
<trkpt lat="25.914637" lon="100.336381">
<time>2016-08-13T12:17:28Z</time></trkpt>
<trkpt lat="25.914837" lon="100.336441">
<time>2016-08-13T12:17:29Z</time></trkpt>
<trkpt lat="25.915267" lon="100.336561">
<time>2016-08-13T12:17:30Z</time></trkpt>
<trkpt lat="25.915707" lon="100.33668">
<time>2016-08-13T12:17:31Z</time></trkpt>
<trkpt lat="25.915917" lon="100.33676">
<time>2016-08-13T12:17:32Z</time></trkpt>
<trkpt lat="25.916387" lon="100.33698">
<time>2016-08-13T12:17:33Z</time></trkpt>
<trkpt lat="25.916467" lon="100.33704">
<time>2016-08-13T12:17:34Z</time></trkpt>
<trkpt lat="25.916517" lon="100.3371">
<time>2016-08-13T12:17:35Z</time></trkpt>
<trkpt lat="25.916537" lon="100.337179">
<time>2016-08-13T12:17:36Z</time></trkpt>
<trkpt lat="25.916527" lon="100.337249">
<time>2016-08-13T12:17:37Z</time></trkpt>
<trkpt lat="25.916477" lon="100.337319">
<time>2016-08-13T12:17:38Z</time></trkpt>
<trkpt lat="25.916407" lon="100.337369">
<time>2016-08-13T12:17:39Z</time></trkpt>
<trkpt lat="25.916136" lon="100.337519">
<time>2016-08-13T12:17:40Z</time></trkpt>
<trkpt lat="25.915745" lon="100.337738">
<time>2016-08-13T12:17:41Z</time></trkpt>
<trkpt lat="25.915595" lon="100.337838">
<time>2016-08-13T12:17:42Z</time></trkpt>
<trkpt lat="25.915595" lon="100.337838">
<time>2016-08-13T12:17:43Z</time></trkpt>
<trkpt lat="25.915385" lon="100.337858">
<time>2016-08-13T12:17:44Z</time></trkpt>
<trkpt lat="25.914825" lon="100.337858">
<time>2016-08-13T12:17:45Z</time></trkpt>
<trkpt lat="25.914444" lon="100.337878">
<time>2016-08-13T12:17:46Z</time></trkpt>
<trkpt lat="25.914174" lon="100.337908">
<time>2016-08-13T12:17:47Z</time></trkpt>
<trkpt lat="25.913924" lon="100.337998">
<time>2016-08-13T12:17:48Z</time></trkpt>
<trkpt lat="25.913583" lon="100.338068">
<time>2016-08-13T12:17:49Z</time></trkpt>
<trkpt lat="25.913183" lon="100.338167">
<time>2016-08-13T12:17:50Z</time></trkpt>
<trkpt lat="25.912822" lon="100.338247">
<time>2016-08-13T12:17:51Z</time></trkpt>
<trkpt lat="25.912712" lon="100.338237">
<time>2016-08-13T12:17:52Z</time></trkpt>
<trkpt lat="25.912592" lon="100.338167">
<time>2016-08-13T12:17:53Z</time></trkpt>
<trkpt lat="25.912383" lon="100.337878">
<time>2016-08-13T12:17:54Z</time></trkpt>
<trkpt lat="25.912283" lon="100.337808">
<time>2016-08-13T12:17:55Z</time></trkpt>
<trkpt lat="25.912233" lon="100.337798">
<time>2016-08-13T12:17:56Z</time></trkpt>
<trkpt lat="25.912163" lon="100.337798">
<time>2016-08-13T12:17:57Z</time></trkpt>
<trkpt lat="25.912073" lon="100.337798">
<time>2016-08-13T12:17:58Z</time></trkpt>
<trkpt lat="25.912003" lon="100.337848">
<time>2016-08-13T12:17:59Z</time></trkpt>
<trkpt lat="25.911882" lon="100.337988">
<time>2016-08-13T12:18:00Z</time></trkpt>
<trkpt lat="25.911842" lon="100.337978">
<time>2016-08-13T12:18:01Z</time></trkpt>
<trkpt lat="25.911812" lon="100.337968">
<time>2016-08-13T12:18:02Z</time></trkpt>
<trkpt lat="25.911702" lon="100.337808">
<time>2016-08-13T12:18:03Z</time></trkpt>
<trkpt lat="25.911693" lon="100.337798">
<time>2016-08-13T12:18:04Z</time></trkpt>
<trkpt lat="25.911583" lon="100.337638">
<time>2016-08-13T12:18:05Z</time></trkpt>
<trkpt lat="25.911483" lon="100.337549">
<time>2016-08-13T12:18:06Z</time></trkpt>
<trkpt lat="25.911423" lon="100.337509">
<time>2016-08-13T12:18:07Z</time></trkpt>
<trkpt lat="25.911323" lon="100.337529">
<time>2016-08-13T12:18:08Z</time></trkpt>
<trkpt lat="25.911102" lon="100.337619">
<time>2016-08-13T12:18:09Z</time></trkpt>
<trkpt lat="25.910842" lon="100.337858">
<time>2016-08-13T12:18:10Z</time></trkpt>
<trkpt lat="25.910772" lon="100.337888">
<time>2016-08-13T12:18:11Z</time></trkpt>
<trkpt lat="25.910732" lon="100.337888">
<time>2016-08-13T12:18:12Z</time></trkpt>
<trkpt lat="25.910692" lon="100.337868">
<time>2016-08-13T12:18:13Z</time></trkpt>
<trkpt lat="25.910672" lon="100.337828">
<time>2016-08-13T12:18:14Z</time></trkpt>
<trkpt lat="25.910632" lon="100.337639">
<time>2016-08-13T12:18:15Z</time></trkpt>
<trkpt lat="25.910552" lon="100.337449">
<time>2016-08-13T12:18:16Z</time></trkpt>
<trkpt lat="25.910552" lon="100.337449">
<time>2016-08-13T12:18:17Z</time></trkpt>
<trkpt lat="25.910542" lon="100.337399">
<time>2016-08-13T12:18:18Z</time></trkpt>
<trkpt lat="25.910473" lon="100.337249">
<time>2016-08-13T12:18:19Z</time></trkpt>
<trkpt lat="25.910403" lon="100.337209">
<time>2016-08-13T12:18:20Z</time></trkpt>
<trkpt lat="25.910223" lon="100.337189">
<time>2016-08-13T12:18:21Z</time></trkpt>
<trkpt lat="25.910022" lon="100.337209">
<time>2016-08-13T12:18:22Z</time></trkpt>
<trkpt lat="25.909533" lon="100.33693">
<time>2016-08-13T12:18:23Z</time></trkpt>
<trkpt lat="25.909243" lon="100.33679">
<time>2016-08-13T12:18:24Z</time></trkpt>
<trkpt lat="25.908763" lon="100.336581">
<time>2016-08-13T12:18:25Z</time></trkpt>
<trkpt lat="25.908583" lon="100.336581">
<time>2016-08-13T12:18:26Z</time></trkpt>
<trkpt lat="25.908392" lon="100.336681">
<time>2016-08-13T12:18:27Z</time></trkpt>
<trkpt lat="25.908312" lon="100.33676">
<time>2016-08-13T12:18:28Z</time></trkpt>
<trkpt lat="25.908242" lon="100.33685">
<time>2016-08-13T12:18:29Z</time></trkpt>
<trkpt lat="25.908202" lon="100.33694">
<time>2016-08-13T12:18:30Z</time></trkpt>
<trkpt lat="25.908151" lon="100.33715">
<time>2016-08-13T12:18:31Z</time></trkpt>
<trkpt lat="25.908131" lon="100.337269">
<time>2016-08-13T12:18:32Z</time></trkpt>
<trkpt lat="25.908131" lon="100.337479">
<time>2016-08-13T12:18:33Z</time></trkpt>
<trkpt lat="25.9082" lon="100.337998">
<time>2016-08-13T12:18:34Z</time></trkpt>
<trkpt lat="25.90819" lon="100.338088">
<time>2016-08-13T12:18:35Z</time></trkpt>
<trkpt lat="25.908149" lon="100.338167">
<time>2016-08-13T12:18:36Z</time></trkpt>
<trkpt lat="25.908069" lon="100.338227">
<time>2016-08-13T12:18:37Z</time></trkpt>
<trkpt lat="25.907969" lon="100.338237">
<time>2016-08-13T12:18:38Z</time></trkpt>
<trkpt lat="25.907669" lon="100.338207">
<time>2016-08-13T12:18:39Z</time></trkpt>
<trkpt lat="25.907309" lon="100.338147">
<time>2016-08-13T12:18:40Z</time></trkpt>
<trkpt lat="25.907219" lon="100.338147">
<time>2016-08-13T12:18:41Z</time></trkpt>
<trkpt lat="25.907139" lon="100.338167">
<time>2016-08-13T12:18:42Z</time></trkpt>
<trkpt lat="25.907069" lon="100.338207">
<time>2016-08-13T12:18:43Z</time></trkpt>
<trkpt lat="25.907008" lon="100.338277">
<time>2016-08-13T12:18:44Z</time></trkpt>
<trkpt lat="25.906978" lon="100.338367">
<time>2016-08-13T12:18:45Z</time></trkpt>
<trkpt lat="25.906968" lon="100.338467">
<time>2016-08-13T12:18:46Z</time></trkpt>
<trkpt lat="25.907018" lon="100.338686">
<time>2016-08-13T12:18:47Z</time></trkpt>
<trkpt lat="25.907167" lon="100.339016">
<time>2016-08-13T12:18:48Z</time></trkpt>
<trkpt lat="25.907316" lon="100.339505">
<time>2016-08-13T12:18:49Z</time></trkpt>
<trkpt lat="25.907376" lon="100.339604">
<time>2016-08-13T12:18:50Z</time></trkpt>
<trkpt lat="25.907546" lon="100.339774">
<time>2016-08-13T12:18:51Z</time></trkpt>
<trkpt lat="25.907796" lon="100.339974">
<time>2016-08-13T12:18:52Z</time></trkpt>
<trkpt lat="25.907876" lon="100.340063">
<time>2016-08-13T12:18:53Z</time></trkpt>
<trkpt lat="25.908085" lon="100.340363">
<time>2016-08-13T12:18:54Z</time></trkpt>
<trkpt lat="25.908345" lon="100.340742">
<time>2016-08-13T12:18:55Z</time></trkpt>
<trkpt lat="25.908514" lon="100.341071">
<time>2016-08-13T12:18:56Z</time></trkpt>
<trkpt lat="25.908564" lon="100.341211">
<time>2016-08-13T12:18:57Z</time></trkpt>
<trkpt lat="25.908564" lon="100.341301">
<time>2016-08-13T12:18:58Z</time></trkpt>
<trkpt lat="25.908544" lon="100.34139">
<time>2016-08-13T12:18:59Z</time></trkpt>
<trkpt lat="25.908484" lon="100.34146">
<time>2016-08-13T12:19:00Z</time></trkpt>
<trkpt lat="25.908413" lon="100.34149">
<time>2016-08-13T12:19:01Z</time></trkpt>
<trkpt lat="25.908323" lon="100.3415">
<time>2016-08-13T12:19:02Z</time></trkpt>
<trkpt lat="25.907763" lon="100.34155">
<time>2016-08-13T12:19:03Z</time></trkpt>
<trkpt lat="25.907543" lon="100.34161">
<time>2016-08-13T12:19:04Z</time></trkpt>
<trkpt lat="25.907332" lon="100.34169">
<time>2016-08-13T12:19:05Z</time></trkpt>
<trkpt lat="25.907232" lon="100.3417">
<time>2016-08-13T12:19:06Z</time></trkpt>
<trkpt lat="25.906822" lon="100.341909">
<time>2016-08-13T12:19:07Z</time></trkpt>
<trkpt lat="25.906311" lon="100.342229">
<time>2016-08-13T12:19:08Z</time></trkpt>
<trkpt lat="25.90604" lon="100.342458">
<time>2016-08-13T12:19:09Z</time></trkpt>
<trkpt lat="25.905629" lon="100.342808">
<time>2016-08-13T12:19:10Z</time></trkpt>
<trkpt lat="25.905579" lon="100.342887">
<time>2016-08-13T12:19:11Z</time></trkpt>
<trkpt lat="25.905549" lon="100.342977">
<time>2016-08-13T12:19:12Z</time></trkpt>
<trkpt lat="25.905549" lon="100.343077">
<time>2016-08-13T12:19:13Z</time></trkpt>
<trkpt lat="25.905568" lon="100.343177">
<time>2016-08-13T12:19:14Z</time></trkpt>
<trkpt lat="25.905608" lon="100.343267">
<time>2016-08-13T12:19:15Z</time></trkpt>
<trkpt lat="25.905738" lon="100.343396">
<time>2016-08-13T12:19:16Z</time></trkpt>
<trkpt lat="25.905888" lon="100.343526">
<time>2016-08-13T12:19:17Z</time></trkpt>
<trkpt lat="25.906048" lon="100.343606">
<time>2016-08-13T12:19:18Z</time></trkpt>
<trkpt lat="25.906128" lon="100.343626">
<time>2016-08-13T12:19:19Z</time></trkpt>
<trkpt lat="25.906208" lon="100.343616">
<time>2016-08-13T12:19:20Z</time></trkpt>
<trkpt lat="25.906358" lon="100.343516">
<time>2016-08-13T12:19:21Z</time></trkpt>
<trkpt lat="25.906609" lon="100.343306">
<time>2016-08-13T12:19:22Z</time></trkpt>
<trkpt lat="25.906879" lon="100.343157">
<time>2016-08-13T12:19:23Z</time></trkpt>
<trkpt lat="25.906969" lon="100.343147">
<time>2016-08-13T12:19:24Z</time></trkpt>
<trkpt lat="25.907059" lon="100.343157">
<time>2016-08-13T12:19:25Z</time></trkpt>
<trkpt lat="25.907159" lon="100.343197">
<time>2016-08-13T12:19:26Z</time></trkpt>
<trkpt lat="25.907239" lon="100.343257">
<time>2016-08-13T12:19:27Z</time></trkpt>
<trkpt lat="25.907489" lon="100.343546">
<time>2016-08-13T12:19:28Z</time></trkpt>
<trkpt lat="25.907749" lon="100.343845">
<time>2016-08-13T12:19:29Z</time></trkpt>
<trkpt lat="25.908018" lon="100.344115">
<time>2016-08-13T12:19:30Z</time></trkpt>
<trkpt lat="25.908348" lon="100.344484">
<time>2016-08-13T12:19:31Z</time></trkpt>
<trkpt lat="25.908538" lon="100.344614">
<time>2016-08-13T12:19:32Z</time></trkpt>
<trkpt lat="25.908638" lon="100.344664">
<time>2016-08-13T12:19:33Z</time></trkpt>
<trkpt lat="25.908728" lon="100.344684">
<time>2016-08-13T12:19:34Z</time></trkpt>
<trkpt lat="25.908838" lon="100.344704">
<time>2016-08-13T12:19:35Z</time></trkpt>
<trkpt lat="25.908938" lon="100.344694">
<time>2016-08-13T12:19:36Z</time></trkpt>
<trkpt lat="25.909128" lon="100.344624">
<time>2016-08-13T12:19:37Z</time></trkpt>
<trkpt lat="25.909289" lon="100.344504">
<time>2016-08-13T12:19:38Z</time></trkpt>
<trkpt lat="25.909439" lon="100.344424">
<time>2016-08-13T12:19:39Z</time></trkpt>
<trkpt lat="25.909519" lon="100.344444">
<time>2016-08-13T12:19:40Z</time></trkpt>
<trkpt lat="25.909589" lon="100.344504">
<time>2016-08-13T12:19:41Z</time></trkpt>
<trkpt lat="25.909649" lon="100.344574">
<time>2016-08-13T12:19:42Z</time></trkpt>
<trkpt lat="25.909748" lon="100.344743">
<time>2016-08-13T12:19:43Z</time></trkpt>
<trkpt lat="25.909818" lon="100.344803">
<time>2016-08-13T12:19:44Z</time></trkpt>
<trkpt lat="25.909888" lon="100.344853">
<time>2016-08-13T12:19:45Z</time></trkpt>
<trkpt lat="25.910178" lon="100.344903">
<time>2016-08-13T12:19:46Z</time></trkpt>
<trkpt lat="25.910289" lon="100.344903">
<time>2016-08-13T12:19:47Z</time></trkpt>
<trkpt lat="25.910469" lon="100.344963">
<time>2016-08-13T12:19:48Z</time></trkpt>
<trkpt lat="25.910778" lon="100.345212">
<time>2016-08-13T12:19:49Z</time></trkpt>
<trkpt lat="25.910838" lon="100.345282">
<time>2016-08-13T12:19:50Z</time></trkpt>
<trkpt lat="25.910878" lon="100.345422">
<time>2016-08-13T12:19:51Z</time></trkpt>
<trkpt lat="25.910888" lon="100.345562">
<time>2016-08-13T12:19:52Z</time></trkpt>
<trkpt lat="25.910878" lon="100.345651">
<time>2016-08-13T12:19:53Z</time></trkpt>
<trkpt lat="25.910727" lon="100.346091">
<time>2016-08-13T12:19:54Z</time></trkpt>
<trkpt lat="25.910486" lon="100.34657">
<time>2016-08-13T12:19:55Z</time></trkpt>
<trkpt lat="25.910466" lon="100.346679">
<time>2016-08-13T12:19:56Z</time></trkpt>
<trkpt lat="25.910465" lon="100.346889">
<time>2016-08-13T12:19:57Z</time></trkpt>
<trkpt lat="25.910505" lon="100.347188">
<time>2016-08-13T12:19:58Z</time></trkpt>
<trkpt lat="25.910535" lon="100.347268">
<time>2016-08-13T12:19:59Z</time></trkpt>
<trkpt lat="25.910574" lon="100.347328">
<time>2016-08-13T12:20:00Z</time></trkpt>
<trkpt lat="25.910764" lon="100.347518">
<time>2016-08-13T12:20:01Z</time></trkpt>
<trkpt lat="25.910814" lon="100.347607">
<time>2016-08-13T12:20:02Z</time></trkpt>
<trkpt lat="25.910924" lon="100.347927">
<time>2016-08-13T12:20:03Z</time></trkpt>
<trkpt lat="25.911043" lon="100.348067">
<time>2016-08-13T12:20:04Z</time></trkpt>
<trkpt lat="25.911133" lon="100.348106">
<time>2016-08-13T12:20:05Z</time></trkpt>
<trkpt lat="25.911354" lon="100.348136">
<time>2016-08-13T12:20:06Z</time></trkpt>
<trkpt lat="25.911464" lon="100.348126">
<time>2016-08-13T12:20:07Z</time></trkpt>
<trkpt lat="25.911694" lon="100.348067">
<time>2016-08-13T12:20:08Z</time></trkpt>
<trkpt lat="25.911994" lon="100.348027">
<time>2016-08-13T12:20:09Z</time></trkpt>
<trkpt lat="25.912084" lon="100.348037">
<time>2016-08-13T12:20:10Z</time></trkpt>
<trkpt lat="25.912164" lon="100.348096">
<time>2016-08-13T12:20:11Z</time></trkpt>
<trkpt lat="25.912224" lon="100.348176">
<time>2016-08-13T12:20:12Z</time></trkpt>
<trkpt lat="25.912254" lon="100.348266">
<time>2016-08-13T12:20:13Z</time></trkpt>
<trkpt lat="25.912264" lon="100.348366">
<time>2016-08-13T12:20:14Z</time></trkpt>
<trkpt lat="25.912223" lon="100.348725">
<time>2016-08-13T12:20:15Z</time></trkpt>
<trkpt lat="25.912162" lon="100.349234">
<time>2016-08-13T12:20:16Z</time></trkpt>
<trkpt lat="25.912131" lon="100.349863">
<time>2016-08-13T12:20:17Z</time></trkpt>
<trkpt lat="25.91211" lon="100.350372">
<time>2016-08-13T12:20:18Z</time></trkpt>
<trkpt lat="25.91211" lon="100.350631">
<time>2016-08-13T12:20:19Z</time></trkpt>
<trkpt lat="25.912159" lon="100.350871">
<time>2016-08-13T12:20:20Z</time></trkpt>
<trkpt lat="25.912239" lon="100.35108">
<time>2016-08-13T12:20:21Z</time></trkpt>
<trkpt lat="25.912329" lon="100.35128">
<time>2016-08-13T12:20:22Z</time></trkpt>
<trkpt lat="25.912519" lon="100.351569">
<time>2016-08-13T12:20:23Z</time></trkpt>
<trkpt lat="25.912548" lon="100.351639">
<time>2016-08-13T12:20:24Z</time></trkpt>
<trkpt lat="25.912528" lon="100.351739">
<time>2016-08-13T12:20:25Z</time></trkpt>
<trkpt lat="25.912508" lon="100.351779">
<time>2016-08-13T12:20:26Z</time></trkpt>
<trkpt lat="25.912448" lon="100.351819">
<time>2016-08-13T12:20:27Z</time></trkpt>
<trkpt lat="25.912298" lon="100.351869">
<time>2016-08-13T12:20:28Z</time></trkpt>
<trkpt lat="25.912128" lon="100.351839">
<time>2016-08-13T12:20:29Z</time></trkpt>
<trkpt lat="25.911718" lon="100.351839">
<time>2016-08-13T12:20:30Z</time></trkpt>
<trkpt lat="25.911407" lon="100.351819">
<time>2016-08-13T12:20:31Z</time></trkpt>
<trkpt lat="25.911007" lon="100.351799">
<time>2016-08-13T12:20:32Z</time></trkpt>
<trkpt lat="25.910617" lon="100.351789">
<time>2016-08-13T12:20:33Z</time></trkpt>
<trkpt lat="25.910437" lon="100.351819">
<time>2016-08-13T12:20:34Z</time></trkpt>
<trkpt lat="25.910347" lon="100.351849">
<time>2016-08-13T12:20:35Z</time></trkpt>
<trkpt lat="25.910176" lon="100.351859">
<time>2016-08-13T12:20:36Z</time></trkpt>
<trkpt lat="25.910106" lon="100.351889">
<time>2016-08-13T12:20:37Z</time></trkpt>
<trkpt lat="25.910046" lon="100.351949">
<time>2016-08-13T12:20:38Z</time></trkpt>
<trkpt lat="25.910006" lon="100.352029">
<time>2016-08-13T12:20:39Z</time></trkpt>
<trkpt lat="25.909996" lon="100.352128">
<time>2016-08-13T12:20:40Z</time></trkpt>
<trkpt lat="25.910006" lon="100.352238">
<time>2016-08-13T12:20:41Z</time></trkpt>
<trkpt lat="25.910105" lon="100.352588">
<time>2016-08-13T12:20:42Z</time></trkpt>
<trkpt lat="25.910125" lon="100.352707">
<time>2016-08-13T12:20:43Z</time></trkpt>
<trkpt lat="25.910115" lon="100.352827">
<time>2016-08-13T12:20:44Z</time></trkpt>
<trkpt lat="25.910054" lon="100.353156">
<time>2016-08-13T12:20:45Z</time></trkpt>
<trkpt lat="25.909994" lon="100.353356">
<time>2016-08-13T12:20:46Z</time></trkpt>
<trkpt lat="25.909813" lon="100.353715">
<time>2016-08-13T12:20:47Z</time></trkpt>
<trkpt lat="25.909783" lon="100.353805">
<time>2016-08-13T12:20:48Z</time></trkpt>
<trkpt lat="25.909773" lon="100.353985">
<time>2016-08-13T12:20:49Z</time></trkpt>
<trkpt lat="25.909783" lon="100.354075">
<time>2016-08-13T12:20:50Z</time></trkpt>
<trkpt lat="25.909822" lon="100.354165">
<time>2016-08-13T12:20:51Z</time></trkpt>
<trkpt lat="25.909882" lon="100.354234">
<time>2016-08-13T12:20:52Z</time></trkpt>
<trkpt lat="25.910232" lon="100.354524">
<time>2016-08-13T12:20:53Z</time></trkpt>
<trkpt lat="25.910272" lon="100.354594">
<time>2016-08-13T12:20:54Z</time></trkpt>
<trkpt lat="25.910292" lon="100.354684">
<time>2016-08-13T12:20:55Z</time></trkpt>
<trkpt lat="25.910272" lon="100.354773">
<time>2016-08-13T12:20:56Z</time></trkpt>
<trkpt lat="25.910242" lon="100.354863">
<time>2016-08-13T12:20:57Z</time></trkpt>
<trkpt lat="25.909951" lon="100.355372">
<time>2016-08-13T12:20:58Z</time></trkpt>
<trkpt lat="25.90983" lon="100.355762">
<time>2016-08-13T12:20:59Z</time></trkpt>
<trkpt lat="25.909779" lon="100.355971">
<time>2016-08-13T12:21:00Z</time></trkpt>
<trkpt lat="25.909779" lon="100.356071">
<time>2016-08-13T12:21:01Z</time></trkpt>
<trkpt lat="25.909799" lon="100.356161">
<time>2016-08-13T12:21:02Z</time></trkpt>
<trkpt lat="25.909839" lon="100.356251">
<time>2016-08-13T12:21:03Z</time></trkpt>
<trkpt lat="25.909949" lon="100.35641">
<time>2016-08-13T12:21:04Z</time></trkpt>
<trkpt lat="25.910039" lon="100.35658">
<time>2016-08-13T12:21:05Z</time></trkpt>
<trkpt lat="25.910059" lon="100.35668">
<time>2016-08-13T12:21:06Z</time></trkpt>
<trkpt lat="25.910048" lon="100.356859">
<time>2016-08-13T12:21:07Z</time></trkpt>
<trkpt lat="25.910018" lon="100.357029">
<time>2016-08-13T12:21:08Z</time></trkpt>
<trkpt lat="25.909968" lon="100.357089">
<time>2016-08-13T12:21:09Z</time></trkpt>
<trkpt lat="25.909898" lon="100.357129">
<time>2016-08-13T12:21:10Z</time></trkpt>
<trkpt lat="25.909818" lon="100.357109">
<time>2016-08-13T12:21:11Z</time></trkpt>
<trkpt lat="25.909478" lon="100.35679">
<time>2016-08-13T12:21:12Z</time></trkpt>
<trkpt lat="25.909198" lon="100.35644">
<time>2016-08-13T12:21:13Z</time></trkpt>
<trkpt lat="25.909128" lon="100.35639">
<time>2016-08-13T12:21:14Z</time></trkpt>
<trkpt lat="25.908898" lon="100.356231">
<time>2016-08-13T12:21:15Z</time></trkpt>
<trkpt lat="25.908549" lon="100.356001">
<time>2016-08-13T12:21:16Z</time></trkpt>
<trkpt lat="25.908489" lon="100.355921">
<time>2016-08-13T12:21:17Z</time></trkpt>
<trkpt lat="25.908419" lon="100.355881">
<time>2016-08-13T12:21:18Z</time></trkpt>
<trkpt lat="25.908209" lon="100.355891">
<time>2016-08-13T12:21:19Z</time></trkpt>
<trkpt lat="25.908138" lon="100.355951">
<time>2016-08-13T12:21:20Z</time></trkpt>
<trkpt lat="25.908078" lon="100.356031">
<time>2016-08-13T12:21:21Z</time></trkpt>
<trkpt lat="25.908008" lon="100.356231">
<time>2016-08-13T12:21:22Z</time></trkpt>
<trkpt lat="25.908008" lon="100.35644">
<time>2016-08-13T12:21:23Z</time></trkpt>
<trkpt lat="25.908057" lon="100.35663">
<time>2016-08-13T12:21:24Z</time></trkpt>
<trkpt lat="25.908077" lon="100.35684">
<time>2016-08-13T12:21:25Z</time></trkpt>
<trkpt lat="25.908067" lon="100.357039">
<time>2016-08-13T12:21:26Z</time></trkpt>
<trkpt lat="25.908036" lon="100.357309">
<time>2016-08-13T12:21:27Z</time></trkpt>
<trkpt lat="25.907996" lon="100.357379">
<time>2016-08-13T12:21:28Z</time></trkpt>
<trkpt lat="25.907956" lon="100.357418">
<time>2016-08-13T12:21:29Z</time></trkpt>
<trkpt lat="25.907586" lon="100.357428">
<time>2016-08-13T12:21:30Z</time></trkpt>
<trkpt lat="25.907526" lon="100.357468">
<time>2016-08-13T12:21:31Z</time></trkpt>
<trkpt lat="25.907465" lon="100.357598">
<time>2016-08-13T12:21:32Z</time></trkpt>
<trkpt lat="25.907475" lon="100.357688">
<time>2016-08-13T12:21:33Z</time></trkpt>
<trkpt lat="25.907515" lon="100.357768">
<time>2016-08-13T12:21:34Z</time></trkpt>
<trkpt lat="25.907715" lon="100.358067">
<time>2016-08-13T12:21:35Z</time></trkpt>
<trkpt lat="25.907775" lon="100.358147">
<time>2016-08-13T12:21:36Z</time></trkpt>
<trkpt lat="25.908084" lon="100.358427">
<time>2016-08-13T12:21:37Z</time></trkpt>
<trkpt lat="25.908144" lon="100.358507">
<time>2016-08-13T12:21:38Z</time></trkpt>
<trkpt lat="25.908174" lon="100.358596">
<time>2016-08-13T12:21:39Z</time></trkpt>
<trkpt lat="25.908194" lon="100.358886">
<time>2016-08-13T12:21:40Z</time></trkpt>
<trkpt lat="25.908244" lon="100.359046">
<time>2016-08-13T12:21:41Z</time></trkpt>
<trkpt lat="25.908304" lon="100.359105">
<time>2016-08-13T12:21:42Z</time></trkpt>
<trkpt lat="25.908374" lon="100.359135">
<time>2016-08-13T12:21:43Z</time></trkpt>
<trkpt lat="25.908564" lon="100.359145">
<time>2016-08-13T12:21:44Z</time></trkpt>
<trkpt lat="25.908664" lon="100.359175">
<time>2016-08-13T12:21:45Z</time></trkpt>
<trkpt lat="25.908744" lon="100.359235">
<time>2016-08-13T12:21:46Z</time></trkpt>
<trkpt lat="25.908814" lon="100.359325">
<time>2016-08-13T12:21:47Z</time></trkpt>
<trkpt lat="25.908854" lon="100.359435">
<time>2016-08-13T12:21:48Z</time></trkpt>
<trkpt lat="25.908883" lon="100.359664">
<time>2016-08-13T12:21:49Z</time></trkpt>
<trkpt lat="25.908943" lon="100.360114">
<time>2016-08-13T12:21:50Z</time></trkpt>
<trkpt lat="25.908982" lon="100.360223">
<time>2016-08-13T12:21:51Z</time></trkpt>
<trkpt lat="25.909052" lon="100.360303">
<time>2016-08-13T12:21:52Z</time></trkpt>
<trkpt lat="25.909122" lon="100.360353">
<time>2016-08-13T12:21:53Z</time></trkpt>
<trkpt lat="25.909212" lon="100.360363">
<time>2016-08-13T12:21:54Z</time></trkpt>
<trkpt lat="25.909653" lon="100.360333">
<time>2016-08-13T12:21:55Z</time></trkpt>
<trkpt lat="25.909763" lon="100.360363">
<time>2016-08-13T12:21:56Z</time></trkpt>
<trkpt lat="25.909843" lon="100.360413">
<time>2016-08-13T12:21:57Z</time></trkpt>
<trkpt lat="25.909913" lon="100.360493">
<time>2016-08-13T12:21:58Z</time></trkpt>
<trkpt lat="25.909963" lon="100.360603">
<time>2016-08-13T12:21:59Z</time></trkpt>
<trkpt lat="25.910112" lon="100.360972">
<time>2016-08-13T12:22:00Z</time></trkpt>
<trkpt lat="25.910182" lon="100.361102">
<time>2016-08-13T12:22:01Z</time></trkpt>
<trkpt lat="25.910202" lon="100.361202">
<time>2016-08-13T12:22:02Z</time></trkpt>
<trkpt lat="25.910202" lon="100.361312">
<time>2016-08-13T12:22:03Z</time></trkpt>
<trkpt lat="25.910172" lon="100.361391">
<time>2016-08-13T12:22:04Z</time></trkpt>
<trkpt lat="25.910061" lon="100.361551">
<time>2016-08-13T12:22:05Z</time></trkpt>
<trkpt lat="25.909871" lon="100.361761">
<time>2016-08-13T12:22:06Z</time></trkpt>
<trkpt lat="25.909831" lon="100.361841">
<time>2016-08-13T12:22:07Z</time></trkpt>
<trkpt lat="25.90978" lon="100.36202">
<time>2016-08-13T12:22:08Z</time></trkpt>
<trkpt lat="25.90978" lon="100.36212">
<time>2016-08-13T12:22:09Z</time></trkpt>
<trkpt lat="25.9098" lon="100.36221">
<time>2016-08-13T12:22:10Z</time></trkpt>
<trkpt lat="25.91003" lon="100.362629">
<time>2016-08-13T12:22:11Z</time></trkpt>
<trkpt lat="25.91005" lon="100.362719">
<time>2016-08-13T12:22:12Z</time></trkpt>
<trkpt lat="25.910029" lon="100.362809">
<time>2016-08-13T12:22:13Z</time></trkpt>
<trkpt lat="25.909979" lon="100.362889">
<time>2016-08-13T12:22:14Z</time></trkpt>
<trkpt lat="25.909899" lon="100.362929">
<time>2016-08-13T12:22:15Z</time></trkpt>
<trkpt lat="25.909619" lon="100.362979">
<time>2016-08-13T12:22:16Z</time></trkpt>
<trkpt lat="25.909159" lon="100.362979">
<time>2016-08-13T12:22:17Z</time></trkpt>
<trkpt lat="25.909018" lon="100.362999">
<time>2016-08-13T12:22:18Z</time></trkpt>
<trkpt lat="25.908948" lon="100.363019">
<time>2016-08-13T12:22:19Z</time></trkpt>
<trkpt lat="25.908908" lon="100.363049">
<time>2016-08-13T12:22:20Z</time></trkpt>
<trkpt lat="25.908878" lon="100.363118">
<time>2016-08-13T12:22:21Z</time></trkpt>
<trkpt lat="25.908878" lon="100.363208">
<time>2016-08-13T12:22:22Z</time></trkpt>
<trkpt lat="25.909008" lon="100.363658">
<time>2016-08-13T12:22:23Z</time></trkpt>
<trkpt lat="25.909037" lon="100.364037">
<time>2016-08-13T12:22:24Z</time></trkpt>
<trkpt lat="25.908946" lon="100.364496">
<time>2016-08-13T12:22:25Z</time></trkpt>
<trkpt lat="25.908926" lon="100.364896">
<time>2016-08-13T12:22:26Z</time></trkpt>
<trkpt lat="25.908886" lon="100.364965">
<time>2016-08-13T12:22:27Z</time></trkpt>
<trkpt lat="25.908826" lon="100.365025">
<time>2016-08-13T12:22:28Z</time></trkpt>
<trkpt lat="25.908635" lon="100.365085">
<time>2016-08-13T12:22:29Z</time></trkpt>
<trkpt lat="25.908425" lon="100.365115">
<time>2016-08-13T12:22:30Z</time></trkpt>
<trkpt lat="25.908015" lon="100.365155">
<time>2016-08-13T12:22:31Z</time></trkpt>
<trkpt lat="25.907915" lon="100.365185">
<time>2016-08-13T12:22:32Z</time></trkpt>
<trkpt lat="25.907734" lon="100.365265">
<time>2016-08-13T12:22:33Z</time></trkpt>
<trkpt lat="25.907554" lon="100.365395">
<time>2016-08-13T12:22:34Z</time></trkpt>
<trkpt lat="25.907454" lon="100.365435">
<time>2016-08-13T12:22:35Z</time></trkpt>
<trkpt lat="25.906954" lon="100.365485">
<time>2016-08-13T12:22:36Z</time></trkpt>
<trkpt lat="25.906763" lon="100.365565">
<time>2016-08-13T12:22:37Z</time></trkpt>
<trkpt lat="25.906603" lon="100.365654">
<time>2016-08-13T12:22:38Z</time></trkpt>
<trkpt lat="25.906463" lon="100.365774">
<time>2016-08-13T12:22:39Z</time></trkpt>
<trkpt lat="25.906373" lon="100.365904">
<time>2016-08-13T12:22:40Z</time></trkpt>
<trkpt lat="25.906363" lon="100.365984">
<time>2016-08-13T12:22:41Z</time></trkpt>
<trkpt lat="25.906382" lon="100.366064">
<time>2016-08-13T12:22:42Z</time></trkpt>
<trkpt lat="25.906442" lon="100.366124">
<time>2016-08-13T12:22:43Z</time></trkpt>
<trkpt lat="25.906662" lon="100.366233">
<time>2016-08-13T12:22:44Z</time></trkpt>
<trkpt lat="25.906932" lon="100.366333">
<time>2016-08-13T12:22:45Z</time></trkpt>
<trkpt lat="25.907023" lon="100.366343">
<time>2016-08-13T12:22:46Z</time></trkpt>
<trkpt lat="25.907513" lon="100.366223">
<time>2016-08-13T12:22:47Z</time></trkpt>
<trkpt lat="25.907963" lon="100.366094">
<time>2016-08-13T12:22:48Z</time></trkpt>
<trkpt lat="25.908274" lon="100.365974">
<time>2016-08-13T12:22:49Z</time></trkpt>
<trkpt lat="25.908474" lon="100.365874">
<time>2016-08-13T12:22:50Z</time></trkpt>
<trkpt lat="25.909025" lon="100.365704">
<time>2016-08-13T12:22:51Z</time></trkpt>
<trkpt lat="25.909245" lon="100.365664">
<time>2016-08-13T12:22:52Z</time></trkpt>
<trkpt lat="25.909735" lon="100.365684">
<time>2016-08-13T12:22:53Z</time></trkpt>
<trkpt lat="25.909905" lon="100.365664">
<time>2016-08-13T12:22:54Z</time></trkpt>
<trkpt lat="25.910196" lon="100.365554">
<time>2016-08-13T12:22:55Z</time></trkpt>
<trkpt lat="25.910376" lon="100.365455">
<time>2016-08-13T12:22:56Z</time></trkpt>
<trkpt lat="25.910697" lon="100.365135">
<time>2016-08-13T12:22:57Z</time></trkpt>
<trkpt lat="25.910777" lon="100.365075">
<time>2016-08-13T12:22:58Z</time></trkpt>
<trkpt lat="25.910937" lon="100.364985">
<time>2016-08-13T12:22:59Z</time></trkpt>
<trkpt lat="25.911017" lon="100.364985">
<time>2016-08-13T12:23:00Z</time></trkpt>
<trkpt lat="25.911097" lon="100.365025">
<time>2016-08-13T12:23:01Z</time></trkpt>
<trkpt lat="25.911177" lon="100.365075">
<time>2016-08-13T12:23:02Z</time></trkpt>
<trkpt lat="25.911237" lon="100.365145">
<time>2016-08-13T12:23:03Z</time></trkpt>
<trkpt lat="25.911277" lon="100.365235">
<time>2016-08-13T12:23:04Z</time></trkpt>
<trkpt lat="25.911297" lon="100.365335">
<time>2016-08-13T12:23:05Z</time></trkpt>
<trkpt lat="25.911376" lon="100.365844">
<time>2016-08-13T12:23:06Z</time></trkpt>
<trkpt lat="25.911416" lon="100.365934">
<time>2016-08-13T12:23:07Z</time></trkpt>
<trkpt lat="25.911466" lon="100.365994">
<time>2016-08-13T12:23:08Z</time></trkpt>
<trkpt lat="25.911696" lon="100.366123">
<time>2016-08-13T12:23:09Z</time></trkpt>
<trkpt lat="25.911846" lon="100.366223">
<time>2016-08-13T12:23:10Z</time></trkpt>
<trkpt lat="25.911996" lon="100.366253">
<time>2016-08-13T12:23:11Z</time></trkpt>
<trkpt lat="25.912076" lon="100.366223">
<time>2016-08-13T12:23:12Z</time></trkpt>
<trkpt lat="25.912196" lon="100.366094">
<time>2016-08-13T12:23:13Z</time></trkpt>
<trkpt lat="25.912367" lon="100.365814">
<time>2016-08-13T12:23:14Z</time></trkpt>
<trkpt lat="25.912588" lon="100.365455">
<time>2016-08-13T12:23:15Z</time></trkpt>
<trkpt lat="25.912828" lon="100.365185">
<time>2016-08-13T12:23:16Z</time></trkpt>
<trkpt lat="25.912888" lon="100.365135">
<time>2016-08-13T12:23:17Z</time></trkpt>
<trkpt lat="25.912968" lon="100.365105">
<time>2016-08-13T12:23:18Z</time></trkpt>
<trkpt lat="25.913048" lon="100.365105">
<time>2016-08-13T12:23:19Z</time></trkpt>
<trkpt lat="25.913118" lon="100.365135">
<time>2016-08-13T12:23:20Z</time></trkpt>
<trkpt lat="25.913168" lon="100.365205">
<time>2016-08-13T12:23:21Z</time></trkpt>
<trkpt lat="25.913198" lon="100.365385">
<time>2016-08-13T12:23:22Z</time></trkpt>
<trkpt lat="25.913188" lon="100.365704">
<time>2016-08-13T12:23:23Z</time></trkpt>
<trkpt lat="25.913177" lon="100.366133">
<time>2016-08-13T12:23:24Z</time></trkpt>
<trkpt lat="25.913116" lon="100.366643">
<time>2016-08-13T12:23:25Z</time></trkpt>
<trkpt lat="25.913036" lon="100.366972">
<time>2016-08-13T12:23:26Z</time></trkpt>
<trkpt lat="25.912995" lon="100.367222">
<time>2016-08-13T12:23:27Z</time></trkpt>
<trkpt lat="25.912985" lon="100.367421">
<time>2016-08-13T12:23:28Z</time></trkpt>
<trkpt lat="25.912995" lon="100.367481">
<time>2016-08-13T12:23:29Z</time></trkpt>
<trkpt lat="25.913035" lon="100.367541">
<time>2016-08-13T12:23:30Z</time></trkpt>
<trkpt lat="25.913085" lon="100.367561">
<time>2016-08-13T12:23:31Z</time></trkpt>
<trkpt lat="25.913145" lon="100.367551">
<time>2016-08-13T12:23:32Z</time></trkpt>
<trkpt lat="25.913215" lon="100.367521">
<time>2016-08-13T12:23:33Z</time></trkpt>
<trkpt lat="25.913446" lon="100.367302">
<time>2016-08-13T12:23:34Z</time></trkpt>
<trkpt lat="25.913676" lon="100.367092">
<time>2016-08-13T12:23:35Z</time></trkpt>
<trkpt lat="25.913836" lon="100.367002">
<time>2016-08-13T12:23:36Z</time></trkpt>
<trkpt lat="25.913926" lon="100.366972">
<time>2016-08-13T12:23:37Z</time></trkpt>
<trkpt lat="25.914016" lon="100.366992">
<time>2016-08-13T12:23:38Z</time></trkpt>
<trkpt lat="25.914086" lon="100.367042">
<time>2016-08-13T12:23:39Z</time></trkpt>
<trkpt lat="25.914126" lon="100.367122">
<time>2016-08-13T12:23:40Z</time></trkpt>
<trkpt lat="25.914146" lon="100.367332">
<time>2016-08-13T12:23:41Z</time></trkpt>
<trkpt lat="25.914146" lon="100.367521">
<time>2016-08-13T12:23:42Z</time></trkpt>
<trkpt lat="25.914156" lon="100.367601">
<time>2016-08-13T12:23:43Z</time></trkpt>
<trkpt lat="25.914196" lon="100.367681">
<time>2016-08-13T12:23:44Z</time></trkpt>
<trkpt lat="25.914376" lon="100.367831">
<time>2016-08-13T12:23:45Z</time></trkpt>
<trkpt lat="25.914416" lon="100.367901">
<time>2016-08-13T12:23:46Z</time></trkpt>
<trkpt lat="25.914415" lon="100.367991">
<time>2016-08-13T12:23:47Z</time></trkpt>
<trkpt lat="25.914385" lon="100.36806">
<time>2016-08-13T12:23:48Z</time></trkpt>
<trkpt lat="25.914305" lon="100.36813">
<time>2016-08-13T12:23:49Z</time></trkpt>
<trkpt lat="25.913945" lon="100.36837">
<time>2016-08-13T12:23:50Z</time></trkpt>
<trkpt lat="25.913694" lon="100.36859">
<time>2016-08-13T12:23:51Z</time></trkpt>
<trkpt lat="25.913404" lon="100.368849">
<time>2016-08-13T12:23:52Z</time></trkpt>
<trkpt lat="25.913133" lon="100.369129">
<time>2016-08-13T12:23:53Z</time></trkpt>
<trkpt lat="25.912963" lon="100.369329">
<time>2016-08-13T12:23:54Z</time></trkpt>
<trkpt lat="25.912843" lon="100.369448">
<time>2016-08-13T12:23:55Z</time></trkpt>
<trkpt lat="25.912762" lon="100.369488">
<time>2016-08-13T12:23:56Z</time></trkpt>
<trkpt lat="25.912682" lon="100.369548">
<time>2016-08-13T12:23:57Z</time></trkpt>
<trkpt lat="25.912522" lon="100.369608">
<time>2016-08-13T12:23:58Z</time></trkpt>
<trkpt lat="25.912372" lon="100.369718">
<time>2016-08-13T12:23:59Z</time></trkpt>
<trkpt lat="25.912262" lon="100.369868">
<time>2016-08-13T12:24:00Z</time></trkpt>
<trkpt lat="25.912192" lon="100.369938">
<time>2016-08-13T12:24:01Z</time></trkpt>
<trkpt lat="25.911931" lon="100.370087">
<time>2016-08-13T12:24:02Z</time></trkpt>
<trkpt lat="25.911761" lon="100.370197">
<time>2016-08-13T12:24:03Z</time></trkpt>
<trkpt lat="25.91131" lon="100.370437">
<time>2016-08-13T12:24:04Z</time></trkpt>
<trkpt lat="25.91115" lon="100.370567">
<time>2016-08-13T12:24:05Z</time></trkpt>
<trkpt lat="25.91102" lon="100.370707">
<time>2016-08-13T12:24:06Z</time></trkpt>
<trkpt lat="25.91097" lon="100.370786">
<time>2016-08-13T12:24:07Z</time></trkpt>
<trkpt lat="25.910879" lon="100.370986">
<time>2016-08-13T12:24:08Z</time></trkpt>
<trkpt lat="25.910839" lon="100.371186">
<time>2016-08-13T12:24:09Z</time></trkpt>
<trkpt lat="25.910859" lon="100.371276">
<time>2016-08-13T12:24:10Z</time></trkpt>
<trkpt lat="25.910899" lon="100.371366">
<time>2016-08-13T12:24:11Z</time></trkpt>
<trkpt lat="25.911069" lon="100.371595">
<time>2016-08-13T12:24:12Z</time></trkpt>
<trkpt lat="25.911189" lon="100.371735">
<time>2016-08-13T12:24:13Z</time></trkpt>
<trkpt lat="25.911349" lon="100.371965">
<time>2016-08-13T12:24:14Z</time></trkpt>
<trkpt lat="25.911419" lon="100.372085">
<time>2016-08-13T12:24:15Z</time></trkpt>
<trkpt lat="25.911438" lon="100.372155">
<time>2016-08-13T12:24:16Z</time></trkpt>
<trkpt lat="25.911418" lon="100.372214">
<time>2016-08-13T12:24:17Z</time></trkpt>
<trkpt lat="25.911358" lon="100.372264">
<time>2016-08-13T12:24:18Z</time></trkpt>
<trkpt lat="25.911188" lon="100.372344">
<time>2016-08-13T12:24:19Z</time></trkpt>
<trkpt lat="25.910868" lon="100.372404">
<time>2016-08-13T12:24:20Z</time></trkpt>
<trkpt lat="25.910427" lon="100.372494">
<time>2016-08-13T12:24:21Z</time></trkpt>
<trkpt lat="25.910117" lon="100.372614">
<time>2016-08-13T12:24:22Z</time></trkpt>
<trkpt lat="25.909716" lon="100.372834">
<time>2016-08-13T12:24:23Z</time></trkpt>
<trkpt lat="25.909526" lon="100.372963">
<time>2016-08-13T12:24:24Z</time></trkpt>
<trkpt lat="25.909376" lon="100.373133">
<time>2016-08-13T12:24:25Z</time></trkpt>
<trkpt lat="25.909095" lon="100.373493">
<time>2016-08-13T12:24:26Z</time></trkpt>
<trkpt lat="25.908985" lon="100.373692">
<time>2016-08-13T12:24:27Z</time></trkpt>
<trkpt lat="25.908844" lon="100.374142">
<time>2016-08-13T12:24:28Z</time></trkpt>
<trkpt lat="25.908784" lon="100.374242">
<time>2016-08-13T12:24:29Z</time></trkpt>
<trkpt lat="25.908694" lon="100.374322">
<time>2016-08-13T12:24:30Z</time></trkpt>
<trkpt lat="25.908584" lon="100.374372">
<time>2016-08-13T12:24:31Z</time></trkpt>
<trkpt lat="25.908053" lon="100.374581">
<time>2016-08-13T12:24:32Z</time></trkpt>
<trkpt lat="25.907743" lon="100.374711">
<time>2016-08-13T12:24:33Z</time></trkpt>
<trkpt lat="25.907543" lon="100.374831">
<time>2016-08-13T12:24:34Z</time></trkpt>
<trkpt lat="25.907302" lon="100.375021">
<time>2016-08-13T12:24:35Z</time></trkpt>
<trkpt lat="25.907262" lon="100.375051">
<time>2016-08-13T12:24:36Z</time></trkpt>
<trkpt lat="25.907022" lon="100.37528">
<time>2016-08-13T12:24:37Z</time></trkpt>
<trkpt lat="25.906812" lon="100.37554">
<time>2016-08-13T12:24:38Z</time></trkpt>
<trkpt lat="25.906581" lon="100.37582">
<time>2016-08-13T12:24:39Z</time></trkpt>
<trkpt lat="25.906381" lon="100.376089">
<time>2016-08-13T12:24:40Z</time></trkpt>
<trkpt lat="25.906241" lon="100.376249">
<time>2016-08-13T12:24:41Z</time></trkpt>
<trkpt lat="25.90615" lon="100.376319">
<time>2016-08-13T12:24:42Z</time></trkpt>
<trkpt lat="25.90606" lon="100.376359">
<time>2016-08-13T12:24:43Z</time></trkpt>
<trkpt lat="25.90596" lon="100.376359">
<time>2016-08-13T12:24:44Z</time></trkpt>
<trkpt lat="25.90586" lon="100.376329">
<time>2016-08-13T12:24:45Z</time></trkpt>
<trkpt lat="25.90576" lon="100.376289">
<time>2016-08-13T12:24:46Z</time></trkpt>
<trkpt lat="25.90559" lon="100.376159">
<time>2016-08-13T12:24:47Z</time></trkpt>
<trkpt lat="25.90539" lon="100.37594">
<time>2016-08-13T12:24:48Z</time></trkpt>
<trkpt lat="25.90524" lon="100.3758">
<time>2016-08-13T12:24:49Z</time></trkpt>
<trkpt lat="25.90509" lon="100.37569">
<time>2016-08-13T12:24:50Z</time></trkpt>
<trkpt lat="25.90501" lon="100.37568">
<time>2016-08-13T12:24:51Z</time></trkpt>
<trkpt lat="25.90492" lon="100.3757">
<time>2016-08-13T12:24:52Z</time></trkpt>
<trkpt lat="25.90485" lon="100.37574">
<time>2016-08-13T12:24:53Z</time></trkpt>
<trkpt lat="25.9048" lon="100.37582">
<time>2016-08-13T12:24:54Z</time></trkpt>
<trkpt lat="25.90477" lon="100.37593">
<time>2016-08-13T12:24:55Z</time></trkpt>
<trkpt lat="25.90476" lon="100.37604">
<time>2016-08-13T12:24:56Z</time></trkpt>
<trkpt lat="25.904839" lon="100.376389">
<time>2016-08-13T12:24:57Z</time></trkpt>
<trkpt lat="25.905029" lon="100.376699">
<time>2016-08-13T12:24:58Z</time></trkpt>
<trkpt lat="25.905179" lon="100.376948">
<time>2016-08-13T12:24:59Z</time></trkpt>
<trkpt lat="25.905429" lon="100.377328">
<time>2016-08-13T12:25:00Z</time></trkpt>
<trkpt lat="25.905559" lon="100.377488">
<time>2016-08-13T12:25:01Z</time></trkpt>
<trkpt lat="25.905639" lon="100.377538">
<time>2016-08-13T12:25:02Z</time></trkpt>
<trkpt lat="25.905729" lon="100.377558">
<time>2016-08-13T12:25:03Z</time></trkpt>
<trkpt lat="25.906049" lon="100.377588">
<time>2016-08-13T12:25:04Z</time></trkpt>
<trkpt lat="25.906179" lon="100.377618">
<time>2016-08-13T12:25:05Z</time></trkpt>
<trkpt lat="25.906229" lon="100.377668">
<time>2016-08-13T12:25:06Z</time></trkpt>
<trkpt lat="25.906249" lon="100.377747">
<time>2016-08-13T12:25:07Z</time></trkpt>
<trkpt lat="25.906229" lon="100.377817">
<time>2016-08-13T12:25:08Z</time></trkpt>
<trkpt lat="25.905808" lon="100.378227">
<time>2016-08-13T12:25:09Z</time></trkpt>
<trkpt lat="25.905388" lon="100.378567">
<time>2016-08-13T12:25:10Z</time></trkpt>
<trkpt lat="25.904987" lon="100.378906">
<time>2016-08-13T12:25:11Z</time></trkpt>
<trkpt lat="25.904907" lon="100.378956">
<time>2016-08-13T12:25:12Z</time></trkpt>
<trkpt lat="25.904517" lon="100.379096">
<time>2016-08-13T12:25:13Z</time></trkpt>
<trkpt lat="25.904437" lon="100.379146">
<time>2016-08-13T12:25:14Z</time></trkpt>
<trkpt lat="25.904356" lon="100.379226">
<time>2016-08-13T12:25:15Z</time></trkpt>
<trkpt lat="25.904076" lon="100.379745">
<time>2016-08-13T12:25:16Z</time></trkpt>
<trkpt lat="25.903986" lon="100.379985">
<time>2016-08-13T12:25:17Z</time></trkpt>
<trkpt lat="25.903945" lon="100.380105">
<time>2016-08-13T12:25:18Z</time></trkpt>
<trkpt lat="25.903915" lon="100.380355">
<time>2016-08-13T12:25:19Z</time></trkpt>
<trkpt lat="25.903915" lon="100.380464">
<time>2016-08-13T12:25:20Z</time></trkpt>
<trkpt lat="25.903955" lon="100.380704">
<time>2016-08-13T12:25:21Z</time></trkpt>
<trkpt lat="25.904035" lon="100.380924">
<time>2016-08-13T12:25:22Z</time></trkpt>
<trkpt lat="25.904145" lon="100.381124">
<time>2016-08-13T12:25:23Z</time></trkpt>
<trkpt lat="25.904435" lon="100.381483">
<time>2016-08-13T12:25:24Z</time></trkpt>
<trkpt lat="25.904665" lon="100.381723">
<time>2016-08-13T12:25:25Z</time></trkpt>
<trkpt lat="25.904865" lon="100.381823">
<time>2016-08-13T12:25:26Z</time></trkpt>
<trkpt lat="25.905175" lon="100.381903">
<time>2016-08-13T12:25:27Z</time></trkpt>
<trkpt lat="25.905365" lon="100.381973">
<time>2016-08-13T12:25:28Z</time></trkpt>
<trkpt lat="25.905445" lon="100.382043">
<time>2016-08-13T12:25:29Z</time></trkpt>
<trkpt lat="25.905585" lon="100.382203">
<time>2016-08-13T12:25:30Z</time></trkpt>
<trkpt lat="25.905665" lon="100.382273">
<time>2016-08-13T12:25:31Z</time></trkpt>
<trkpt lat="25.905845" lon="100.382362">
<time>2016-08-13T12:25:32Z</time></trkpt>
<trkpt lat="25.906045" lon="100.382412">
<time>2016-08-13T12:25:33Z</time></trkpt>
<trkpt lat="25.906235" lon="100.382522">
<time>2016-08-13T12:25:34Z</time></trkpt>
<trkpt lat="25.906295" lon="100.382612">
<time>2016-08-13T12:25:35Z</time></trkpt>
<trkpt lat="25.906335" lon="100.382712">
<time>2016-08-13T12:25:36Z</time></trkpt>
<trkpt lat="25.906445" lon="100.382902">
<time>2016-08-13T12:25:37Z</time></trkpt>
<trkpt lat="25.906625" lon="100.383132">
<time>2016-08-13T12:25:38Z</time></trkpt>
<trkpt lat="25.906665" lon="100.383212">
<time>2016-08-13T12:25:39Z</time></trkpt>
<trkpt lat="25.906675" lon="100.383292">
<time>2016-08-13T12:25:40Z</time></trkpt>
<trkpt lat="25.906645" lon="100.383371">
<time>2016-08-13T12:25:41Z</time></trkpt>
<trkpt lat="25.906595" lon="100.383431">
<time>2016-08-13T12:25:42Z</time></trkpt>
<trkpt lat="25.906514" lon="100.383471">
<time>2016-08-13T12:25:43Z</time></trkpt>
<trkpt lat="25.906224" lon="100.383501">
<time>2016-08-13T12:25:44Z</time></trkpt>
<trkpt lat="25.906024" lon="100.383551">
<time>2016-08-13T12:25:45Z</time></trkpt>
<trkpt lat="25.905644" lon="100.383631">
<time>2016-08-13T12:25:46Z</time></trkpt>
<trkpt lat="25.905484" lon="100.383681">
<time>2016-08-13T12:25:47Z</time></trkpt>
<trkpt lat="25.905293" lon="100.383761">
<time>2016-08-13T12:25:48Z</time></trkpt>
<trkpt lat="25.904893" lon="100.384071">
<time>2016-08-13T12:25:49Z</time></trkpt>
<trkpt lat="25.904753" lon="100.384211">
<time>2016-08-13T12:25:50Z</time></trkpt>
<trkpt lat="25.904623" lon="100.384381">
<time>2016-08-13T12:25:51Z</time></trkpt>
<trkpt lat="25.904462" lon="100.38466">
<time>2016-08-13T12:25:52Z</time></trkpt>
<trkpt lat="25.904332" lon="100.38481">
<time>2016-08-13T12:25:53Z</time></trkpt>
<trkpt lat="25.904062" lon="100.385">
<time>2016-08-13T12:25:54Z</time></trkpt>
<trkpt lat="25.903621" lon="100.38532">
<time>2016-08-13T12:25:55Z</time></trkpt>
<trkpt lat="25.903481" lon="100.38545">
<time>2016-08-13T12:25:56Z</time></trkpt>
<trkpt lat="25.903311" lon="100.385699">
<time>2016-08-13T12:25:57Z</time></trkpt>
<trkpt lat="25.90317" lon="100.386009">
<time>2016-08-13T12:25:58Z</time></trkpt>
<trkpt lat="25.90313" lon="100.386109">
<time>2016-08-13T12:25:59Z</time></trkpt>
<trkpt lat="25.90305" lon="100.386519">
<time>2016-08-13T12:26:00Z</time></trkpt>
<trkpt lat="25.90304" lon="100.386749">
<time>2016-08-13T12:26:01Z</time></trkpt>
<trkpt lat="25.90305" lon="100.386958">
<time>2016-08-13T12:26:02Z</time></trkpt>
<trkpt lat="25.90308" lon="100.387058">
<time>2016-08-13T12:26:03Z</time></trkpt>
<trkpt lat="25.90316" lon="100.387228">
<time>2016-08-13T12:26:04Z</time></trkpt>
<trkpt lat="25.90322" lon="100.387308">
<time>2016-08-13T12:26:05Z</time></trkpt>
<trkpt lat="25.90337" lon="100.387428">
<time>2016-08-13T12:26:06Z</time></trkpt>
<trkpt lat="25.90346" lon="100.387578">
<time>2016-08-13T12:26:07Z</time></trkpt>
<trkpt lat="25.90347" lon="100.387658">
<time>2016-08-13T12:26:08Z</time></trkpt>
<trkpt lat="25.90344" lon="100.387728">
<time>2016-08-13T12:26:09Z</time></trkpt>
<trkpt lat="25.903299" lon="100.387848">
<time>2016-08-13T12:26:10Z</time></trkpt>
<trkpt lat="25.903029" lon="100.388018">
<time>2016-08-13T12:26:11Z</time></trkpt>
<trkpt lat="25.902749" lon="100.388187">
<time>2016-08-13T12:26:12Z</time></trkpt>
<trkpt lat="25.902469" lon="100.388387">
<time>2016-08-13T12:26:13Z</time></trkpt>
<trkpt lat="25.902148" lon="100.388597">
<time>2016-08-13T12:26:14Z</time></trkpt>
<trkpt lat="25.901878" lon="100.388797">
<time>2016-08-13T12:26:15Z</time></trkpt>
<trkpt lat="25.901748" lon="100.388937">
<time>2016-08-13T12:26:16Z</time></trkpt>
<trkpt lat="25.901528" lon="100.389247">
<time>2016-08-13T12:26:17Z</time></trkpt>
<trkpt lat="25.901467" lon="100.389417">
<time>2016-08-13T12:26:18Z</time></trkpt>
<trkpt lat="25.901467" lon="100.389786">
<time>2016-08-13T12:26:19Z</time></trkpt>
<trkpt lat="25.901507" lon="100.390086">
<time>2016-08-13T12:26:20Z</time></trkpt>
<trkpt lat="25.901597" lon="100.390406">
<time>2016-08-13T12:26:21Z</time></trkpt>
<trkpt lat="25.901737" lon="100.390856">
<time>2016-08-13T12:26:22Z</time></trkpt>
<trkpt lat="25.901827" lon="100.391345">
<time>2016-08-13T12:26:23Z</time></trkpt>
<trkpt lat="25.901917" lon="100.391585">
<time>2016-08-13T12:26:24Z</time></trkpt>
<trkpt lat="25.902097" lon="100.391885">
<time>2016-08-13T12:26:25Z</time></trkpt>
<trkpt lat="25.902257" lon="100.392225">
<time>2016-08-13T12:26:26Z</time></trkpt>
<trkpt lat="25.902337" lon="100.392485">
<time>2016-08-13T12:26:27Z</time></trkpt>
<trkpt lat="25.902397" lon="100.392755">
<time>2016-08-13T12:26:28Z</time></trkpt>
<trkpt lat="25.902477" lon="100.392944">
<time>2016-08-13T12:26:29Z</time></trkpt>
<trkpt lat="25.902657" lon="100.393304">
<time>2016-08-13T12:26:30Z</time></trkpt>
<trkpt lat="25.902907" lon="100.393754">
<time>2016-08-13T12:26:31Z</time></trkpt>
<trkpt lat="25.903097" lon="100.394134">
<time>2016-08-13T12:26:32Z</time></trkpt>
<trkpt lat="25.903287" lon="100.394514">
<time>2016-08-13T12:26:33Z</time></trkpt>
<trkpt lat="25.903457" lon="100.394813">
<time>2016-08-13T12:26:34Z</time></trkpt>
<trkpt lat="25.903757" lon="100.395273">
<time>2016-08-13T12:26:35Z</time></trkpt>
<trkpt lat="25.903827" lon="100.395343">
<time>2016-08-13T12:26:36Z</time></trkpt>
<trkpt lat="25.904007" lon="100.395453">
<time>2016-08-13T12:26:37Z</time></trkpt>
<trkpt lat="25.904297" lon="100.395623">
<time>2016-08-13T12:26:38Z</time></trkpt>
<trkpt lat="25.904737" lon="100.395873">
<time>2016-08-13T12:26:39Z</time></trkpt>
<trkpt lat="25.904937" lon="100.396003">
<time>2016-08-13T12:26:40Z</time></trkpt>
<trkpt lat="25.905038" lon="100.396093">
<time>2016-08-13T12:26:41Z</time></trkpt>
<trkpt lat="25.905288" lon="100.396393">
<time>2016-08-13T12:26:42Z</time></trkpt>
<trkpt lat="25.905528" lon="100.396723">
<time>2016-08-13T12:26:43Z</time></trkpt>
<trkpt lat="25.905868" lon="100.397153">
<time>2016-08-13T12:26:44Z</time></trkpt>
<trkpt lat="25.906208" lon="100.397582">
<time>2016-08-13T12:26:45Z</time></trkpt>
<trkpt lat="25.906538" lon="100.398012">
<time>2016-08-13T12:26:46Z</time></trkpt>
<trkpt lat="25.906798" lon="100.398302">
<time>2016-08-13T12:26:47Z</time></trkpt>
<trkpt lat="25.907149" lon="100.398702">
<time>2016-08-13T12:26:48Z</time></trkpt>
<trkpt lat="25.907339" lon="100.398902">
<time>2016-08-13T12:26:49Z</time></trkpt>
<trkpt lat="25.907609" lon="100.399222">
<time>2016-08-13T12:26:50Z</time></trkpt>
<trkpt lat="25.907789" lon="100.399402">
<time>2016-08-13T12:26:51Z</time></trkpt>
<trkpt lat="25.908079" lon="100.399682">
<time>2016-08-13T12:26:52Z</time></trkpt>
<trkpt lat="25.908369" lon="100.399932">
<time>2016-08-13T12:26:53Z</time></trkpt>
<trkpt lat="25.90874" lon="100.400242">
<time>2016-08-13T12:26:54Z</time></trkpt>
<trkpt lat="25.90904" lon="100.400462">
<time>2016-08-13T12:26:55Z</time></trkpt>
<trkpt lat="25.90939" lon="100.400722">
<time>2016-08-13T12:26:56Z</time></trkpt>
<trkpt lat="25.90957" lon="100.400811">
<time>2016-08-13T12:26:57Z</time></trkpt>
<trkpt lat="25.90966" lon="100.400841">
<time>2016-08-13T12:26:58Z</time></trkpt>
<trkpt lat="25.90986" lon="100.400851">
<time>2016-08-13T12:26:59Z</time></trkpt>
<trkpt lat="25.90995" lon="100.400831">
<time>2016-08-13T12:27:00Z</time></trkpt>
<trkpt lat="25.910301" lon="100.400651">
<time>2016-08-13T12:27:01Z</time></trkpt>
<trkpt lat="25.910391" lon="100.400621">
<time>2016-08-13T12:27:02Z</time></trkpt>
<trkpt lat="25.910481" lon="100.400611">
<time>2016-08-13T12:27:03Z</time></trkpt>
<trkpt lat="25.910581" lon="100.400621">
<time>2016-08-13T12:27:04Z</time></trkpt>
<trkpt lat="25.910771" lon="100.400711">
<time>2016-08-13T12:27:05Z</time></trkpt>
<trkpt lat="25.911111" lon="100.401001">
<time>2016-08-13T12:27:06Z</time></trkpt>
<trkpt lat="25.911301" lon="100.401131">
<time>2016-08-13T12:27:07Z</time></trkpt>
<trkpt lat="25.911682" lon="100.401381">
<time>2016-08-13T12:27:08Z</time></trkpt>
<trkpt lat="25.912032" lon="100.401621">
<time>2016-08-13T12:27:09Z</time></trkpt>
<trkpt lat="25.912352" lon="100.401821">
<time>2016-08-13T12:27:10Z</time></trkpt>
<trkpt lat="25.912752" lon="100.402071">
<time>2016-08-13T12:27:11Z</time></trkpt>
<trkpt lat="25.913053" lon="100.402231">
<time>2016-08-13T12:27:12Z</time></trkpt>
<trkpt lat="25.913353" lon="100.402381">
<time>2016-08-13T12:27:13Z</time></trkpt>
<trkpt lat="25.913773" lon="100.402591">
<time>2016-08-13T12:27:14Z</time></trkpt>
<trkpt lat="25.914213" lon="100.402781">
<time>2016-08-13T12:27:15Z</time></trkpt>
<trkpt lat="25.914534" lon="100.402871">
<time>2016-08-13T12:27:16Z</time></trkpt>
<trkpt lat="25.915044" lon="100.403011">
<time>2016-08-13T12:27:17Z</time></trkpt>
<trkpt lat="25.915444" lon="100.403051">
<time>2016-08-13T12:27:18Z</time></trkpt>
<trkpt lat="25.915764" lon="100.403031">
<time>2016-08-13T12:27:19Z</time></trkpt>
<trkpt lat="25.915875" lon="100.403051">
<time>2016-08-13T12:27:20Z</time></trkpt>
<trkpt lat="25.915985" lon="100.403081">
<time>2016-08-13T12:27:21Z</time></trkpt>
<trkpt lat="25.916505" lon="100.403351">
<time>2016-08-13T12:27:22Z</time></trkpt>
<trkpt lat="25.916685" lon="100.403421">
<time>2016-08-13T12:27:23Z</time></trkpt>
<trkpt lat="25.916935" lon="100.403511">
<time>2016-08-13T12:27:24Z</time></trkpt>
<trkpt lat="25.917236" lon="100.403591">
<time>2016-08-13T12:27:25Z</time></trkpt>
<trkpt lat="25.917656" lon="100.403691">
<time>2016-08-13T12:27:26Z</time></trkpt>
<trkpt lat="25.918066" lon="100.403801">
<time>2016-08-13T12:27:27Z</time></trkpt>
<trkpt lat="25.918486" lon="100.403881">
<time>2016-08-13T12:27:28Z</time></trkpt>
<trkpt lat="25.918817" lon="100.403921">
<time>2016-08-13T12:27:29Z</time></trkpt>
<trkpt lat="25.919267" lon="100.403921">
<time>2016-08-13T12:27:30Z</time></trkpt>
<trkpt lat="25.919607" lon="100.403891">
<time>2016-08-13T12:27:31Z</time></trkpt>
<trkpt lat="25.919847" lon="100.403861">
<time>2016-08-13T12:27:32Z</time></trkpt>
<trkpt lat="25.920278" lon="100.403781">
<time>2016-08-13T12:27:33Z</time></trkpt>
<trkpt lat="25.920488" lon="100.403761">
<time>2016-08-13T12:27:34Z</time></trkpt>
<trkpt lat="25.920978" lon="100.403781">
<time>2016-08-13T12:27:35Z</time></trkpt>
<trkpt lat="25.921188" lon="100.403821">
<time>2016-08-13T12:27:36Z</time></trkpt>
<trkpt lat="25.921579" lon="100.403881">
<time>2016-08-13T12:27:37Z</time></trkpt>
<trkpt lat="25.921679" lon="100.403881">
<time>2016-08-13T12:27:38Z</time></trkpt>
<trkpt lat="25.921769" lon="100.403861">
<time>2016-08-13T12:27:39Z</time></trkpt>
<trkpt lat="25.922119" lon="100.403711">
<time>2016-08-13T12:27:40Z</time></trkpt>
<trkpt lat="25.922439" lon="100.403601">
<time>2016-08-13T12:27:41Z</time></trkpt>
<trkpt lat="25.922739" lon="100.403481">
<time>2016-08-13T12:27:42Z</time></trkpt>
<trkpt lat="25.922919" lon="100.403381">
<time>2016-08-13T12:27:43Z</time></trkpt>
<trkpt lat="25.92304" lon="100.403331">
<time>2016-08-13T12:27:44Z</time></trkpt>
<trkpt lat="25.92332" lon="100.403211">
<time>2016-08-13T12:27:45Z</time></trkpt>
<trkpt lat="25.92379" lon="100.403021">
<time>2016-08-13T12:27:46Z</time></trkpt>
<trkpt lat="25.92424" lon="100.402811">
<time>2016-08-13T12:27:47Z</time></trkpt>
<trkpt lat="25.92435" lon="100.402771">
<time>2016-08-13T12:27:48Z</time></trkpt>
<trkpt lat="25.924541" lon="100.402741">
<time>2016-08-13T12:27:49Z</time></trkpt>
<trkpt lat="25.924741" lon="100.402801">
<time>2016-08-13T12:27:50Z</time></trkpt>
<trkpt lat="25.924941" lon="100.402881">
<time>2016-08-13T12:27:51Z</time></trkpt>
<trkpt lat="25.925131" lon="100.402921">
<time>2016-08-13T12:27:52Z</time></trkpt>
<trkpt lat="25.925341" lon="100.402931">
<time>2016-08-13T12:27:53Z</time></trkpt>
<trkpt lat="25.925551" lon="100.402911">
<time>2016-08-13T12:27:54Z</time></trkpt>
<trkpt lat="25.925851" lon="100.402861">
<time>2016-08-13T12:27:55Z</time></trkpt>
<trkpt lat="25.926422" lon="100.402711">
<time>2016-08-13T12:27:56Z</time></trkpt>
<trkpt lat="25.926912" lon="100.402661">
<time>2016-08-13T12:27:57Z</time></trkpt>
<trkpt lat="25.927112" lon="100.402621">
<time>2016-08-13T12:27:58Z</time></trkpt>
<trkpt lat="25.927503" lon="100.402501">
<time>2016-08-13T12:27:59Z</time></trkpt>
<trkpt lat="25.927783" lon="100.402391">
<time>2016-08-13T12:28:00Z</time></trkpt>
<trkpt lat="25.928063" lon="100.402291">
<time>2016-08-13T12:28:01Z</time></trkpt>
<trkpt lat="25.928353" lon="100.402231">
<time>2016-08-13T12:28:02Z</time></trkpt>
<trkpt lat="25.928763" lon="100.402171">
<time>2016-08-13T12:28:03Z</time></trkpt>
<trkpt lat="25.929234" lon="100.402101">
<time>2016-08-13T12:28:04Z</time></trkpt>
<trkpt lat="25.929694" lon="100.402011">
<time>2016-08-13T12:28:05Z</time></trkpt>
<trkpt lat="25.929964" lon="100.401911">
<time>2016-08-13T12:28:06Z</time></trkpt>
<trkpt lat="25.930304" lon="100.401691">
<time>2016-08-13T12:28:07Z</time></trkpt>
<trkpt lat="25.930765" lon="100.401411">
<time>2016-08-13T12:28:08Z</time></trkpt>
<trkpt lat="25.931135" lon="100.401171">
<time>2016-08-13T12:28:09Z</time></trkpt>
<trkpt lat="25.931375" lon="100.401021">
<time>2016-08-13T12:28:10Z</time></trkpt>
<trkpt lat="25.931625" lon="100.400841">
<time>2016-08-13T12:28:11Z</time></trkpt>
<trkpt lat="25.931745" lon="100.400711">
<time>2016-08-13T12:28:12Z</time></trkpt>
<trkpt lat="25.931856" lon="100.400571">
<time>2016-08-13T12:28:13Z</time></trkpt>
<trkpt lat="25.931946" lon="100.400451">
<time>2016-08-13T12:28:14Z</time></trkpt>
<trkpt lat="25.931986" lon="100.400391">
<time>2016-08-13T12:28:15Z</time></trkpt>
<trkpt lat="25.932066" lon="100.400221">
<time>2016-08-13T12:28:16Z</time></trkpt>
<trkpt lat="25.932156" lon="100.399961">
<time>2016-08-13T12:28:17Z</time></trkpt>
<trkpt lat="25.932156" lon="100.399881">
<time>2016-08-13T12:28:18Z</time></trkpt>
<trkpt lat="25.932086" lon="100.399721">
<time>2016-08-13T12:28:19Z</time></trkpt>
<trkpt lat="25.931906" lon="100.399521">
<time>2016-08-13T12:28:20Z</time></trkpt>
<trkpt lat="25.931485" lon="100.399171">
<time>2016-08-13T12:28:21Z</time></trkpt>
<trkpt lat="25.931115" lon="100.398811">
<time>2016-08-13T12:28:22Z</time></trkpt>
<trkpt lat="25.930785" lon="100.398551">
<time>2016-08-13T12:28:23Z</time></trkpt>
<trkpt lat="25.930505" lon="100.398371">
<time>2016-08-13T12:28:24Z</time></trkpt>
<trkpt lat="25.930265" lon="100.398182">
<time>2016-08-13T12:28:25Z</time></trkpt>
<trkpt lat="25.930014" lon="100.397962">
<time>2016-08-13T12:28:26Z</time></trkpt>
<trkpt lat="25.929764" lon="100.397742">
<time>2016-08-13T12:28:27Z</time></trkpt>
<trkpt lat="25.929614" lon="100.397592">
<time>2016-08-13T12:28:28Z</time></trkpt>
<trkpt lat="25.929314" lon="100.397282">
<time>2016-08-13T12:28:29Z</time></trkpt>
<trkpt lat="25.929014" lon="100.396882">
<time>2016-08-13T12:28:30Z</time></trkpt>
<trkpt lat="25.928884" lon="100.396722">
<time>2016-08-13T12:28:31Z</time></trkpt>
<trkpt lat="25.928804" lon="100.396652">
<time>2016-08-13T12:28:32Z</time></trkpt>
<trkpt lat="25.928624" lon="100.396572">
<time>2016-08-13T12:28:33Z</time></trkpt>
<trkpt lat="25.928484" lon="100.396422">
<time>2016-08-13T12:28:34Z</time></trkpt>
<trkpt lat="25.928374" lon="100.396262">
<time>2016-08-13T12:28:35Z</time></trkpt>
<trkpt lat="25.928254" lon="100.395992">
<time>2016-08-13T12:28:36Z</time></trkpt>
<trkpt lat="25.928274" lon="100.395802">
<time>2016-08-13T12:28:37Z</time></trkpt>
<trkpt lat="25.928294" lon="100.395722">
<time>2016-08-13T12:28:38Z</time></trkpt>
<trkpt lat="25.928344" lon="100.395662">
<time>2016-08-13T12:28:39Z</time></trkpt>
<trkpt lat="25.928414" lon="100.395632">
<time>2016-08-13T12:28:40Z</time></trkpt>
<trkpt lat="25.928804" lon="100.395503">
<time>2016-08-13T12:28:41Z</time></trkpt>
<trkpt lat="25.928914" lon="100.395403">
<time>2016-08-13T12:28:42Z</time></trkpt>
<trkpt lat="25.928964" lon="100.395333">
<time>2016-08-13T12:28:43Z</time></trkpt>
<trkpt lat="25.928984" lon="100.395263">
<time>2016-08-13T12:28:44Z</time></trkpt>
<trkpt lat="25.928984" lon="100.395183">
<time>2016-08-13T12:28:45Z</time></trkpt>
<trkpt lat="25.928944" lon="100.395033">
<time>2016-08-13T12:28:46Z</time></trkpt>
<trkpt lat="25.928854" lon="100.394913">
<time>2016-08-13T12:28:47Z</time></trkpt>
<trkpt lat="25.928724" lon="100.394843">
<time>2016-08-13T12:28:48Z</time></trkpt>
<trkpt lat="25.928524" lon="100.394753">
<time>2016-08-13T12:28:49Z</time></trkpt>
<trkpt lat="25.928034" lon="100.394533">
<time>2016-08-13T12:28:50Z</time></trkpt>
<trkpt lat="25.927634" lon="100.394263">
<time>2016-08-13T12:28:51Z</time></trkpt>
<trkpt lat="25.927493" lon="100.394123">
<time>2016-08-13T12:28:52Z</time></trkpt>
<trkpt lat="25.927253" lon="100.393683">
<time>2016-08-13T12:28:53Z</time></trkpt>
<trkpt lat="25.927183" lon="100.393613">
<time>2016-08-13T12:28:54Z</time></trkpt>
<trkpt lat="25.927103" lon="100.393563">
<time>2016-08-13T12:28:55Z</time></trkpt>
<trkpt lat="25.926943" lon="100.393504">
<time>2016-08-13T12:28:56Z</time></trkpt>
<trkpt lat="25.926853" lon="100.393454">
<time>2016-08-13T12:28:57Z</time></trkpt>
<trkpt lat="25.926793" lon="100.393374">
<time>2016-08-13T12:28:58Z</time></trkpt>
<trkpt lat="25.926753" lon="100.393284">
<time>2016-08-13T12:28:59Z</time></trkpt>
<trkpt lat="25.926763" lon="100.393184">
<time>2016-08-13T12:29:00Z</time></trkpt>
<trkpt lat="25.926934" lon="100.392724">
<time>2016-08-13T12:29:01Z</time></trkpt>
<trkpt lat="25.926934" lon="100.392634">
<time>2016-08-13T12:29:02Z</time></trkpt>
<trkpt lat="25.926864" lon="100.392454">
<time>2016-08-13T12:29:03Z</time></trkpt>
<trkpt lat="25.926814" lon="100.392384">
<time>2016-08-13T12:29:04Z</time></trkpt>
<trkpt lat="25.926744" lon="100.392324">
<time>2016-08-13T12:29:05Z</time></trkpt>
<trkpt lat="25.926664" lon="100.392284">
<time>2016-08-13T12:29:06Z</time></trkpt>
<trkpt lat="25.926233" lon="100.392244">
<time>2016-08-13T12:29:07Z</time></trkpt>
<trkpt lat="25.926073" lon="100.392184">
<time>2016-08-13T12:29:08Z</time></trkpt>
<trkpt lat="25.926033" lon="100.392114">
<time>2016-08-13T12:29:09Z</time></trkpt>
<trkpt lat="25.926043" lon="100.391854">
<time>2016-08-13T12:29:10Z</time></trkpt>
<trkpt lat="25.926023" lon="100.391774">
<time>2016-08-13T12:29:11Z</time></trkpt>
<trkpt lat="25.925973" lon="100.391715">
<time>2016-08-13T12:29:12Z</time></trkpt>
<trkpt lat="25.925783" lon="100.391595">
<time>2016-08-13T12:29:13Z</time></trkpt>
<trkpt lat="25.925653" lon="100.391495">
<time>2016-08-13T12:29:14Z</time></trkpt>
<trkpt lat="25.925613" lon="100.391425">
<time>2016-08-13T12:29:15Z</time></trkpt>
<trkpt lat="25.925653" lon="100.391175">
<time>2016-08-13T12:29:16Z</time></trkpt>
<trkpt lat="25.925653" lon="100.390995">
<time>2016-08-13T12:29:17Z</time></trkpt>
<trkpt lat="25.925613" lon="100.390695">
<time>2016-08-13T12:29:18Z</time></trkpt>
<trkpt lat="25.925503" lon="100.390575">
<time>2016-08-13T12:29:19Z</time></trkpt>
<trkpt lat="25.925283" lon="100.390465">
<time>2016-08-13T12:29:20Z</time></trkpt>
<trkpt lat="25.925143" lon="100.390355">
<time>2016-08-13T12:29:21Z</time></trkpt>
<trkpt lat="25.925043" lon="100.390235">
<time>2016-08-13T12:29:22Z</time></trkpt>
<trkpt lat="25.925063" lon="100.390156">
<time>2016-08-13T12:29:23Z</time></trkpt>
<trkpt lat="25.925123" lon="100.390036">
<time>2016-08-13T12:29:24Z</time></trkpt>
<trkpt lat="25.925173" lon="100.389906">
<time>2016-08-13T12:29:25Z</time></trkpt>
<trkpt lat="25.925254" lon="100.389736">
<time>2016-08-13T12:29:26Z</time></trkpt>
<trkpt lat="25.925324" lon="100.389606">
<time>2016-08-13T12:29:27Z</time></trkpt>
<trkpt lat="25.925434" lon="100.389386">
<time>2016-08-13T12:29:28Z</time></trkpt>
<trkpt lat="25.925484" lon="100.389336">
<time>2016-08-13T12:29:29Z</time></trkpt>
<trkpt lat="25.925634" lon="100.389296">
<time>2016-08-13T12:29:30Z</time></trkpt>
<trkpt lat="25.925724" lon="100.389306">
<time>2016-08-13T12:29:31Z</time></trkpt>
<trkpt lat="25.926054" lon="100.389356">
<time>2016-08-13T12:29:32Z</time></trkpt>
<trkpt lat="25.926405" lon="100.389376">
<time>2016-08-13T12:29:33Z</time></trkpt>
<trkpt lat="25.926465" lon="100.389356">
<time>2016-08-13T12:29:34Z</time></trkpt>
<trkpt lat="25.926515" lon="100.389306">
<time>2016-08-13T12:29:35Z</time></trkpt>
<trkpt lat="25.926625" lon="100.389156">
<time>2016-08-13T12:29:36Z</time></trkpt>
<trkpt lat="25.926795" lon="100.388986">
<time>2016-08-13T12:29:37Z</time></trkpt>
<trkpt lat="25.926885" lon="100.388946">
<time>2016-08-13T12:29:38Z</time></trkpt>
<trkpt lat="25.926975" lon="100.388956">
<time>2016-08-13T12:29:39Z</time></trkpt>
<trkpt lat="25.927325" lon="100.389056">
<time>2016-08-13T12:29:40Z</time></trkpt>
<trkpt lat="25.927415" lon="100.389056">
<time>2016-08-13T12:29:41Z</time></trkpt>
<trkpt lat="25.927506" lon="100.389026">
<time>2016-08-13T12:29:42Z</time></trkpt>
<trkpt lat="25.927666" lon="100.388916">
<time>2016-08-13T12:29:43Z</time></trkpt>
<trkpt lat="25.927946" lon="100.388656">
<time>2016-08-13T12:29:44Z</time></trkpt>
<trkpt lat="25.928156" lon="100.388417">
<time>2016-08-13T12:29:45Z</time></trkpt>
<trkpt lat="25.928387" lon="100.388167">
<time>2016-08-13T12:29:46Z</time></trkpt>
<trkpt lat="25.928477" lon="100.387967">
<time>2016-08-13T12:29:47Z</time></trkpt>
<trkpt lat="25.928507" lon="100.387857">
<time>2016-08-13T12:29:48Z</time></trkpt>
<trkpt lat="25.928537" lon="100.387387">
<time>2016-08-13T12:29:49Z</time></trkpt>
<trkpt lat="25.928597" lon="100.387068">
<time>2016-08-13T12:29:50Z</time></trkpt>
<trkpt lat="25.928698" lon="100.386798">
<time>2016-08-13T12:29:51Z</time></trkpt>
<trkpt lat="25.928758" lon="100.386718">
<time>2016-08-13T12:29:52Z</time></trkpt>
<trkpt lat="25.928938" lon="100.386618">
<time>2016-08-13T12:29:53Z</time></trkpt>
<trkpt lat="25.929058" lon="100.386578">
<time>2016-08-13T12:29:54Z</time></trkpt>
<trkpt lat="25.929568" lon="100.386328">
<time>2016-08-13T12:29:55Z</time></trkpt>
<trkpt lat="25.929649" lon="100.386268">
<time>2016-08-13T12:29:56Z</time></trkpt>
<trkpt lat="25.929699" lon="100.386178">
<time>2016-08-13T12:29:57Z</time></trkpt>
<trkpt lat="25.929729" lon="100.386088">
<time>2016-08-13T12:29:58Z</time></trkpt>
<trkpt lat="25.929769" lon="100.385899">
<time>2016-08-13T12:29:59Z</time></trkpt>
<trkpt lat="25.929739" lon="100.385549">
<time>2016-08-13T12:30:00Z</time></trkpt>
<trkpt lat="25.929629" lon="100.385329">
<time>2016-08-13T12:30:01Z</time></trkpt>
<trkpt lat="25.929549" lon="100.385129">
<time>2016-08-13T12:30:02Z</time></trkpt>
<trkpt lat="25.929539" lon="100.384989">
<time>2016-08-13T12:30:03Z</time></trkpt>
<trkpt lat="25.929569" lon="100.384919">
<time>2016-08-13T12:30:04Z</time></trkpt>
<trkpt lat="25.92971" lon="100.384859">
<time>2016-08-13T12:30:05Z</time></trkpt>
<trkpt lat="25.9298" lon="100.38485">
<time>2016-08-13T12:30:06Z</time></trkpt>
<trkpt lat="25.93032" lon="100.384869">
<time>2016-08-13T12:30:07Z</time></trkpt>
<trkpt lat="25.93054" lon="100.384899">
<time>2016-08-13T12:30:08Z</time></trkpt>
<trkpt lat="25.93085" lon="100.384959">
<time>2016-08-13T12:30:09Z</time></trkpt>
<trkpt lat="25.93119" lon="100.385009">
<time>2016-08-13T12:30:10Z</time></trkpt>
<trkpt lat="25.931491" lon="100.385019">
<time>2016-08-13T12:30:11Z</time></trkpt>
<trkpt lat="25.931971" lon="100.384929">
<time>2016-08-13T12:30:12Z</time></trkpt>
<trkpt lat="25.932051" lon="100.384879">
<time>2016-08-13T12:30:13Z</time></trkpt>
<trkpt lat="25.932131" lon="100.384819">
<time>2016-08-13T12:30:14Z</time></trkpt>
<trkpt lat="25.932171" lon="100.38473">
<time>2016-08-13T12:30:15Z</time></trkpt>
<trkpt lat="25.932201" lon="100.38461">
<time>2016-08-13T12:30:16Z</time></trkpt>
<trkpt lat="25.932132" lon="100.38408">
<time>2016-08-13T12:30:17Z</time></trkpt>
<trkpt lat="25.932132" lon="100.38395">
<time>2016-08-13T12:30:18Z</time></trkpt>
<trkpt lat="25.932162" lon="100.38384">
<time>2016-08-13T12:30:19Z</time></trkpt>
<trkpt lat="25.932272" lon="100.383631">
<time>2016-08-13T12:30:20Z</time></trkpt>
<trkpt lat="25.932312" lon="100.383521">
<time>2016-08-13T12:30:21Z</time></trkpt>
<trkpt lat="25.932432" lon="100.383311">
<time>2016-08-13T12:30:22Z</time></trkpt>
<trkpt lat="25.932633" lon="100.383041">
<time>2016-08-13T12:30:23Z</time></trkpt>
<trkpt lat="25.932883" lon="100.382721">
<time>2016-08-13T12:30:24Z</time></trkpt>
<trkpt lat="25.933124" lon="100.382432">
<time>2016-08-13T12:30:25Z</time></trkpt>
<trkpt lat="25.933314" lon="100.382152">
<time>2016-08-13T12:30:26Z</time></trkpt>
<trkpt lat="25.933444" lon="100.381962">
<time>2016-08-13T12:30:27Z</time></trkpt>
<trkpt lat="25.933554" lon="100.381742">
<time>2016-08-13T12:30:28Z</time></trkpt>
<trkpt lat="25.933605" lon="100.381563">
<time>2016-08-13T12:30:29Z</time></trkpt>
<trkpt lat="25.933635" lon="100.381403">
<time>2016-08-13T12:30:30Z</time></trkpt>
<trkpt lat="25.933665" lon="100.380883">
<time>2016-08-13T12:30:31Z</time></trkpt>
<trkpt lat="25.933705" lon="100.380813">
<time>2016-08-13T12:30:32Z</time></trkpt>
<trkpt lat="25.933775" lon="100.380753">
<time>2016-08-13T12:30:33Z</time></trkpt>
<trkpt lat="25.934106" lon="100.380494">
<time>2016-08-13T12:30:34Z</time></trkpt>
<trkpt lat="25.934176" lon="100.380414">
<time>2016-08-13T12:30:35Z</time></trkpt>
<trkpt lat="25.934226" lon="100.380324">
<time>2016-08-13T12:30:36Z</time></trkpt>
<trkpt lat="25.934266" lon="100.380224">
<time>2016-08-13T12:30:37Z</time></trkpt>
<trkpt lat="25.934327" lon="100.379774">
<time>2016-08-13T12:30:38Z</time></trkpt>
<trkpt lat="25.934337" lon="100.379425">
<time>2016-08-13T12:30:39Z</time></trkpt>
<trkpt lat="25.934337" lon="100.379315">
<time>2016-08-13T12:30:40Z</time></trkpt>
<trkpt lat="25.934277" lon="100.378975">
<time>2016-08-13T12:30:41Z</time></trkpt>
<trkpt lat="25.934208" lon="100.378506">
<time>2016-08-13T12:30:42Z</time></trkpt>
<trkpt lat="25.934128" lon="100.378276">
<time>2016-08-13T12:30:43Z</time></trkpt>
<trkpt lat="25.934118" lon="100.378196">
<time>2016-08-13T12:30:44Z</time></trkpt>
<trkpt lat="25.934118" lon="100.378116">
<time>2016-08-13T12:30:45Z</time></trkpt>
<trkpt lat="25.934208" lon="100.377986">
<time>2016-08-13T12:30:46Z</time></trkpt>
<trkpt lat="25.934278" lon="100.377976">
<time>2016-08-13T12:30:47Z</time></trkpt>
<trkpt lat="25.934408" lon="100.378026">
<time>2016-08-13T12:30:48Z</time></trkpt>
<trkpt lat="25.934678" lon="100.378256">
<time>2016-08-13T12:30:49Z</time></trkpt>
<trkpt lat="25.934828" lon="100.378356">
<time>2016-08-13T12:30:50Z</time></trkpt>
<trkpt lat="25.935018" lon="100.378396">
<time>2016-08-13T12:30:51Z</time></trkpt>
<trkpt lat="25.935309" lon="100.378416">
<time>2016-08-13T12:30:52Z</time></trkpt>
<trkpt lat="25.935509" lon="100.378446">
<time>2016-08-13T12:30:53Z</time></trkpt>
<trkpt lat="25.935709" lon="100.378516">
<time>2016-08-13T12:30:54Z</time></trkpt>
<trkpt lat="25.935879" lon="100.378626">
<time>2016-08-13T12:30:55Z</time></trkpt>
<trkpt lat="25.936149" lon="100.378845">
<time>2016-08-13T12:30:56Z</time></trkpt>
<trkpt lat="25.936289" lon="100.378935">
<time>2016-08-13T12:30:57Z</time></trkpt>
<trkpt lat="25.936369" lon="100.378965">
<time>2016-08-13T12:30:58Z</time></trkpt>
<trkpt lat="25.936449" lon="100.378965">
<time>2016-08-13T12:30:59Z</time></trkpt>
<trkpt lat="25.936519" lon="100.378935">
<time>2016-08-13T12:31:00Z</time></trkpt>
<trkpt lat="25.936829" lon="100.378676">
<time>2016-08-13T12:31:01Z</time></trkpt>
<trkpt lat="25.93718" lon="100.378426">
<time>2016-08-13T12:31:02Z</time></trkpt>
<trkpt lat="25.93747" lon="100.378326">
<time>2016-08-13T12:31:03Z</time></trkpt>
<trkpt lat="25.93784" lon="100.378206">
<time>2016-08-13T12:31:04Z</time></trkpt>
<trkpt lat="25.938011" lon="100.378176">
<time>2016-08-13T12:31:05Z</time></trkpt>
<trkpt lat="25.938101" lon="100.378196">
<time>2016-08-13T12:31:06Z</time></trkpt>
<trkpt lat="25.938171" lon="100.378266">
<time>2016-08-13T12:31:07Z</time></trkpt>
<trkpt lat="25.938301" lon="100.378436">
<time>2016-08-13T12:31:08Z</time></trkpt>
<trkpt lat="25.93845" lon="100.378706">
<time>2016-08-13T12:31:09Z</time></trkpt>
<trkpt lat="25.93851" lon="100.378775">
<time>2016-08-13T12:31:10Z</time></trkpt>
<trkpt lat="25.93858" lon="100.378815">
<time>2016-08-13T12:31:11Z</time></trkpt>
<trkpt lat="25.93867" lon="100.378835">
<time>2016-08-13T12:31:12Z</time></trkpt>
<trkpt lat="25.938841" lon="100.378835">
<time>2016-08-13T12:31:13Z</time></trkpt>
<trkpt lat="25.938921" lon="100.378825">
<time>2016-08-13T12:31:14Z</time></trkpt>
<trkpt lat="25.938991" lon="100.378775">
<time>2016-08-13T12:31:15Z</time></trkpt>
<trkpt lat="25.939041" lon="100.378706">
<time>2016-08-13T12:31:16Z</time></trkpt>
<trkpt lat="25.939081" lon="100.378616">
<time>2016-08-13T12:31:17Z</time></trkpt>
<trkpt lat="25.939131" lon="100.378406">
<time>2016-08-13T12:31:18Z</time></trkpt>
<trkpt lat="25.939182" lon="100.378056">
<time>2016-08-13T12:31:19Z</time></trkpt>
<trkpt lat="25.939182" lon="100.377707">
<time>2016-08-13T12:31:20Z</time></trkpt>
<trkpt lat="25.939222" lon="100.377287">
<time>2016-08-13T12:31:21Z</time></trkpt>
<trkpt lat="25.939222" lon="100.377077">
<time>2016-08-13T12:31:22Z</time></trkpt>
<trkpt lat="25.939203" lon="100.376978">
<time>2016-08-13T12:31:23Z</time></trkpt>
<trkpt lat="25.939103" lon="100.376688">
<time>2016-08-13T12:31:24Z</time></trkpt>
<trkpt lat="25.939113" lon="100.376478">
<time>2016-08-13T12:31:25Z</time></trkpt>
<trkpt lat="25.939203" lon="100.376218">
<time>2016-08-13T12:31:26Z</time></trkpt>
<trkpt lat="25.939243" lon="100.376159">
<time>2016-08-13T12:31:27Z</time></trkpt>
<trkpt lat="25.939283" lon="100.376109">
<time>2016-08-13T12:31:28Z</time></trkpt>
<trkpt lat="25.939344" lon="100.376089">
<time>2016-08-13T12:31:29Z</time></trkpt>
<trkpt lat="25.939474" lon="100.376169">
<time>2016-08-13T12:31:30Z</time></trkpt>
<trkpt lat="25.939683" lon="100.376428">
<time>2016-08-13T12:31:31Z</time></trkpt>
<trkpt lat="25.939833" lon="100.376558">
<time>2016-08-13T12:31:32Z</time></trkpt>
<trkpt lat="25.940173" lon="100.376738">
<time>2016-08-13T12:31:33Z</time></trkpt>
<trkpt lat="25.940334" lon="100.376788">
<time>2016-08-13T12:31:34Z</time></trkpt>
<trkpt lat="25.940404" lon="100.376778">
<time>2016-08-13T12:31:35Z</time></trkpt>
<trkpt lat="25.940484" lon="100.376758">
<time>2016-08-13T12:31:36Z</time></trkpt>
<trkpt lat="25.940554" lon="100.376718">
<time>2016-08-13T12:31:37Z</time></trkpt>
<trkpt lat="25.940694" lon="100.376578">
<time>2016-08-13T12:31:38Z</time></trkpt>
<trkpt lat="25.940824" lon="100.376408">
<time>2016-08-13T12:31:39Z</time></trkpt>
<trkpt lat="25.941025" lon="100.376069">
<time>2016-08-13T12:31:40Z</time></trkpt>
<trkpt lat="25.941215" lon="100.375849">
<time>2016-08-13T12:31:41Z</time></trkpt>
<trkpt lat="25.941365" lon="100.375589">
<time>2016-08-13T12:31:42Z</time></trkpt>
<trkpt lat="25.941466" lon="100.37531">
<time>2016-08-13T12:31:43Z</time></trkpt>
<trkpt lat="25.941466" lon="100.37521">
<time>2016-08-13T12:31:44Z</time></trkpt>
<trkpt lat="25.941446" lon="100.37509">
<time>2016-08-13T12:31:45Z</time></trkpt>
<trkpt lat="25.941426" lon="100.37502">
<time>2016-08-13T12:31:46Z</time></trkpt>
<trkpt lat="25.941386" lon="100.37488">
<time>2016-08-13T12:31:47Z</time></trkpt>
<trkpt lat="25.941196" lon="100.374541">
<time>2016-08-13T12:31:48Z</time></trkpt>
<trkpt lat="25.941136" lon="100.374471">
<time>2016-08-13T12:31:49Z</time></trkpt>
<trkpt lat="25.940977" lon="100.374151">
<time>2016-08-13T12:31:50Z</time></trkpt>
<trkpt lat="25.940977" lon="100.374061">
<time>2016-08-13T12:31:51Z</time></trkpt>
<trkpt lat="25.941047" lon="100.373891">
<time>2016-08-13T12:31:52Z</time></trkpt>
<trkpt lat="25.941167" lon="100.373742">
<time>2016-08-13T12:31:53Z</time></trkpt>
<trkpt lat="25.941227" lon="100.373722">
<time>2016-08-13T12:31:54Z</time></trkpt>
<trkpt lat="25.941297" lon="100.373732">
<time>2016-08-13T12:31:55Z</time></trkpt>
<trkpt lat="25.941427" lon="100.373821">
<time>2016-08-13T12:31:56Z</time></trkpt>
<trkpt lat="25.941727" lon="100.374121">
<time>2016-08-13T12:31:57Z</time></trkpt>
<trkpt lat="25.941877" lon="100.374211">
<time>2016-08-13T12:31:58Z</time></trkpt>
<trkpt lat="25.941947" lon="100.374221">
<time>2016-08-13T12:31:59Z</time></trkpt>
<trkpt lat="25.942228" lon="100.374161">
<time>2016-08-13T12:32:00Z</time></trkpt>
<trkpt lat="25.942418" lon="100.374081">
<time>2016-08-13T12:32:01Z</time></trkpt>
<trkpt lat="25.942498" lon="100.374011">
<time>2016-08-13T12:32:02Z</time></trkpt>
<trkpt lat="25.942568" lon="100.373941">
<time>2016-08-13T12:32:03Z</time></trkpt>
<trkpt lat="25.942758" lon="100.373672">
<time>2016-08-13T12:32:04Z</time></trkpt>
<trkpt lat="25.942939" lon="100.373372">
<time>2016-08-13T12:32:05Z</time></trkpt>
<trkpt lat="25.942969" lon="100.373312">
<time>2016-08-13T12:32:06Z</time></trkpt>
<trkpt lat="25.943059" lon="100.373102">
<time>2016-08-13T12:32:07Z</time></trkpt>
<trkpt lat="25.94317" lon="100.372773">
<time>2016-08-13T12:32:08Z</time></trkpt>
<trkpt lat="25.94323" lon="100.372423">
<time>2016-08-13T12:32:09Z</time></trkpt>
<trkpt lat="25.943291" lon="100.372054">
<time>2016-08-13T12:32:10Z</time></trkpt>
<trkpt lat="25.943401" lon="100.371565">
<time>2016-08-13T12:32:11Z</time></trkpt>
<trkpt lat="25.943482" lon="100.371345">
<time>2016-08-13T12:32:12Z</time></trkpt>
<trkpt lat="25.943582" lon="100.371135">
<time>2016-08-13T12:32:13Z</time></trkpt>
<trkpt lat="25.943792" lon="100.370726">
<time>2016-08-13T12:32:14Z</time></trkpt>
<trkpt lat="25.943933" lon="100.370456">
<time>2016-08-13T12:32:15Z</time></trkpt>
<trkpt lat="25.943993" lon="100.370386">
<time>2016-08-13T12:32:16Z</time></trkpt>
<trkpt lat="25.944063" lon="100.370346">
<time>2016-08-13T12:32:17Z</time></trkpt>
<trkpt lat="25.944143" lon="100.370316">
<time>2016-08-13T12:32:18Z</time></trkpt>
<trkpt lat="25.944213" lon="100.370346">
<time>2016-08-13T12:32:19Z</time></trkpt>
<trkpt lat="25.944273" lon="100.370406">
<time>2016-08-13T12:32:20Z</time></trkpt>
<trkpt lat="25.944303" lon="100.370556">
<time>2016-08-13T12:32:21Z</time></trkpt>
<trkpt lat="25.944293" lon="100.370646">
<time>2016-08-13T12:32:22Z</time></trkpt>
<trkpt lat="25.944273" lon="100.370826">
<time>2016-08-13T12:32:23Z</time></trkpt>
<trkpt lat="25.944232" lon="100.371035">
<time>2016-08-13T12:32:24Z</time></trkpt>
<trkpt lat="25.944132" lon="100.371535">
<time>2016-08-13T12:32:25Z</time></trkpt>
<trkpt lat="25.944041" lon="100.372044">
<time>2016-08-13T12:32:26Z</time></trkpt>
<trkpt lat="25.943941" lon="100.372433">
<time>2016-08-13T12:32:27Z</time></trkpt>
<trkpt lat="25.94378" lon="100.372953">
<time>2016-08-13T12:32:28Z</time></trkpt>
<trkpt lat="25.943609" lon="100.373492">
<time>2016-08-13T12:32:29Z</time></trkpt>
<trkpt lat="25.943499" lon="100.373761">
<time>2016-08-13T12:32:30Z</time></trkpt>
<trkpt lat="25.943328" lon="100.374141">
<time>2016-08-13T12:32:31Z</time></trkpt>
<trkpt lat="25.943238" lon="100.374401">
<time>2016-08-13T12:32:32Z</time></trkpt>
<trkpt lat="25.943188" lon="100.37467">
<time>2016-08-13T12:32:33Z</time></trkpt>
<trkpt lat="25.943187" lon="100.37502">
<time>2016-08-13T12:32:34Z</time></trkpt>
<trkpt lat="25.943177" lon="100.3752">
<time>2016-08-13T12:32:35Z</time></trkpt>
<trkpt lat="25.943127" lon="100.375449">
<time>2016-08-13T12:32:36Z</time></trkpt>
<trkpt lat="25.943077" lon="100.375569">
<time>2016-08-13T12:32:37Z</time></trkpt>
<trkpt lat="25.943007" lon="100.375669">
<time>2016-08-13T12:32:38Z</time></trkpt>
<trkpt lat="25.942836" lon="100.375859">
<time>2016-08-13T12:32:39Z</time></trkpt>
<trkpt lat="25.942496" lon="100.376238">
<time>2016-08-13T12:32:40Z</time></trkpt>
<trkpt lat="25.942155" lon="100.376628">
<time>2016-08-13T12:32:41Z</time></trkpt>
<trkpt lat="25.942025" lon="100.376858">
<time>2016-08-13T12:32:42Z</time></trkpt>
<trkpt lat="25.941914" lon="100.377097">
<time>2016-08-13T12:32:43Z</time></trkpt>
<trkpt lat="25.941784" lon="100.377467">
<time>2016-08-13T12:32:44Z</time></trkpt>
<trkpt lat="25.941754" lon="100.377597">
<time>2016-08-13T12:32:45Z</time></trkpt>
<trkpt lat="25.941754" lon="100.377737">
<time>2016-08-13T12:32:46Z</time></trkpt>
<trkpt lat="25.941763" lon="100.378006">
<time>2016-08-13T12:32:47Z</time></trkpt>
<trkpt lat="25.941793" lon="100.378416">
<time>2016-08-13T12:32:48Z</time></trkpt>
<trkpt lat="25.941783" lon="100.378675">
<time>2016-08-13T12:32:49Z</time></trkpt>
<trkpt lat="25.941682" lon="100.379045">
<time>2016-08-13T12:32:50Z</time></trkpt>
<trkpt lat="25.941582" lon="100.379305">
<time>2016-08-13T12:32:51Z</time></trkpt>
<trkpt lat="25.941442" lon="100.379684">
<time>2016-08-13T12:32:52Z</time></trkpt>
<trkpt lat="25.941281" lon="100.380174">
<time>2016-08-13T12:32:53Z</time></trkpt>
<trkpt lat="25.941231" lon="100.380414">
<time>2016-08-13T12:32:54Z</time></trkpt>
<trkpt lat="25.941231" lon="100.380523">
<time>2016-08-13T12:32:55Z</time></trkpt>
<trkpt lat="25.9413" lon="100.381143">
<time>2016-08-13T12:32:56Z</time></trkpt>
<trkpt lat="25.94133" lon="100.381572">
<time>2016-08-13T12:32:57Z</time></trkpt>
<trkpt lat="25.94133" lon="100.381862">
<time>2016-08-13T12:32:58Z</time></trkpt>
<trkpt lat="25.941329" lon="100.382402">
<time>2016-08-13T12:32:59Z</time></trkpt>
<trkpt lat="25.941349" lon="100.382821">
<time>2016-08-13T12:33:00Z</time></trkpt>
<trkpt lat="25.941359" lon="100.383391">
<time>2016-08-13T12:33:01Z</time></trkpt>
<trkpt lat="25.941358" lon="100.38382">
<time>2016-08-13T12:33:02Z</time></trkpt>
<trkpt lat="25.941338" lon="100.38408">
<time>2016-08-13T12:33:03Z</time></trkpt>
<trkpt lat="25.941258" lon="100.38435">
<time>2016-08-13T12:33:04Z</time></trkpt>
<trkpt lat="25.941037" lon="100.384819">
<time>2016-08-13T12:33:05Z</time></trkpt>
<trkpt lat="25.940827" lon="100.385119">
<time>2016-08-13T12:33:06Z</time></trkpt>
<trkpt lat="25.940547" lon="100.385509">
<time>2016-08-13T12:33:07Z</time></trkpt>
<trkpt lat="25.940446" lon="100.385708">
<time>2016-08-13T12:33:08Z</time></trkpt>
<trkpt lat="25.940346" lon="100.386158">
<time>2016-08-13T12:33:09Z</time></trkpt>
<trkpt lat="25.940286" lon="100.386598">
<time>2016-08-13T12:33:10Z</time></trkpt>
<trkpt lat="25.940286" lon="100.386808">
<time>2016-08-13T12:33:11Z</time></trkpt>
<trkpt lat="25.940375" lon="100.387427">
<time>2016-08-13T12:33:12Z</time></trkpt>
<trkpt lat="25.940375" lon="100.387657">
<time>2016-08-13T12:33:13Z</time></trkpt>
<trkpt lat="25.940325" lon="100.387947">
<time>2016-08-13T12:33:14Z</time></trkpt>
<trkpt lat="25.940155" lon="100.388466">
<time>2016-08-13T12:33:15Z</time></trkpt>
<trkpt lat="25.940064" lon="100.388606">
<time>2016-08-13T12:33:16Z</time></trkpt>
<trkpt lat="25.939944" lon="100.388706">
<time>2016-08-13T12:33:17Z</time></trkpt>
<trkpt lat="25.939904" lon="100.388736">
<time>2016-08-13T12:33:18Z</time></trkpt>
<trkpt lat="25.939874" lon="100.388746">
<time>2016-08-13T12:33:19Z</time></trkpt>
<trkpt lat="25.939844" lon="100.388756">
<time>2016-08-13T12:33:20Z</time></trkpt>
<trkpt lat="25.939794" lon="100.388766">
<time>2016-08-13T12:33:21Z</time></trkpt>
<trkpt lat="25.939594" lon="100.388816">
<time>2016-08-13T12:33:22Z</time></trkpt>
<trkpt lat="25.939564" lon="100.388816">
<time>2016-08-13T12:33:23Z</time></trkpt>
<trkpt lat="25.939534" lon="100.388826">
<time>2016-08-13T12:33:24Z</time></trkpt>
<trkpt lat="25.939514" lon="100.388826">
<time>2016-08-13T12:33:25Z</time></trkpt>
<trkpt lat="25.939484" lon="100.388846">
<time>2016-08-13T12:33:26Z</time></trkpt>
<trkpt lat="25.939464" lon="100.388856">
<time>2016-08-13T12:33:27Z</time></trkpt>
<trkpt lat="25.939444" lon="100.388886">
<time>2016-08-13T12:33:28Z</time></trkpt>
<trkpt lat="25.939424" lon="100.388916">
<time>2016-08-13T12:33:29Z</time></trkpt>
<trkpt lat="25.939414" lon="100.388966">
<time>2016-08-13T12:33:30Z</time></trkpt>
<trkpt lat="25.939424" lon="100.388996">
<time>2016-08-13T12:33:31Z</time></trkpt>
<trkpt lat="25.939434" lon="100.389036">
<time>2016-08-13T12:33:32Z</time></trkpt>
<trkpt lat="25.939474" lon="100.389146">
<time>2016-08-13T12:33:33Z</time></trkpt>
<trkpt lat="25.939604" lon="100.389396">
<time>2016-08-13T12:33:34Z</time></trkpt>
<trkpt lat="25.939634" lon="100.389466">
<time>2016-08-13T12:33:35Z</time></trkpt>
<trkpt lat="25.939654" lon="100.389546">
<time>2016-08-13T12:33:36Z</time></trkpt>
<trkpt lat="25.939664" lon="100.389615">
<time>2016-08-13T12:33:37Z</time></trkpt>
<trkpt lat="25.939674" lon="100.389655">
<time>2016-08-13T12:33:38Z</time></trkpt>
<trkpt lat="25.939664" lon="100.389705">
<time>2016-08-13T12:33:39Z</time></trkpt>
<trkpt lat="25.939664" lon="100.389745">
<time>2016-08-13T12:33:40Z</time></trkpt>
<trkpt lat="25.939644" lon="100.389795">
<time>2016-08-13T12:33:41Z</time></trkpt>
<trkpt lat="25.939624" lon="100.389895">
<time>2016-08-13T12:33:42Z</time></trkpt>
<trkpt lat="25.939563" lon="100.390065">
<time>2016-08-13T12:33:43Z</time></trkpt>
<trkpt lat="25.939483" lon="100.390325">
<time>2016-08-13T12:33:44Z</time></trkpt>
<trkpt lat="25.939463" lon="100.390425">
<time>2016-08-13T12:33:45Z</time></trkpt>
<trkpt lat="25.939443" lon="100.390545">
<time>2016-08-13T12:33:46Z</time></trkpt>
<trkpt lat="25.939433" lon="100.390805">
<time>2016-08-13T12:33:47Z</time></trkpt>
<trkpt lat="25.939433" lon="100.391085">
<time>2016-08-13T12:33:48Z</time></trkpt>
<trkpt lat="25.939433" lon="100.391194">
<time>2016-08-13T12:33:49Z</time></trkpt>
<trkpt lat="25.939433" lon="100.391364">
<time>2016-08-13T12:33:50Z</time></trkpt>
<trkpt lat="25.939423" lon="100.391484">
<time>2016-08-13T12:33:51Z</time></trkpt>
<trkpt lat="25.939403" lon="100.391634">
<time>2016-08-13T12:33:52Z</time></trkpt>
<trkpt lat="25.939373" lon="100.391744">
<time>2016-08-13T12:33:53Z</time></trkpt>
<trkpt lat="25.939192" lon="100.392354">
<time>2016-08-13T12:33:54Z</time></trkpt>
<trkpt lat="25.939162" lon="100.392514">
<time>2016-08-13T12:33:55Z</time></trkpt>
<trkpt lat="25.939142" lon="100.392654">
<time>2016-08-13T12:33:56Z</time></trkpt>
<trkpt lat="25.939132" lon="100.392734">
<time>2016-08-13T12:33:57Z</time></trkpt>
<trkpt lat="25.939122" lon="100.392844">
<time>2016-08-13T12:33:58Z</time></trkpt>
<trkpt lat="25.939122" lon="100.393603">
<time>2016-08-13T12:33:59Z</time></trkpt>
<trkpt lat="25.939122" lon="100.393743">
<time>2016-08-13T12:34:00Z</time></trkpt>
<trkpt lat="25.939112" lon="100.393823">
<time>2016-08-13T12:34:01Z</time></trkpt>
<trkpt lat="25.939102" lon="100.393863">
<time>2016-08-13T12:34:02Z</time></trkpt>
<trkpt lat="25.939092" lon="100.393913">
<time>2016-08-13T12:34:03Z</time></trkpt>
<trkpt lat="25.939072" lon="100.393963">
<time>2016-08-13T12:34:04Z</time></trkpt>
<trkpt lat="25.939042" lon="100.394013">
<time>2016-08-13T12:34:05Z</time></trkpt>
<trkpt lat="25.939011" lon="100.394063">
<time>2016-08-13T12:34:06Z</time></trkpt>
<trkpt lat="25.938451" lon="100.394933">
<time>2016-08-13T12:34:07Z</time></trkpt>
<trkpt lat="25.938331" lon="100.395122">
<time>2016-08-13T12:34:08Z</time></trkpt>
<trkpt lat="25.938281" lon="100.395232">
<time>2016-08-13T12:34:09Z</time></trkpt>
<trkpt lat="25.938261" lon="100.395302">
<time>2016-08-13T12:34:10Z</time></trkpt>
<trkpt lat="25.938241" lon="100.395372">
<time>2016-08-13T12:34:11Z</time></trkpt>
<trkpt lat="25.938231" lon="100.395402">
<time>2016-08-13T12:34:12Z</time></trkpt>
<trkpt lat="25.938231" lon="100.395432">
<time>2016-08-13T12:34:13Z</time></trkpt>
<trkpt lat="25.938221" lon="100.395552">
<time>2016-08-13T12:34:14Z</time></trkpt>
<trkpt lat="25.938221" lon="100.395712">
<time>2016-08-13T12:34:15Z</time></trkpt>
<trkpt lat="25.93823" lon="100.396072">
<time>2016-08-13T12:34:16Z</time></trkpt>
<trkpt lat="25.93823" lon="100.396152">
<time>2016-08-13T12:34:17Z</time></trkpt>
<trkpt lat="25.93823" lon="100.396202">
<time>2016-08-13T12:34:18Z</time></trkpt>
<trkpt lat="25.93823" lon="100.396262">
<time>2016-08-13T12:34:19Z</time></trkpt>
<trkpt lat="25.93822" lon="100.396302">
<time>2016-08-13T12:34:20Z</time></trkpt>
<trkpt lat="25.93821" lon="100.396352">
<time>2016-08-13T12:34:21Z</time></trkpt>
<trkpt lat="25.9382" lon="100.396402">
<time>2016-08-13T12:34:22Z</time></trkpt>
<trkpt lat="25.93818" lon="100.396452">
<time>2016-08-13T12:34:23Z</time></trkpt>
<trkpt lat="25.93817" lon="100.396492">
<time>2016-08-13T12:34:24Z</time></trkpt>
<trkpt lat="25.93816" lon="100.396522">
<time>2016-08-13T12:34:25Z</time></trkpt>
<trkpt lat="25.93799" lon="100.396882">
<time>2016-08-13T12:34:26Z</time></trkpt>
<trkpt lat="25.93788" lon="100.397192">
<time>2016-08-13T12:34:27Z</time></trkpt>
<trkpt lat="25.93786" lon="100.397282">
<time>2016-08-13T12:34:28Z</time></trkpt>
<trkpt lat="25.93784" lon="100.397382">
<time>2016-08-13T12:34:29Z</time></trkpt>
<trkpt lat="25.93783" lon="100.397422">
<time>2016-08-13T12:34:30Z</time></trkpt>
<trkpt lat="25.93783" lon="100.397502">
<time>2016-08-13T12:34:31Z</time></trkpt>
<trkpt lat="25.93783" lon="100.397552">
<time>2016-08-13T12:34:32Z</time></trkpt>
<trkpt lat="25.93785" lon="100.397632">
<time>2016-08-13T12:34:33Z</time></trkpt>
<trkpt lat="25.93786" lon="100.397701">
<time>2016-08-13T12:34:34Z</time></trkpt>
<trkpt lat="25.93788" lon="100.397761">
<time>2016-08-13T12:34:35Z</time></trkpt>
<trkpt lat="25.93798" lon="100.398031">
<time>2016-08-13T12:34:36Z</time></trkpt>
<trkpt lat="25.938" lon="100.398091">
<time>2016-08-13T12:34:37Z</time></trkpt>
<trkpt lat="25.938" lon="100.398121">
<time>2016-08-13T12:34:38Z</time></trkpt>
<trkpt lat="25.93801" lon="100.398151">
<time>2016-08-13T12:34:39Z</time></trkpt>
<trkpt lat="25.93801" lon="100.398191">
<time>2016-08-13T12:34:40Z</time></trkpt>
<trkpt lat="25.93802" lon="100.398221">
<time>2016-08-13T12:34:41Z</time></trkpt>
<trkpt lat="25.93801" lon="100.398251">
<time>2016-08-13T12:34:42Z</time></trkpt>
<trkpt lat="25.93801" lon="100.398281">
<time>2016-08-13T12:34:43Z</time></trkpt>
<trkpt lat="25.93801" lon="100.398311">
<time>2016-08-13T12:34:44Z</time></trkpt>
<trkpt lat="25.938" lon="100.398351">
<time>2016-08-13T12:34:45Z</time></trkpt>
<trkpt lat="25.93798" lon="100.398401">
<time>2016-08-13T12:34:46Z</time></trkpt>
<trkpt lat="25.93796" lon="100.398461">
<time>2016-08-13T12:34:47Z</time></trkpt>
<trkpt lat="25.93787" lon="100.398701">
<time>2016-08-13T12:34:48Z</time></trkpt>
<trkpt lat="25.93786" lon="100.398741">
<time>2016-08-13T12:34:49Z</time></trkpt>
<trkpt lat="25.93785" lon="100.398801">
<time>2016-08-13T12:34:50Z</time></trkpt>
<trkpt lat="25.93783" lon="100.398931">
<time>2016-08-13T12:34:51Z</time></trkpt>
<trkpt lat="25.93782" lon="100.398971">
<time>2016-08-13T12:34:52Z</time></trkpt>
<trkpt lat="25.93782" lon="100.399031">
<time>2016-08-13T12:34:53Z</time></trkpt>
<trkpt lat="25.93782" lon="100.399081">
<time>2016-08-13T12:34:54Z</time></trkpt>
<trkpt lat="25.93782" lon="100.399411">
<time>2016-08-13T12:34:55Z</time></trkpt>
<trkpt lat="25.93782" lon="100.399631">
<time>2016-08-13T12:34:56Z</time></trkpt>
<trkpt lat="25.93779" lon="100.400151">
<time>2016-08-13T12:34:57Z</time></trkpt>
<trkpt lat="25.93776" lon="100.400401">
<time>2016-08-13T12:34:58Z</time></trkpt>
<trkpt lat="25.93775" lon="100.400491">
<time>2016-08-13T12:34:59Z</time></trkpt>
<trkpt lat="25.93773" lon="100.400621">
<time>2016-08-13T12:35:00Z</time></trkpt>
<trkpt lat="25.9377" lon="100.400731">
<time>2016-08-13T12:35:01Z</time></trkpt>
<trkpt lat="25.937619" lon="100.401011">
<time>2016-08-13T12:35:02Z</time></trkpt>
<trkpt lat="25.937619" lon="100.401011">
<time>2016-08-13T12:35:03Z</time></trkpt>
<trkpt lat="25.93802" lon="100.401021">
<time>2016-08-13T12:35:04Z</time></trkpt>
<trkpt lat="25.93889" lon="100.401031">
<time>2016-08-13T12:35:05Z</time></trkpt>
<trkpt lat="25.93902" lon="100.401011">
<time>2016-08-13T12:35:06Z</time></trkpt>
<trkpt lat="25.939121" lon="100.400991">
<time>2016-08-13T12:35:07Z</time></trkpt>
<trkpt lat="25.940481" lon="100.400491">
<time>2016-08-13T12:35:08Z</time></trkpt>
<trkpt lat="25.940542" lon="100.400471">
<time>2016-08-13T12:35:09Z</time></trkpt>
<trkpt lat="25.941062" lon="100.400211">
<time>2016-08-13T12:35:10Z</time></trkpt>
<trkpt lat="25.941422" lon="100.400021">
<time>2016-08-13T12:35:11Z</time></trkpt>
<trkpt lat="25.941592" lon="100.399971">
<time>2016-08-13T12:35:12Z</time></trkpt>
<trkpt lat="25.941772" lon="100.400021">
<time>2016-08-13T12:35:13Z</time></trkpt>
<trkpt lat="25.942263" lon="100.400251">
<time>2016-08-13T12:35:14Z</time></trkpt>
<trkpt lat="25.942443" lon="100.400401">
<time>2016-08-13T12:35:15Z</time></trkpt>
<trkpt lat="25.942503" lon="100.400461">
<time>2016-08-13T12:35:16Z</time></trkpt>
<trkpt lat="25.942503" lon="100.400461">
<time>2016-08-13T12:35:17Z</time></trkpt>
<trkpt lat="25.942583" lon="100.400371">
<time>2016-08-13T12:35:18Z</time></trkpt>
<trkpt lat="25.943384" lon="100.399511">
<time>2016-08-13T12:35:19Z</time></trkpt>
<trkpt lat="25.943434" lon="100.399471">
<time>2016-08-13T12:35:20Z</time></trkpt>
<trkpt lat="25.943474" lon="100.399441">
<time>2016-08-13T12:35:21Z</time></trkpt>
<trkpt lat="25.944444" lon="100.398841">
<time>2016-08-13T12:35:22Z</time></trkpt>
<trkpt lat="25.944705" lon="100.398681">
<time>2016-08-13T12:35:23Z</time></trkpt>
<trkpt lat="25.944825" lon="100.398631">
<time>2016-08-13T12:35:24Z</time></trkpt>
<trkpt lat="25.944865" lon="100.398631">
<time>2016-08-13T12:35:25Z</time></trkpt>
<trkpt lat="25.944895" lon="100.398631">
<time>2016-08-13T12:35:26Z</time></trkpt>
<trkpt lat="25.944925" lon="100.398631">
<time>2016-08-13T12:35:27Z</time></trkpt>
<trkpt lat="25.944935" lon="100.398651">
<time>2016-08-13T12:35:28Z</time></trkpt>
<trkpt lat="25.944975" lon="100.398691">
<time>2016-08-13T12:35:29Z</time></trkpt>
<trkpt lat="25.944995" lon="100.398741">
<time>2016-08-13T12:35:30Z</time></trkpt>
<trkpt lat="25.945005" lon="100.398781">
<time>2016-08-13T12:35:31Z</time></trkpt>
<trkpt lat="25.945005" lon="100.398821">
<time>2016-08-13T12:35:32Z</time></trkpt>
<trkpt lat="25.945015" lon="100.398851">
<time>2016-08-13T12:35:33Z</time></trkpt>
<trkpt lat="25.945005" lon="100.398891">
<time>2016-08-13T12:35:34Z</time></trkpt>
<trkpt lat="25.944995" lon="100.398931">
<time>2016-08-13T12:35:35Z</time></trkpt>
<trkpt lat="25.944975" lon="100.398971">
<time>2016-08-13T12:35:36Z</time></trkpt>
<trkpt lat="25.944955" lon="100.399021">
<time>2016-08-13T12:35:37Z</time></trkpt>
<trkpt lat="25.944915" lon="100.399061">
<time>2016-08-13T12:35:38Z</time></trkpt>
<trkpt lat="25.944755" lon="100.399251">
<time>2016-08-13T12:35:39Z</time></trkpt>
<trkpt lat="25.944714" lon="100.399311">
<time>2016-08-13T12:35:40Z</time></trkpt>
<trkpt lat="25.944674" lon="100.399381">
<time>2016-08-13T12:35:41Z</time></trkpt>
<trkpt lat="25.944644" lon="100.399461">
<time>2016-08-13T12:35:42Z</time></trkpt>
<trkpt lat="25.944624" lon="100.399511">
<time>2016-08-13T12:35:43Z</time></trkpt>
<trkpt lat="25.944624" lon="100.399561">
<time>2016-08-13T12:35:44Z</time></trkpt>
<trkpt lat="25.944614" lon="100.399611">
<time>2016-08-13T12:35:45Z</time></trkpt>
<trkpt lat="25.944624" lon="100.399651">
<time>2016-08-13T12:35:46Z</time></trkpt>
<trkpt lat="25.944634" lon="100.399691">
<time>2016-08-13T12:35:47Z</time></trkpt>
<trkpt lat="25.944644" lon="100.399711">
<time>2016-08-13T12:35:48Z</time></trkpt>
<trkpt lat="25.944664" lon="100.399751">
<time>2016-08-13T12:35:49Z</time></trkpt>
<trkpt lat="25.944694" lon="100.399781">
<time>2016-08-13T12:35:50Z</time></trkpt>
<trkpt lat="25.944714" lon="100.399791">
<time>2016-08-13T12:35:51Z</time></trkpt>
<trkpt lat="25.944744" lon="100.399811">
<time>2016-08-13T12:35:52Z</time></trkpt>
<trkpt lat="25.944764" lon="100.399821">
<time>2016-08-13T12:35:53Z</time></trkpt>
<trkpt lat="25.944785" lon="100.399831">
<time>2016-08-13T12:35:54Z</time></trkpt>
<trkpt lat="25.944805" lon="100.399841">
<time>2016-08-13T12:35:55Z</time></trkpt>
<trkpt lat="25.944805" lon="100.399841">
<time>2016-08-13T12:35:56Z</time></trkpt>
<trkpt lat="25.944805" lon="100.399871">
<time>2016-08-13T12:35:57Z</time></trkpt></trkseg></trk></gpx>